<?xml version="1.0" encoding="UTF-8" standalone="no" ?>
<gpx xmlns="http://www.topografix.com/GPX/1/1" xmlns:xsi="http://www.w3.org/2001/XMLSchema-instance" xsi:schemaLocation="http://www.topografix.com/GPX/1/1 http://www.topografix.com/GPX/1/1/gpx.xsd" version="1.1" creator="VisuGPX - https://www.visugpx.com">
  <metadata>
    <name>Dent du Pra</name>
    <desc><![CDATA[
]]></desc>
  </metadata>
  <trk>
    <name><![CDATA[Dent du Pra_1]]></name>
    <extensions>
      <line xmlns="http://www.topografix.com/GPX/gpx_style/0/2">
        <color>0000FF</color>
        <width>4</width>
      </line>
    </extensions>
    <trkseg>
      <trkpt lat="45.26442" lon="6.01524">
        <ele>1581.4549560547</ele>
        <time>2017-11-17T08:03:20Z</time>
      </trkpt>
      <trkpt lat="45.26446" lon="6.01529">
        <ele>1580.4549560547</ele>
        <time>2017-11-17T08:04:38Z</time>
      </trkpt>
      <trkpt lat="45.26449" lon="6.01534">
        <ele>1580.4549560547</ele>
        <time>2017-11-17T08:04:42Z</time>
      </trkpt>
      <trkpt lat="45.26448" lon="6.0154">
        <ele>1579.4549560547</ele>
        <time>2017-11-17T08:04:48Z</time>
      </trkpt>
      <trkpt lat="45.26449" lon="6.01546">
        <ele>1577.4549560547</ele>
        <time>2017-11-17T08:04:54Z</time>
      </trkpt>
      <trkpt lat="45.26451" lon="6.01552">
        <ele>1582.4549560547</ele>
        <time>2017-11-17T08:04:58Z</time>
      </trkpt>
      <trkpt lat="45.26455" lon="6.01555">
        <ele>1581.4549560547</ele>
        <time>2017-11-17T08:05:20Z</time>
      </trkpt>
      <trkpt lat="45.26457" lon="6.01561">
        <ele>1583.4549560547</ele>
        <time>2017-11-17T08:05:23Z</time>
      </trkpt>
      <trkpt lat="45.26461" lon="6.01568">
        <ele>1583.4549560547</ele>
        <time>2017-11-17T08:05:27Z</time>
      </trkpt>
      <trkpt lat="45.26461" lon="6.01576">
        <ele>1580.4549560547</ele>
        <time>2017-11-17T08:05:31Z</time>
      </trkpt>
      <trkpt lat="45.2646" lon="6.01583">
        <ele>1578.4549560547</ele>
        <time>2017-11-17T08:05:36Z</time>
      </trkpt>
      <trkpt lat="45.26457" lon="6.01589">
        <ele>1579.4549560547</ele>
        <time>2017-11-17T08:05:39Z</time>
      </trkpt>
      <trkpt lat="45.26453" lon="6.01593">
        <ele>1579.4549560547</ele>
        <time>2017-11-17T08:05:42Z</time>
      </trkpt>
      <trkpt lat="45.26448" lon="6.01596">
        <ele>1578.4549560547</ele>
        <time>2017-11-17T08:05:45Z</time>
      </trkpt>
      <trkpt lat="45.26443" lon="6.01599">
        <ele>1578.4549560547</ele>
        <time>2017-11-17T08:05:48Z</time>
      </trkpt>
      <trkpt lat="45.26438" lon="6.01604">
        <ele>1575.4549560547</ele>
        <time>2017-11-17T08:05:52Z</time>
      </trkpt>
      <trkpt lat="45.26435" lon="6.01608">
        <ele>1575.4549560547</ele>
        <time>2017-11-17T08:05:55Z</time>
      </trkpt>
      <trkpt lat="45.26431" lon="6.01612">
        <ele>1576.4549560547</ele>
        <time>2017-11-17T08:05:58Z</time>
      </trkpt>
      <trkpt lat="45.26427" lon="6.01616">
        <ele>1576.4549560547</ele>
        <time>2017-11-17T08:06:01Z</time>
      </trkpt>
      <trkpt lat="45.26423" lon="6.01618">
        <ele>1575.4549560547</ele>
        <time>2017-11-17T08:06:04Z</time>
      </trkpt>
      <trkpt lat="45.26419" lon="6.01621">
        <ele>1573.4549560547</ele>
        <time>2017-11-17T08:06:08Z</time>
      </trkpt>
      <trkpt lat="45.26415" lon="6.01625">
        <ele>1572.4549560547</ele>
        <time>2017-11-17T08:06:12Z</time>
      </trkpt>
      <trkpt lat="45.26411" lon="6.01631">
        <ele>1575.4549560547</ele>
        <time>2017-11-17T08:06:14Z</time>
      </trkpt>
      <trkpt lat="45.26408" lon="6.01636">
        <ele>1579.4549560547</ele>
        <time>2017-11-17T08:06:17Z</time>
      </trkpt>
      <trkpt lat="45.26404" lon="6.01641">
        <ele>1581.4549560547</ele>
        <time>2017-11-17T08:06:20Z</time>
      </trkpt>
      <trkpt lat="45.264" lon="6.01645">
        <ele>1580.4549560547</ele>
        <time>2017-11-17T08:06:24Z</time>
      </trkpt>
      <trkpt lat="45.26396" lon="6.01647">
        <ele>1580.4549560547</ele>
        <time>2017-11-17T08:06:27Z</time>
      </trkpt>
      <trkpt lat="45.26393" lon="6.01653">
        <ele>1580.4549560547</ele>
        <time>2017-11-17T08:06:31Z</time>
      </trkpt>
      <trkpt lat="45.26389" lon="6.01659">
        <ele>1579.4549560547</ele>
        <time>2017-11-17T08:06:35Z</time>
      </trkpt>
      <trkpt lat="45.26385" lon="6.01664">
        <ele>1580.4549560547</ele>
        <time>2017-11-17T08:06:38Z</time>
      </trkpt>
      <trkpt lat="45.26386" lon="6.01671">
        <ele>1579.4549560547</ele>
        <time>2017-11-17T08:06:41Z</time>
      </trkpt>
      <trkpt lat="45.26382" lon="6.01677">
        <ele>1578.4549560547</ele>
        <time>2017-11-17T08:06:46Z</time>
      </trkpt>
      <trkpt lat="45.26382" lon="6.01684">
        <ele>1581.4549560547</ele>
        <time>2017-11-17T08:06:51Z</time>
      </trkpt>
      <trkpt lat="45.26379" lon="6.01691">
        <ele>1583.4549560547</ele>
        <time>2017-11-17T08:06:59Z</time>
      </trkpt>
      <trkpt lat="45.26381" lon="6.01697">
        <ele>1584.4549560547</ele>
        <time>2017-11-17T08:07:03Z</time>
      </trkpt>
      <trkpt lat="45.26382" lon="6.01705">
        <ele>1586.4549560547</ele>
        <time>2017-11-17T08:07:07Z</time>
      </trkpt>
      <trkpt lat="45.26381" lon="6.01712">
        <ele>1587.4549560547</ele>
        <time>2017-11-17T08:07:12Z</time>
      </trkpt>
      <trkpt lat="45.26381" lon="6.0172">
        <ele>1587.4549560547</ele>
        <time>2017-11-17T08:07:17Z</time>
      </trkpt>
      <trkpt lat="45.26382" lon="6.01726">
        <ele>1586.4549560547</ele>
        <time>2017-11-17T08:07:22Z</time>
      </trkpt>
      <trkpt lat="45.26382" lon="6.01734">
        <ele>1587.4549560547</ele>
        <time>2017-11-17T08:07:27Z</time>
      </trkpt>
      <trkpt lat="45.26383" lon="6.01741">
        <ele>1587.4549560547</ele>
        <time>2017-11-17T08:07:33Z</time>
      </trkpt>
      <trkpt lat="45.26385" lon="6.01747">
        <ele>1587.4549560547</ele>
        <time>2017-11-17T08:07:37Z</time>
      </trkpt>
      <trkpt lat="45.26384" lon="6.01754">
        <ele>1587.4549560547</ele>
        <time>2017-11-17T08:07:42Z</time>
      </trkpt>
      <trkpt lat="45.26383" lon="6.01764">
        <ele>1595.4549560547</ele>
        <time>2017-11-17T08:07:44Z</time>
      </trkpt>
      <trkpt lat="45.26382" lon="6.01772">
        <ele>1595.4549560547</ele>
        <time>2017-11-17T08:07:51Z</time>
      </trkpt>
      <trkpt lat="45.26381" lon="6.0178">
        <ele>1602.4549560547</ele>
        <time>2017-11-17T08:07:54Z</time>
      </trkpt>
      <trkpt lat="45.26381" lon="6.01787">
        <ele>1605.4549560547</ele>
        <time>2017-11-17T08:07:58Z</time>
      </trkpt>
      <trkpt lat="45.2638" lon="6.01793">
        <ele>1603.4549560547</ele>
        <time>2017-11-17T08:08:04Z</time>
      </trkpt>
      <trkpt lat="45.26381" lon="6.018">
        <ele>1605.4549560547</ele>
        <time>2017-11-17T08:08:10Z</time>
      </trkpt>
      <trkpt lat="45.2638" lon="6.01807">
        <ele>1605.4549560547</ele>
        <time>2017-11-17T08:08:16Z</time>
      </trkpt>
      <trkpt lat="45.26379" lon="6.01814">
        <ele>1608.4549560547</ele>
        <time>2017-11-17T08:08:20Z</time>
      </trkpt>
      <trkpt lat="45.26377" lon="6.0182">
        <ele>1608.4549560547</ele>
        <time>2017-11-17T08:08:26Z</time>
      </trkpt>
      <trkpt lat="45.26373" lon="6.01825">
        <ele>1613.4549560547</ele>
        <time>2017-11-17T08:08:34Z</time>
      </trkpt>
      <trkpt lat="45.26369" lon="6.01829">
        <ele>1610.4549560547</ele>
        <time>2017-11-17T08:08:40Z</time>
      </trkpt>
      <trkpt lat="45.26367" lon="6.01834">
        <ele>1611.4549560547</ele>
        <time>2017-11-17T08:08:45Z</time>
      </trkpt>
      <trkpt lat="45.26363" lon="6.01839">
        <ele>1613.4549560547</ele>
        <time>2017-11-17T08:08:49Z</time>
      </trkpt>
      <trkpt lat="45.2636" lon="6.01844">
        <ele>1614.4549560547</ele>
        <time>2017-11-17T08:08:54Z</time>
      </trkpt>
      <trkpt lat="45.26356" lon="6.01848">
        <ele>1616.4549560547</ele>
        <time>2017-11-17T08:09:00Z</time>
      </trkpt>
      <trkpt lat="45.26352" lon="6.01851">
        <ele>1618.4549560547</ele>
        <time>2017-11-17T08:09:05Z</time>
      </trkpt>
      <trkpt lat="45.26348" lon="6.01855">
        <ele>1618.4549560547</ele>
        <time>2017-11-17T08:09:12Z</time>
      </trkpt>
      <trkpt lat="45.26342" lon="6.01858">
        <ele>1619.4549560547</ele>
        <time>2017-11-17T08:09:19Z</time>
      </trkpt>
      <trkpt lat="45.26338" lon="6.01862">
        <ele>1620.4549560547</ele>
        <time>2017-11-17T08:09:27Z</time>
      </trkpt>
      <trkpt lat="45.26334" lon="6.01867">
        <ele>1619.4549560547</ele>
        <time>2017-11-17T08:09:37Z</time>
      </trkpt>
      <trkpt lat="45.2633" lon="6.01871">
        <ele>1620.4549560547</ele>
        <time>2017-11-17T08:09:43Z</time>
      </trkpt>
      <trkpt lat="45.26326" lon="6.01875">
        <ele>1621.4549560547</ele>
        <time>2017-11-17T08:09:48Z</time>
      </trkpt>
      <trkpt lat="45.26322" lon="6.01877">
        <ele>1620.4549560547</ele>
        <time>2017-11-17T08:09:53Z</time>
      </trkpt>
      <trkpt lat="45.26319" lon="6.01883">
        <ele>1622.4549560547</ele>
        <time>2017-11-17T08:10:00Z</time>
      </trkpt>
      <trkpt lat="45.26315" lon="6.01887">
        <ele>1624.4549560547</ele>
        <time>2017-11-17T08:10:09Z</time>
      </trkpt>
      <trkpt lat="45.26311" lon="6.01891">
        <ele>1625.4549560547</ele>
        <time>2017-11-17T08:10:18Z</time>
      </trkpt>
      <trkpt lat="45.26307" lon="6.01895">
        <ele>1626.4549560547</ele>
        <time>2017-11-17T08:10:24Z</time>
      </trkpt>
      <trkpt lat="45.26302" lon="6.019">
        <ele>1630.4549560547</ele>
        <time>2017-11-17T08:10:31Z</time>
      </trkpt>
      <trkpt lat="45.26298" lon="6.01905">
        <ele>1630.4549560547</ele>
        <time>2017-11-17T08:10:39Z</time>
      </trkpt>
      <trkpt lat="45.26294" lon="6.0191">
        <ele>1631.4549560547</ele>
        <time>2017-11-17T08:10:47Z</time>
      </trkpt>
      <trkpt lat="45.2629" lon="6.01916">
        <ele>1634.4549560547</ele>
        <time>2017-11-17T08:10:56Z</time>
      </trkpt>
      <trkpt lat="45.26286" lon="6.01923">
        <ele>1636.4549560547</ele>
        <time>2017-11-17T08:11:02Z</time>
      </trkpt>
      <trkpt lat="45.2628" lon="6.01925">
        <ele>1637.4549560547</ele>
        <time>2017-11-17T08:11:07Z</time>
      </trkpt>
      <trkpt lat="45.26278" lon="6.01931">
        <ele>1643.4549560547</ele>
        <time>2017-11-17T08:11:15Z</time>
      </trkpt>
      <trkpt lat="45.26275" lon="6.01936">
        <ele>1644.4549560547</ele>
        <time>2017-11-17T08:11:27Z</time>
      </trkpt>
      <trkpt lat="45.26271" lon="6.0194">
        <ele>1644.4549560547</ele>
        <time>2017-11-17T08:11:32Z</time>
      </trkpt>
      <trkpt lat="45.26266" lon="6.01944">
        <ele>1642.4549560547</ele>
        <time>2017-11-17T08:11:38Z</time>
      </trkpt>
      <trkpt lat="45.26263" lon="6.01948">
        <ele>1642.4549560547</ele>
        <time>2017-11-17T08:11:44Z</time>
      </trkpt>
      <trkpt lat="45.26258" lon="6.01954">
        <ele>1646.4549560547</ele>
        <time>2017-11-17T08:11:51Z</time>
      </trkpt>
      <trkpt lat="45.26255" lon="6.01959">
        <ele>1648.4549560547</ele>
        <time>2017-11-17T08:11:55Z</time>
      </trkpt>
      <trkpt lat="45.26251" lon="6.01964">
        <ele>1650.4549560547</ele>
        <time>2017-11-17T08:12:01Z</time>
      </trkpt>
      <trkpt lat="45.26246" lon="6.01963">
        <ele>1650.4549560547</ele>
        <time>2017-11-17T08:12:07Z</time>
      </trkpt>
      <trkpt lat="45.26241" lon="6.01962">
        <ele>1653.4549560547</ele>
        <time>2017-11-17T08:12:14Z</time>
      </trkpt>
      <trkpt lat="45.26237" lon="6.01961">
        <ele>1654.4549560547</ele>
        <time>2017-11-17T08:12:20Z</time>
      </trkpt>
      <trkpt lat="45.26232" lon="6.01961">
        <ele>1656.4549560547</ele>
        <time>2017-11-17T08:12:26Z</time>
      </trkpt>
      <trkpt lat="45.26228" lon="6.0196">
        <ele>1657.4549560547</ele>
        <time>2017-11-17T08:12:34Z</time>
      </trkpt>
      <trkpt lat="45.26223" lon="6.01961">
        <ele>1657.4549560547</ele>
        <time>2017-11-17T08:12:40Z</time>
      </trkpt>
      <trkpt lat="45.26218" lon="6.01959">
        <ele>1656.4549560547</ele>
        <time>2017-11-17T08:12:46Z</time>
      </trkpt>
      <trkpt lat="45.26214" lon="6.01956">
        <ele>1661.4549560547</ele>
        <time>2017-11-17T08:12:52Z</time>
      </trkpt>
      <trkpt lat="45.26208" lon="6.01955">
        <ele>1663.4549560547</ele>
        <time>2017-11-17T08:12:59Z</time>
      </trkpt>
      <trkpt lat="45.26204" lon="6.01951">
        <ele>1663.4549560547</ele>
        <time>2017-11-17T08:13:05Z</time>
      </trkpt>
      <trkpt lat="45.26199" lon="6.0195">
        <ele>1664.4549560547</ele>
        <time>2017-11-17T08:13:11Z</time>
      </trkpt>
      <trkpt lat="45.26195" lon="6.0195">
        <ele>1667.4549560547</ele>
        <time>2017-11-17T08:13:17Z</time>
      </trkpt>
      <trkpt lat="45.26191" lon="6.01953">
        <ele>1663.4549560547</ele>
        <time>2017-11-17T08:13:24Z</time>
      </trkpt>
      <trkpt lat="45.26186" lon="6.01954">
        <ele>1662.4549560547</ele>
        <time>2017-11-17T08:13:29Z</time>
      </trkpt>
      <trkpt lat="45.26181" lon="6.01956">
        <ele>1664.4549560547</ele>
        <time>2017-11-17T08:13:35Z</time>
      </trkpt>
      <trkpt lat="45.26177" lon="6.01959">
        <ele>1663.4549560547</ele>
        <time>2017-11-17T08:13:41Z</time>
      </trkpt>
      <trkpt lat="45.26171" lon="6.01959">
        <ele>1663.4549560547</ele>
        <time>2017-11-17T08:13:45Z</time>
      </trkpt>
      <trkpt lat="45.26167" lon="6.01963">
        <ele>1666.4549560547</ele>
        <time>2017-11-17T08:13:49Z</time>
      </trkpt>
      <trkpt lat="45.26162" lon="6.01965">
        <ele>1666.4549560547</ele>
        <time>2017-11-17T08:13:53Z</time>
      </trkpt>
      <trkpt lat="45.26158" lon="6.01965">
        <ele>1663.4549560547</ele>
        <time>2017-11-17T08:13:59Z</time>
      </trkpt>
      <trkpt lat="45.26153" lon="6.01966">
        <ele>1665.4549560547</ele>
        <time>2017-11-17T08:14:04Z</time>
      </trkpt>
      <trkpt lat="45.26147" lon="6.01966">
        <ele>1668.4549560547</ele>
        <time>2017-11-17T08:14:08Z</time>
      </trkpt>
      <trkpt lat="45.26142" lon="6.01966">
        <ele>1670.4549560547</ele>
        <time>2017-11-17T08:14:11Z</time>
      </trkpt>
      <trkpt lat="45.26136" lon="6.01967">
        <ele>1673.4549560547</ele>
        <time>2017-11-17T08:14:16Z</time>
      </trkpt>
      <trkpt lat="45.26131" lon="6.01966">
        <ele>1673.4549560547</ele>
        <time>2017-11-17T08:14:20Z</time>
      </trkpt>
      <trkpt lat="45.26126" lon="6.01965">
        <ele>1673.4549560547</ele>
        <time>2017-11-17T08:14:24Z</time>
      </trkpt>
      <trkpt lat="45.2612" lon="6.01965">
        <ele>1674.4549560547</ele>
        <time>2017-11-17T08:14:28Z</time>
      </trkpt>
      <trkpt lat="45.26114" lon="6.01966">
        <ele>1673.4549560547</ele>
        <time>2017-11-17T08:14:32Z</time>
      </trkpt>
      <trkpt lat="45.2611" lon="6.01965">
        <ele>1673.4549560547</ele>
        <time>2017-11-17T08:14:37Z</time>
      </trkpt>
      <trkpt lat="45.26104" lon="6.01963">
        <ele>1675.4549560547</ele>
        <time>2017-11-17T08:17:17Z</time>
      </trkpt>
      <trkpt lat="45.26099" lon="6.01961">
        <ele>1673.4549560547</ele>
        <time>2017-11-17T08:17:21Z</time>
      </trkpt>
      <trkpt lat="45.26093" lon="6.0196">
        <ele>1674.4549560547</ele>
        <time>2017-11-17T08:17:24Z</time>
      </trkpt>
      <trkpt lat="45.26088" lon="6.01959">
        <ele>1672.4549560547</ele>
        <time>2017-11-17T08:17:29Z</time>
      </trkpt>
      <trkpt lat="45.26083" lon="6.0196">
        <ele>1671.4549560547</ele>
        <time>2017-11-17T08:17:31Z</time>
      </trkpt>
      <trkpt lat="45.26078" lon="6.01958">
        <ele>1671.4549560547</ele>
        <time>2017-11-17T08:17:34Z</time>
      </trkpt>
      <trkpt lat="45.26074" lon="6.01955">
        <ele>1671.4549560547</ele>
        <time>2017-11-17T08:17:39Z</time>
      </trkpt>
      <trkpt lat="45.26069" lon="6.01951">
        <ele>1672.4549560547</ele>
        <time>2017-11-17T08:17:43Z</time>
      </trkpt>
      <trkpt lat="45.26065" lon="6.01948">
        <ele>1671.4549560547</ele>
        <time>2017-11-17T08:17:50Z</time>
      </trkpt>
      <trkpt lat="45.2606" lon="6.01945">
        <ele>1672.4549560547</ele>
        <time>2017-11-17T08:17:54Z</time>
      </trkpt>
      <trkpt lat="45.26054" lon="6.01943">
        <ele>1673.4549560547</ele>
        <time>2017-11-17T08:17:58Z</time>
      </trkpt>
      <trkpt lat="45.2605" lon="6.01941">
        <ele>1674.4549560547</ele>
        <time>2017-11-17T08:18:02Z</time>
      </trkpt>
      <trkpt lat="45.26044" lon="6.01939">
        <ele>1674.4549560547</ele>
        <time>2017-11-17T08:18:05Z</time>
      </trkpt>
      <trkpt lat="45.26042" lon="6.01932">
        <ele>1676.4549560547</ele>
        <time>2017-11-17T08:18:09Z</time>
      </trkpt>
      <trkpt lat="45.26037" lon="6.01929">
        <ele>1676.4549560547</ele>
        <time>2017-11-17T08:18:14Z</time>
      </trkpt>
      <trkpt lat="45.26033" lon="6.01924">
        <ele>1676.4549560547</ele>
        <time>2017-11-17T08:18:21Z</time>
      </trkpt>
      <trkpt lat="45.26029" lon="6.01918">
        <ele>1677.4549560547</ele>
        <time>2017-11-17T08:18:25Z</time>
      </trkpt>
      <trkpt lat="45.26025" lon="6.01915">
        <ele>1679.4549560547</ele>
        <time>2017-11-17T08:18:30Z</time>
      </trkpt>
      <trkpt lat="45.2602" lon="6.01911">
        <ele>1681.4549560547</ele>
        <time>2017-11-17T08:18:35Z</time>
      </trkpt>
      <trkpt lat="45.26017" lon="6.01906">
        <ele>1682.4549560547</ele>
        <time>2017-11-17T08:18:39Z</time>
      </trkpt>
      <trkpt lat="45.26013" lon="6.01903">
        <ele>1682.4549560547</ele>
        <time>2017-11-17T08:18:43Z</time>
      </trkpt>
      <trkpt lat="45.26007" lon="6.01901">
        <ele>1685.4549560547</ele>
        <time>2017-11-17T08:18:49Z</time>
      </trkpt>
      <trkpt lat="45.26004" lon="6.01894">
        <ele>1685.4549560547</ele>
        <time>2017-11-17T08:18:54Z</time>
      </trkpt>
      <trkpt lat="45.26" lon="6.01891">
        <ele>1684.4549560547</ele>
        <time>2017-11-17T08:18:58Z</time>
      </trkpt>
      <trkpt lat="45.25995" lon="6.01888">
        <ele>1683.4549560547</ele>
        <time>2017-11-17T08:19:05Z</time>
      </trkpt>
      <trkpt lat="45.25991" lon="6.01886">
        <ele>1684.4549560547</ele>
        <time>2017-11-17T08:19:09Z</time>
      </trkpt>
      <trkpt lat="45.25985" lon="6.01883">
        <ele>1686.4549560547</ele>
        <time>2017-11-17T08:19:15Z</time>
      </trkpt>
      <trkpt lat="45.25982" lon="6.0188">
        <ele>1686.4549560547</ele>
        <time>2017-11-17T08:19:21Z</time>
      </trkpt>
      <trkpt lat="45.25977" lon="6.01876">
        <ele>1689.4549560547</ele>
        <time>2017-11-17T08:19:27Z</time>
      </trkpt>
      <trkpt lat="45.25972" lon="6.01871">
        <ele>1692.4549560547</ele>
        <time>2017-11-17T08:19:30Z</time>
      </trkpt>
      <trkpt lat="45.25969" lon="6.01866">
        <ele>1696.4539794922</ele>
        <time>2017-11-17T08:19:34Z</time>
      </trkpt>
      <trkpt lat="45.25964" lon="6.01862">
        <ele>1698.4539794922</ele>
        <time>2017-11-17T08:19:38Z</time>
      </trkpt>
      <trkpt lat="45.25959" lon="6.01858">
        <ele>1698.4539794922</ele>
        <time>2017-11-17T08:19:43Z</time>
      </trkpt>
      <trkpt lat="45.25955" lon="6.01855">
        <ele>1699.4539794922</ele>
        <time>2017-11-17T08:19:48Z</time>
      </trkpt>
      <trkpt lat="45.25951" lon="6.01851">
        <ele>1702.4539794922</ele>
        <time>2017-11-17T08:19:53Z</time>
      </trkpt>
      <trkpt lat="45.25946" lon="6.01849">
        <ele>1701.4539794922</ele>
        <time>2017-11-17T08:19:58Z</time>
      </trkpt>
      <trkpt lat="45.25941" lon="6.01848">
        <ele>1700.4539794922</ele>
        <time>2017-11-17T08:20:04Z</time>
      </trkpt>
      <trkpt lat="45.25936" lon="6.01846">
        <ele>1698.4539794922</ele>
        <time>2017-11-17T08:20:08Z</time>
      </trkpt>
      <trkpt lat="45.2593" lon="6.01844">
        <ele>1699.4539794922</ele>
        <time>2017-11-17T08:20:12Z</time>
      </trkpt>
      <trkpt lat="45.25925" lon="6.01845">
        <ele>1700.4539794922</ele>
        <time>2017-11-17T08:20:21Z</time>
      </trkpt>
      <trkpt lat="45.2592" lon="6.01846">
        <ele>1701.4539794922</ele>
        <time>2017-11-17T08:20:25Z</time>
      </trkpt>
      <trkpt lat="45.25915" lon="6.01846">
        <ele>1703.4539794922</ele>
        <time>2017-11-17T08:20:31Z</time>
      </trkpt>
      <trkpt lat="45.2591" lon="6.01845">
        <ele>1705.4539794922</ele>
        <time>2017-11-17T08:20:36Z</time>
      </trkpt>
      <trkpt lat="45.25906" lon="6.01842">
        <ele>1707.4539794922</ele>
        <time>2017-11-17T08:20:40Z</time>
      </trkpt>
      <trkpt lat="45.25902" lon="6.01845">
        <ele>1708.4539794922</ele>
        <time>2017-11-17T08:20:46Z</time>
      </trkpt>
      <trkpt lat="45.25896" lon="6.01845">
        <ele>1709.4539794922</ele>
        <time>2017-11-17T08:20:52Z</time>
      </trkpt>
      <trkpt lat="45.2589" lon="6.01847">
        <ele>1711.4539794922</ele>
        <time>2017-11-17T08:20:58Z</time>
      </trkpt>
      <trkpt lat="45.25886" lon="6.0185">
        <ele>1712.4539794922</ele>
        <time>2017-11-17T08:21:02Z</time>
      </trkpt>
      <trkpt lat="45.25881" lon="6.01852">
        <ele>1712.4539794922</ele>
        <time>2017-11-17T08:21:08Z</time>
      </trkpt>
      <trkpt lat="45.25876" lon="6.01851">
        <ele>1714.4539794922</ele>
        <time>2017-11-17T08:21:12Z</time>
      </trkpt>
      <trkpt lat="45.25871" lon="6.01852">
        <ele>1715.4539794922</ele>
        <time>2017-11-17T08:21:17Z</time>
      </trkpt>
      <trkpt lat="45.25867" lon="6.01855">
        <ele>1719.4539794922</ele>
        <time>2017-11-17T08:21:22Z</time>
      </trkpt>
      <trkpt lat="45.25863" lon="6.0186">
        <ele>1721.4539794922</ele>
        <time>2017-11-17T08:21:28Z</time>
      </trkpt>
      <trkpt lat="45.25859" lon="6.01863">
        <ele>1721.4539794922</ele>
        <time>2017-11-17T08:21:34Z</time>
      </trkpt>
      <trkpt lat="45.25856" lon="6.01868">
        <ele>1722.4539794922</ele>
        <time>2017-11-17T08:21:40Z</time>
      </trkpt>
      <trkpt lat="45.25851" lon="6.01871">
        <ele>1724.4539794922</ele>
        <time>2017-11-17T08:21:46Z</time>
      </trkpt>
      <trkpt lat="45.25853" lon="6.01877">
        <ele>1723.4539794922</ele>
        <time>2017-11-17T08:21:54Z</time>
      </trkpt>
      <trkpt lat="45.25854" lon="6.01883">
        <ele>1723.4539794922</ele>
        <time>2017-11-17T08:21:58Z</time>
      </trkpt>
      <trkpt lat="45.25856" lon="6.0189">
        <ele>1723.4539794922</ele>
        <time>2017-11-17T08:22:02Z</time>
      </trkpt>
      <trkpt lat="45.25859" lon="6.01894">
        <ele>1721.4539794922</ele>
        <time>2017-11-17T08:22:08Z</time>
      </trkpt>
      <trkpt lat="45.25862" lon="6.019">
        <ele>1725.4539794922</ele>
        <time>2017-11-17T08:22:15Z</time>
      </trkpt>
      <trkpt lat="45.25864" lon="6.01906">
        <ele>1728.4539794922</ele>
        <time>2017-11-17T08:22:22Z</time>
      </trkpt>
      <trkpt lat="45.25862" lon="6.01911">
        <ele>1729.4539794922</ele>
        <time>2017-11-17T08:22:30Z</time>
      </trkpt>
      <trkpt lat="45.25859" lon="6.01916">
        <ele>1728.4539794922</ele>
        <time>2017-11-17T08:22:34Z</time>
      </trkpt>
      <trkpt lat="45.25854" lon="6.0192">
        <ele>1730.4539794922</ele>
        <time>2017-11-17T08:22:39Z</time>
      </trkpt>
      <trkpt lat="45.2585" lon="6.01923">
        <ele>1732.4539794922</ele>
        <time>2017-11-17T08:22:44Z</time>
      </trkpt>
      <trkpt lat="45.25845" lon="6.01927">
        <ele>1732.4539794922</ele>
        <time>2017-11-17T08:22:52Z</time>
      </trkpt>
      <trkpt lat="45.25841" lon="6.0193">
        <ele>1735.4539794922</ele>
        <time>2017-11-17T08:22:56Z</time>
      </trkpt>
      <trkpt lat="45.25837" lon="6.01934">
        <ele>1737.4539794922</ele>
        <time>2017-11-17T08:23:00Z</time>
      </trkpt>
      <trkpt lat="45.25832" lon="6.01936">
        <ele>1738.4539794922</ele>
        <time>2017-11-17T08:23:06Z</time>
      </trkpt>
      <trkpt lat="45.25829" lon="6.01941">
        <ele>1741.4539794922</ele>
        <time>2017-11-17T08:23:13Z</time>
      </trkpt>
      <trkpt lat="45.25824" lon="6.01941">
        <ele>1741.4539794922</ele>
        <time>2017-11-17T08:23:17Z</time>
      </trkpt>
      <trkpt lat="45.25819" lon="6.01943">
        <ele>1744.4539794922</ele>
        <time>2017-11-17T08:23:22Z</time>
      </trkpt>
      <trkpt lat="45.25814" lon="6.01942">
        <ele>1744.4539794922</ele>
        <time>2017-11-17T08:23:29Z</time>
      </trkpt>
      <trkpt lat="45.25809" lon="6.01944">
        <ele>1744.4539794922</ele>
        <time>2017-11-17T08:23:37Z</time>
      </trkpt>
      <trkpt lat="45.25804" lon="6.01947">
        <ele>1743.4539794922</ele>
        <time>2017-11-17T08:23:45Z</time>
      </trkpt>
      <trkpt lat="45.25799" lon="6.01949">
        <ele>1744.4539794922</ele>
        <time>2017-11-17T08:23:50Z</time>
      </trkpt>
      <trkpt lat="45.25795" lon="6.01952">
        <ele>1745.4539794922</ele>
        <time>2017-11-17T08:23:55Z</time>
      </trkpt>
      <trkpt lat="45.25793" lon="6.01959">
        <ele>1748.4539794922</ele>
        <time>2017-11-17T08:24:02Z</time>
      </trkpt>
      <trkpt lat="45.2579" lon="6.01965">
        <ele>1750.4539794922</ele>
        <time>2017-11-17T08:24:06Z</time>
      </trkpt>
      <trkpt lat="45.25786" lon="6.01971">
        <ele>1753.4539794922</ele>
        <time>2017-11-17T08:24:16Z</time>
      </trkpt>
      <trkpt lat="45.25783" lon="6.01976">
        <ele>1752.4539794922</ele>
        <time>2017-11-17T08:24:25Z</time>
      </trkpt>
      <trkpt lat="45.2578" lon="6.01981">
        <ele>1756.4539794922</ele>
        <time>2017-11-17T08:24:32Z</time>
      </trkpt>
      <trkpt lat="45.25776" lon="6.01985">
        <ele>1758.4539794922</ele>
        <time>2017-11-17T08:24:40Z</time>
      </trkpt>
      <trkpt lat="45.25773" lon="6.0199">
        <ele>1758.4539794922</ele>
        <time>2017-11-17T08:24:47Z</time>
      </trkpt>
      <trkpt lat="45.25768" lon="6.01996">
        <ele>1761.4539794922</ele>
        <time>2017-11-17T08:24:51Z</time>
      </trkpt>
      <trkpt lat="45.25764" lon="6.02">
        <ele>1758.4539794922</ele>
        <time>2017-11-17T08:24:56Z</time>
      </trkpt>
      <trkpt lat="45.25759" lon="6.02004">
        <ele>1760.4539794922</ele>
        <time>2017-11-17T08:25:01Z</time>
      </trkpt>
      <trkpt lat="45.25754" lon="6.02006">
        <ele>1762.4539794922</ele>
        <time>2017-11-17T08:25:08Z</time>
      </trkpt>
      <trkpt lat="45.2575" lon="6.02011">
        <ele>1763.4539794922</ele>
        <time>2017-11-17T08:25:14Z</time>
      </trkpt>
      <trkpt lat="45.25746" lon="6.02016">
        <ele>1769.4539794922</ele>
        <time>2017-11-17T08:25:20Z</time>
      </trkpt>
      <trkpt lat="45.2574" lon="6.02017">
        <ele>1768.4539794922</ele>
        <time>2017-11-17T08:25:23Z</time>
      </trkpt>
      <trkpt lat="45.25735" lon="6.0202">
        <ele>1768.4539794922</ele>
        <time>2017-11-17T08:25:30Z</time>
      </trkpt>
      <trkpt lat="45.25731" lon="6.02024">
        <ele>1770.4539794922</ele>
        <time>2017-11-17T08:25:35Z</time>
      </trkpt>
      <trkpt lat="45.25728" lon="6.02029">
        <ele>1769.4539794922</ele>
        <time>2017-11-17T08:25:41Z</time>
      </trkpt>
      <trkpt lat="45.25725" lon="6.02034">
        <ele>1771.4539794922</ele>
        <time>2017-11-17T08:25:48Z</time>
      </trkpt>
      <trkpt lat="45.25723" lon="6.0204">
        <ele>1775.4539794922</ele>
        <time>2017-11-17T08:25:58Z</time>
      </trkpt>
      <trkpt lat="45.2572" lon="6.02046">
        <ele>1780.4539794922</ele>
        <time>2017-11-17T08:26:05Z</time>
      </trkpt>
      <trkpt lat="45.25716" lon="6.02048">
        <ele>1778.4539794922</ele>
        <time>2017-11-17T08:26:09Z</time>
      </trkpt>
      <trkpt lat="45.25714" lon="6.02055">
        <ele>1780.4539794922</ele>
        <time>2017-11-17T08:26:12Z</time>
      </trkpt>
      <trkpt lat="45.25712" lon="6.02062">
        <ele>1782.4539794922</ele>
        <time>2017-11-17T08:26:17Z</time>
      </trkpt>
      <trkpt lat="45.2571" lon="6.02068">
        <ele>1784.4539794922</ele>
        <time>2017-11-17T08:26:21Z</time>
      </trkpt>
      <trkpt lat="45.25706" lon="6.02074">
        <ele>1790.4539794922</ele>
        <time>2017-11-17T08:26:27Z</time>
      </trkpt>
      <trkpt lat="45.25702" lon="6.02079">
        <ele>1794.4539794922</ele>
        <time>2017-11-17T08:26:32Z</time>
      </trkpt>
      <trkpt lat="45.25697" lon="6.02083">
        <ele>1790.4539794922</ele>
        <time>2017-11-17T08:26:41Z</time>
      </trkpt>
      <trkpt lat="45.25697" lon="6.0209">
        <ele>1790.4539794922</ele>
        <time>2017-11-17T08:26:48Z</time>
      </trkpt>
      <trkpt lat="45.25695" lon="6.02097">
        <ele>1790.4539794922</ele>
        <time>2017-11-17T08:26:54Z</time>
      </trkpt>
      <trkpt lat="45.25692" lon="6.02103">
        <ele>1792.4539794922</ele>
        <time>2017-11-17T08:27:00Z</time>
      </trkpt>
      <trkpt lat="45.25692" lon="6.0211">
        <ele>1793.4539794922</ele>
        <time>2017-11-17T08:27:07Z</time>
      </trkpt>
      <trkpt lat="45.25692" lon="6.02118">
        <ele>1794.4539794922</ele>
        <time>2017-11-17T08:27:15Z</time>
      </trkpt>
      <trkpt lat="45.25697" lon="6.02121">
        <ele>1796.4539794922</ele>
        <time>2017-11-17T08:27:24Z</time>
      </trkpt>
      <trkpt lat="45.25703" lon="6.02121">
        <ele>1801.4539794922</ele>
        <time>2017-11-17T08:27:28Z</time>
      </trkpt>
      <trkpt lat="45.25708" lon="6.02119">
        <ele>1801.4539794922</ele>
        <time>2017-11-17T08:27:35Z</time>
      </trkpt>
      <trkpt lat="45.25713" lon="6.02117">
        <ele>1800.4539794922</ele>
        <time>2017-11-17T08:27:41Z</time>
      </trkpt>
      <trkpt lat="45.25717" lon="6.02117">
        <ele>1802.4539794922</ele>
        <time>2017-11-17T08:27:44Z</time>
      </trkpt>
      <trkpt lat="45.25723" lon="6.02118">
        <ele>1802.4539794922</ele>
        <time>2017-11-17T08:27:49Z</time>
      </trkpt>
      <trkpt lat="45.25728" lon="6.02121">
        <ele>1804.4539794922</ele>
        <time>2017-11-17T08:27:55Z</time>
      </trkpt>
      <trkpt lat="45.25733" lon="6.02122">
        <ele>1805.4539794922</ele>
        <time>2017-11-17T08:27:59Z</time>
      </trkpt>
      <trkpt lat="45.25738" lon="6.02122">
        <ele>1807.4539794922</ele>
        <time>2017-11-17T08:28:06Z</time>
      </trkpt>
      <trkpt lat="45.25743" lon="6.0212">
        <ele>1806.4539794922</ele>
        <time>2017-11-17T08:28:10Z</time>
      </trkpt>
      <trkpt lat="45.25747" lon="6.02122">
        <ele>1808.4539794922</ele>
        <time>2017-11-17T08:28:24Z</time>
      </trkpt>
      <trkpt lat="45.25752" lon="6.02123">
        <ele>1810.4539794922</ele>
        <time>2017-11-17T08:28:34Z</time>
      </trkpt>
      <trkpt lat="45.25757" lon="6.02123">
        <ele>1810.4539794922</ele>
        <time>2017-11-17T08:28:37Z</time>
      </trkpt>
      <trkpt lat="45.25762" lon="6.02125">
        <ele>1810.4539794922</ele>
        <time>2017-11-17T08:28:41Z</time>
      </trkpt>
      <trkpt lat="45.25767" lon="6.02124">
        <ele>1808.4539794922</ele>
        <time>2017-11-17T08:28:46Z</time>
      </trkpt>
      <trkpt lat="45.25773" lon="6.02123">
        <ele>1809.4539794922</ele>
        <time>2017-11-17T08:28:49Z</time>
      </trkpt>
      <trkpt lat="45.25777" lon="6.02123">
        <ele>1809.4539794922</ele>
        <time>2017-11-17T08:28:53Z</time>
      </trkpt>
      <trkpt lat="45.25783" lon="6.02127">
        <ele>1814.4539794922</ele>
        <time>2017-11-17T08:29:01Z</time>
      </trkpt>
      <trkpt lat="45.25789" lon="6.02128">
        <ele>1814.4539794922</ele>
        <time>2017-11-17T08:29:07Z</time>
      </trkpt>
      <trkpt lat="45.25793" lon="6.02131">
        <ele>1815.4549560547</ele>
        <time>2017-11-17T08:29:13Z</time>
      </trkpt>
      <trkpt lat="45.25798" lon="6.02133">
        <ele>1817.4549560547</ele>
        <time>2017-11-17T08:29:17Z</time>
      </trkpt>
      <trkpt lat="45.25802" lon="6.02138">
        <ele>1819.4549560547</ele>
        <time>2017-11-17T08:29:21Z</time>
      </trkpt>
      <trkpt lat="45.25805" lon="6.02142">
        <ele>1822.4549560547</ele>
        <time>2017-11-17T08:29:25Z</time>
      </trkpt>
      <trkpt lat="45.2581" lon="6.02148">
        <ele>1825.4549560547</ele>
        <time>2017-11-17T08:29:31Z</time>
      </trkpt>
      <trkpt lat="45.25815" lon="6.02151">
        <ele>1827.4549560547</ele>
        <time>2017-11-17T08:29:34Z</time>
      </trkpt>
      <trkpt lat="45.25821" lon="6.02155">
        <ele>1831.4549560547</ele>
        <time>2017-11-17T08:29:39Z</time>
      </trkpt>
      <trkpt lat="45.25826" lon="6.02158">
        <ele>1831.4549560547</ele>
        <time>2017-11-17T08:29:44Z</time>
      </trkpt>
      <trkpt lat="45.25829" lon="6.02164">
        <ele>1829.4549560547</ele>
        <time>2017-11-17T08:29:52Z</time>
      </trkpt>
      <trkpt lat="45.25833" lon="6.0217">
        <ele>1828.4549560547</ele>
        <time>2017-11-17T08:29:59Z</time>
      </trkpt>
      <trkpt lat="45.25836" lon="6.02176">
        <ele>1829.4549560547</ele>
        <time>2017-11-17T08:30:04Z</time>
      </trkpt>
      <trkpt lat="45.2584" lon="6.02181">
        <ele>1829.4549560547</ele>
        <time>2017-11-17T08:30:10Z</time>
      </trkpt>
      <trkpt lat="45.25843" lon="6.02186">
        <ele>1830.4549560547</ele>
        <time>2017-11-17T08:30:14Z</time>
      </trkpt>
      <trkpt lat="45.25848" lon="6.0219">
        <ele>1835.4549560547</ele>
        <time>2017-11-17T08:30:20Z</time>
      </trkpt>
      <trkpt lat="45.25852" lon="6.02195">
        <ele>1836.4549560547</ele>
        <time>2017-11-17T08:30:24Z</time>
      </trkpt>
      <trkpt lat="45.25856" lon="6.022">
        <ele>1837.4549560547</ele>
        <time>2017-11-17T08:30:28Z</time>
      </trkpt>
      <trkpt lat="45.2586" lon="6.02205">
        <ele>1835.4549560547</ele>
        <time>2017-11-17T08:30:33Z</time>
      </trkpt>
      <trkpt lat="45.25863" lon="6.02209">
        <ele>1836.4549560547</ele>
        <time>2017-11-17T08:30:37Z</time>
      </trkpt>
      <trkpt lat="45.25867" lon="6.02213">
        <ele>1837.4549560547</ele>
        <time>2017-11-17T08:30:43Z</time>
      </trkpt>
      <trkpt lat="45.2587" lon="6.02218">
        <ele>1839.4549560547</ele>
        <time>2017-11-17T08:30:47Z</time>
      </trkpt>
      <trkpt lat="45.25874" lon="6.02224">
        <ele>1839.4549560547</ele>
        <time>2017-11-17T08:30:52Z</time>
      </trkpt>
      <trkpt lat="45.25878" lon="6.02228">
        <ele>1838.4549560547</ele>
        <time>2017-11-17T08:30:57Z</time>
      </trkpt>
      <trkpt lat="45.25882" lon="6.02233">
        <ele>1840.4549560547</ele>
        <time>2017-11-17T08:31:01Z</time>
      </trkpt>
      <trkpt lat="45.25885" lon="6.0224">
        <ele>1841.4549560547</ele>
        <time>2017-11-17T08:31:07Z</time>
      </trkpt>
      <trkpt lat="45.25887" lon="6.02245">
        <ele>1843.4549560547</ele>
        <time>2017-11-17T08:31:12Z</time>
      </trkpt>
      <trkpt lat="45.25891" lon="6.02249">
        <ele>1844.4549560547</ele>
        <time>2017-11-17T08:31:17Z</time>
      </trkpt>
      <trkpt lat="45.25895" lon="6.02254">
        <ele>1846.4549560547</ele>
        <time>2017-11-17T08:31:22Z</time>
      </trkpt>
      <trkpt lat="45.25896" lon="6.02261">
        <ele>1848.4549560547</ele>
        <time>2017-11-17T08:31:28Z</time>
      </trkpt>
      <trkpt lat="45.25891" lon="6.02266">
        <ele>1847.4549560547</ele>
        <time>2017-11-17T08:31:34Z</time>
      </trkpt>
      <trkpt lat="45.25886" lon="6.02267">
        <ele>1851.4549560547</ele>
        <time>2017-11-17T08:31:39Z</time>
      </trkpt>
      <trkpt lat="45.25881" lon="6.02268">
        <ele>1852.4549560547</ele>
        <time>2017-11-17T08:31:44Z</time>
      </trkpt>
      <trkpt lat="45.25877" lon="6.02264">
        <ele>1853.4549560547</ele>
        <time>2017-11-17T08:31:49Z</time>
      </trkpt>
      <trkpt lat="45.25873" lon="6.02263">
        <ele>1854.4549560547</ele>
        <time>2017-11-17T08:31:54Z</time>
      </trkpt>
      <trkpt lat="45.25868" lon="6.02261">
        <ele>1855.4549560547</ele>
        <time>2017-11-17T08:31:58Z</time>
      </trkpt>
      <trkpt lat="45.25863" lon="6.02259">
        <ele>1855.4549560547</ele>
        <time>2017-11-17T08:32:02Z</time>
      </trkpt>
      <trkpt lat="45.25858" lon="6.02256">
        <ele>1855.4549560547</ele>
        <time>2017-11-17T08:32:08Z</time>
      </trkpt>
      <trkpt lat="45.25853" lon="6.02255">
        <ele>1855.4549560547</ele>
        <time>2017-11-17T08:32:13Z</time>
      </trkpt>
      <trkpt lat="45.25848" lon="6.02253">
        <ele>1857.4549560547</ele>
        <time>2017-11-17T08:32:18Z</time>
      </trkpt>
      <trkpt lat="45.25843" lon="6.02254">
        <ele>1857.4549560547</ele>
        <time>2017-11-17T08:32:26Z</time>
      </trkpt>
      <trkpt lat="45.25838" lon="6.02251">
        <ele>1857.4549560547</ele>
        <time>2017-11-17T08:32:31Z</time>
      </trkpt>
      <trkpt lat="45.25833" lon="6.02249">
        <ele>1858.4549560547</ele>
        <time>2017-11-17T08:32:35Z</time>
      </trkpt>
      <trkpt lat="45.25827" lon="6.02249">
        <ele>1859.4549560547</ele>
        <time>2017-11-17T08:32:45Z</time>
      </trkpt>
      <trkpt lat="45.25822" lon="6.02251">
        <ele>1860.4549560547</ele>
        <time>2017-11-17T08:32:50Z</time>
      </trkpt>
      <trkpt lat="45.25818" lon="6.02254">
        <ele>1861.4549560547</ele>
        <time>2017-11-17T08:32:56Z</time>
      </trkpt>
      <trkpt lat="45.25813" lon="6.02255">
        <ele>1859.4549560547</ele>
        <time>2017-11-17T08:33:00Z</time>
      </trkpt>
      <trkpt lat="45.25808" lon="6.02258">
        <ele>1859.4549560547</ele>
        <time>2017-11-17T08:33:07Z</time>
      </trkpt>
      <trkpt lat="45.25804" lon="6.02256">
        <ele>1858.4549560547</ele>
        <time>2017-11-17T08:33:11Z</time>
      </trkpt>
      <trkpt lat="45.25799" lon="6.02256">
        <ele>1860.4549560547</ele>
        <time>2017-11-17T08:33:15Z</time>
      </trkpt>
      <trkpt lat="45.25794" lon="6.02256">
        <ele>1861.4549560547</ele>
        <time>2017-11-17T08:33:21Z</time>
      </trkpt>
      <trkpt lat="45.2579" lon="6.02258">
        <ele>1863.4549560547</ele>
        <time>2017-11-17T08:33:25Z</time>
      </trkpt>
      <trkpt lat="45.25785" lon="6.02258">
        <ele>1866.4549560547</ele>
        <time>2017-11-17T08:33:29Z</time>
      </trkpt>
      <trkpt lat="45.2578" lon="6.02259">
        <ele>1865.4549560547</ele>
        <time>2017-11-17T08:33:35Z</time>
      </trkpt>
      <trkpt lat="45.25775" lon="6.02258">
        <ele>1867.4549560547</ele>
        <time>2017-11-17T08:33:39Z</time>
      </trkpt>
      <trkpt lat="45.2577" lon="6.02259">
        <ele>1869.4549560547</ele>
        <time>2017-11-17T08:33:43Z</time>
      </trkpt>
      <trkpt lat="45.25764" lon="6.02258">
        <ele>1869.4549560547</ele>
        <time>2017-11-17T08:34:34Z</time>
      </trkpt>
      <trkpt lat="45.25759" lon="6.0226">
        <ele>1869.4549560547</ele>
        <time>2017-11-17T08:34:39Z</time>
      </trkpt>
      <trkpt lat="45.25755" lon="6.02258">
        <ele>1869.4549560547</ele>
        <time>2017-11-17T08:34:41Z</time>
      </trkpt>
      <trkpt lat="45.2575" lon="6.02259">
        <ele>1870.4549560547</ele>
        <time>2017-11-17T08:34:44Z</time>
      </trkpt>
      <trkpt lat="45.25744" lon="6.0226">
        <ele>1874.4549560547</ele>
        <time>2017-11-17T08:34:49Z</time>
      </trkpt>
      <trkpt lat="45.2574" lon="6.02261">
        <ele>1874.4549560547</ele>
        <time>2017-11-17T08:34:53Z</time>
      </trkpt>
      <trkpt lat="45.25735" lon="6.02264">
        <ele>1874.4549560547</ele>
        <time>2017-11-17T08:35:00Z</time>
      </trkpt>
      <trkpt lat="45.25731" lon="6.02268">
        <ele>1876.4549560547</ele>
        <time>2017-11-17T08:35:03Z</time>
      </trkpt>
      <trkpt lat="45.25726" lon="6.02271">
        <ele>1878.4549560547</ele>
        <time>2017-11-17T08:35:07Z</time>
      </trkpt>
      <trkpt lat="45.2572" lon="6.02273">
        <ele>1877.4549560547</ele>
        <time>2017-11-17T08:35:10Z</time>
      </trkpt>
      <trkpt lat="45.25715" lon="6.02274">
        <ele>1875.4549560547</ele>
        <time>2017-11-17T08:35:14Z</time>
      </trkpt>
      <trkpt lat="45.25713" lon="6.0228">
        <ele>1880.4549560547</ele>
        <time>2017-11-17T08:35:18Z</time>
      </trkpt>
      <trkpt lat="45.25709" lon="6.02284">
        <ele>1878.4549560547</ele>
        <time>2017-11-17T08:35:23Z</time>
      </trkpt>
      <trkpt lat="45.25706" lon="6.0229">
        <ele>1878.4549560547</ele>
        <time>2017-11-17T08:35:27Z</time>
      </trkpt>
      <trkpt lat="45.25702" lon="6.02297">
        <ele>1880.4549560547</ele>
        <time>2017-11-17T08:35:33Z</time>
      </trkpt>
      <trkpt lat="45.25699" lon="6.02301">
        <ele>1879.4549560547</ele>
        <time>2017-11-17T08:35:37Z</time>
      </trkpt>
      <trkpt lat="45.25695" lon="6.02305">
        <ele>1880.4549560547</ele>
        <time>2017-11-17T08:35:41Z</time>
      </trkpt>
      <trkpt lat="45.25691" lon="6.02311">
        <ele>1882.4549560547</ele>
        <time>2017-11-17T08:35:44Z</time>
      </trkpt>
      <trkpt lat="45.25688" lon="6.02316">
        <ele>1880.4549560547</ele>
        <time>2017-11-17T08:35:49Z</time>
      </trkpt>
      <trkpt lat="45.25686" lon="6.02322">
        <ele>1885.4549560547</ele>
        <time>2017-11-17T08:35:57Z</time>
      </trkpt>
      <trkpt lat="45.25683" lon="6.02327">
        <ele>1884.4549560547</ele>
        <time>2017-11-17T08:36:02Z</time>
      </trkpt>
      <trkpt lat="45.25679" lon="6.02333">
        <ele>1885.4549560547</ele>
        <time>2017-11-17T08:36:09Z</time>
      </trkpt>
      <trkpt lat="45.25675" lon="6.02336">
        <ele>1886.4549560547</ele>
        <time>2017-11-17T08:36:13Z</time>
      </trkpt>
      <trkpt lat="45.25671" lon="6.02342">
        <ele>1886.4549560547</ele>
        <time>2017-11-17T08:36:18Z</time>
      </trkpt>
      <trkpt lat="45.25668" lon="6.02346">
        <ele>1889.4549560547</ele>
        <time>2017-11-17T08:36:22Z</time>
      </trkpt>
      <trkpt lat="45.25664" lon="6.02351">
        <ele>1892.4549560547</ele>
        <time>2017-11-17T08:36:26Z</time>
      </trkpt>
      <trkpt lat="45.2566" lon="6.02357">
        <ele>1895.4549560547</ele>
        <time>2017-11-17T08:36:30Z</time>
      </trkpt>
      <trkpt lat="45.25654" lon="6.02361">
        <ele>1896.4549560547</ele>
        <time>2017-11-17T08:36:34Z</time>
      </trkpt>
      <trkpt lat="45.2565" lon="6.02365">
        <ele>1896.4549560547</ele>
        <time>2017-11-17T08:36:38Z</time>
      </trkpt>
      <trkpt lat="45.25646" lon="6.02368">
        <ele>1898.4549560547</ele>
        <time>2017-11-17T08:36:41Z</time>
      </trkpt>
      <trkpt lat="45.25641" lon="6.0237">
        <ele>1896.4549560547</ele>
        <time>2017-11-17T08:36:46Z</time>
      </trkpt>
      <trkpt lat="45.25636" lon="6.02375">
        <ele>1895.4549560547</ele>
        <time>2017-11-17T08:36:51Z</time>
      </trkpt>
      <trkpt lat="45.25633" lon="6.0238">
        <ele>1895.4549560547</ele>
        <time>2017-11-17T08:36:56Z</time>
      </trkpt>
      <trkpt lat="45.25629" lon="6.02385">
        <ele>1895.4549560547</ele>
        <time>2017-11-17T08:37:00Z</time>
      </trkpt>
      <trkpt lat="45.25625" lon="6.02387">
        <ele>1894.4549560547</ele>
        <time>2017-11-17T08:37:04Z</time>
      </trkpt>
      <trkpt lat="45.25619" lon="6.02389">
        <ele>1895.4549560547</ele>
        <time>2017-11-17T08:37:08Z</time>
      </trkpt>
      <trkpt lat="45.25615" lon="6.02392">
        <ele>1896.4549560547</ele>
        <time>2017-11-17T08:37:11Z</time>
      </trkpt>
      <trkpt lat="45.25611" lon="6.02397">
        <ele>1894.4549560547</ele>
        <time>2017-11-17T08:37:17Z</time>
      </trkpt>
      <trkpt lat="45.25607" lon="6.02401">
        <ele>1894.4549560547</ele>
        <time>2017-11-17T08:37:21Z</time>
      </trkpt>
      <trkpt lat="45.25604" lon="6.02406">
        <ele>1895.4549560547</ele>
        <time>2017-11-17T08:37:25Z</time>
      </trkpt>
      <trkpt lat="45.25599" lon="6.02407">
        <ele>1896.4549560547</ele>
        <time>2017-11-17T08:37:28Z</time>
      </trkpt>
      <trkpt lat="45.25594" lon="6.02408">
        <ele>1896.4539794922</ele>
        <time>2017-11-17T08:37:32Z</time>
      </trkpt>
      <trkpt lat="45.25589" lon="6.02411">
        <ele>1897.4539794922</ele>
        <time>2017-11-17T08:37:37Z</time>
      </trkpt>
      <trkpt lat="45.25584" lon="6.02414">
        <ele>1898.4539794922</ele>
        <time>2017-11-17T08:37:42Z</time>
      </trkpt>
      <trkpt lat="45.2558" lon="6.02416">
        <ele>1902.4539794922</ele>
        <time>2017-11-17T08:37:46Z</time>
      </trkpt>
      <trkpt lat="45.25576" lon="6.02418">
        <ele>1902.4539794922</ele>
        <time>2017-11-17T08:37:49Z</time>
      </trkpt>
      <trkpt lat="45.25571" lon="6.02419">
        <ele>1902.4539794922</ele>
        <time>2017-11-17T08:37:52Z</time>
      </trkpt>
      <trkpt lat="45.25566" lon="6.02421">
        <ele>1903.4539794922</ele>
        <time>2017-11-17T08:37:55Z</time>
      </trkpt>
      <trkpt lat="45.25561" lon="6.02421">
        <ele>1903.4539794922</ele>
        <time>2017-11-17T08:37:58Z</time>
      </trkpt>
      <trkpt lat="45.25555" lon="6.02423">
        <ele>1903.4539794922</ele>
        <time>2017-11-17T08:38:03Z</time>
      </trkpt>
      <trkpt lat="45.25551" lon="6.02426">
        <ele>1904.4539794922</ele>
        <time>2017-11-17T08:38:06Z</time>
      </trkpt>
      <trkpt lat="45.25547" lon="6.02429">
        <ele>1904.4539794922</ele>
        <time>2017-11-17T08:38:10Z</time>
      </trkpt>
      <trkpt lat="45.25542" lon="6.02432">
        <ele>1905.4539794922</ele>
        <time>2017-11-17T08:38:14Z</time>
      </trkpt>
      <trkpt lat="45.25536" lon="6.02433">
        <ele>1906.4539794922</ele>
        <time>2017-11-17T08:38:18Z</time>
      </trkpt>
      <trkpt lat="45.25531" lon="6.02438">
        <ele>1902.4539794922</ele>
        <time>2017-11-17T08:38:24Z</time>
      </trkpt>
      <trkpt lat="45.25525" lon="6.02442">
        <ele>1900.4539794922</ele>
        <time>2017-11-17T08:38:29Z</time>
      </trkpt>
      <trkpt lat="45.2552" lon="6.02445">
        <ele>1900.4539794922</ele>
        <time>2017-11-17T08:38:35Z</time>
      </trkpt>
      <trkpt lat="45.25515" lon="6.02447">
        <ele>1901.4539794922</ele>
        <time>2017-11-17T08:38:38Z</time>
      </trkpt>
      <trkpt lat="45.2551" lon="6.02445">
        <ele>1892.4539794922</ele>
        <time>2017-11-17T08:38:43Z</time>
      </trkpt>
      <trkpt lat="45.25506" lon="6.02448">
        <ele>1894.4539794922</ele>
        <time>2017-11-17T08:38:46Z</time>
      </trkpt>
      <trkpt lat="45.25501" lon="6.0245">
        <ele>1894.4539794922</ele>
        <time>2017-11-17T08:38:51Z</time>
      </trkpt>
      <trkpt lat="45.25496" lon="6.02453">
        <ele>1898.4539794922</ele>
        <time>2017-11-17T08:38:54Z</time>
      </trkpt>
      <trkpt lat="45.25492" lon="6.02458">
        <ele>1899.4539794922</ele>
        <time>2017-11-17T08:38:59Z</time>
      </trkpt>
      <trkpt lat="45.25487" lon="6.02459">
        <ele>1903.4539794922</ele>
        <time>2017-11-17T08:39:03Z</time>
      </trkpt>
      <trkpt lat="45.25482" lon="6.02464">
        <ele>1905.4539794922</ele>
        <time>2017-11-17T08:39:07Z</time>
      </trkpt>
      <trkpt lat="45.25478" lon="6.02466">
        <ele>1903.4539794922</ele>
        <time>2017-11-17T08:39:13Z</time>
      </trkpt>
      <trkpt lat="45.25473" lon="6.02471">
        <ele>1906.4539794922</ele>
        <time>2017-11-17T08:39:18Z</time>
      </trkpt>
      <trkpt lat="45.25469" lon="6.02474">
        <ele>1906.4539794922</ele>
        <time>2017-11-17T08:39:22Z</time>
      </trkpt>
      <trkpt lat="45.25464" lon="6.02476">
        <ele>1905.4539794922</ele>
        <time>2017-11-17T08:39:25Z</time>
      </trkpt>
      <trkpt lat="45.25459" lon="6.02479">
        <ele>1907.4539794922</ele>
        <time>2017-11-17T08:39:29Z</time>
      </trkpt>
      <trkpt lat="45.25453" lon="6.0248">
        <ele>1910.4539794922</ele>
        <time>2017-11-17T08:39:32Z</time>
      </trkpt>
      <trkpt lat="45.25448" lon="6.02478">
        <ele>1908.4539794922</ele>
        <time>2017-11-17T08:39:37Z</time>
      </trkpt>
      <trkpt lat="45.25443" lon="6.02482">
        <ele>1907.4539794922</ele>
        <time>2017-11-17T08:39:41Z</time>
      </trkpt>
      <trkpt lat="45.25437" lon="6.02482">
        <ele>1908.4539794922</ele>
        <time>2017-11-17T08:39:46Z</time>
      </trkpt>
      <trkpt lat="45.25432" lon="6.02479">
        <ele>1905.4539794922</ele>
        <time>2017-11-17T08:39:51Z</time>
      </trkpt>
      <trkpt lat="45.25427" lon="6.02475">
        <ele>1903.4539794922</ele>
        <time>2017-11-17T08:39:54Z</time>
      </trkpt>
      <trkpt lat="45.25421" lon="6.02472">
        <ele>1903.4539794922</ele>
        <time>2017-11-17T08:39:57Z</time>
      </trkpt>
      <trkpt lat="45.25415" lon="6.02469">
        <ele>1903.4539794922</ele>
        <time>2017-11-17T08:39:59Z</time>
      </trkpt>
      <trkpt lat="45.25409" lon="6.02465">
        <ele>1901.4539794922</ele>
        <time>2017-11-17T08:40:01Z</time>
      </trkpt>
      <trkpt lat="45.25404" lon="6.02463">
        <ele>1899.4539794922</ele>
        <time>2017-11-17T08:40:03Z</time>
      </trkpt>
      <trkpt lat="45.25395" lon="6.02464">
        <ele>1898.4539794922</ele>
        <time>2017-11-17T08:40:05Z</time>
      </trkpt>
      <trkpt lat="45.25383" lon="6.02459">
        <ele>1897.4539794922</ele>
        <time>2017-11-17T08:40:08Z</time>
      </trkpt>
      <trkpt lat="45.25372" lon="6.02453">
        <ele>1895.4539794922</ele>
        <time>2017-11-17T08:40:11Z</time>
      </trkpt>
      <trkpt lat="45.25366" lon="6.02448">
        <ele>1895.4539794922</ele>
        <time>2017-11-17T08:40:13Z</time>
      </trkpt>
      <trkpt lat="45.25358" lon="6.02444">
        <ele>1894.4539794922</ele>
        <time>2017-11-17T08:40:15Z</time>
      </trkpt>
      <trkpt lat="45.25351" lon="6.0244">
        <ele>1893.4539794922</ele>
        <time>2017-11-17T08:40:17Z</time>
      </trkpt>
      <trkpt lat="45.25346" lon="6.02436">
        <ele>1890.4539794922</ele>
        <time>2017-11-17T08:40:19Z</time>
      </trkpt>
      <trkpt lat="45.25336" lon="6.02434">
        <ele>1887.4539794922</ele>
        <time>2017-11-17T08:40:21Z</time>
      </trkpt>
      <trkpt lat="45.25324" lon="6.0243">
        <ele>1886.4539794922</ele>
        <time>2017-11-17T08:40:24Z</time>
      </trkpt>
      <trkpt lat="45.25314" lon="6.02423">
        <ele>1886.4539794922</ele>
        <time>2017-11-17T08:40:27Z</time>
      </trkpt>
      <trkpt lat="45.2531" lon="6.02422">
        <ele>1885.4539794922</ele>
        <time>2017-11-17T08:40:29Z</time>
      </trkpt>
      <trkpt lat="45.25304" lon="6.02419">
        <ele>1887.4539794922</ele>
        <time>2017-11-17T08:40:33Z</time>
      </trkpt>
      <trkpt lat="45.25298" lon="6.02414">
        <ele>1890.4539794922</ele>
        <time>2017-11-17T08:40:36Z</time>
      </trkpt>
      <trkpt lat="45.25293" lon="6.02409">
        <ele>1890.4539794922</ele>
        <time>2017-11-17T08:40:39Z</time>
      </trkpt>
      <trkpt lat="45.25288" lon="6.02408">
        <ele>1890.4539794922</ele>
        <time>2017-11-17T08:40:43Z</time>
      </trkpt>
      <trkpt lat="45.25282" lon="6.02406">
        <ele>1891.4539794922</ele>
        <time>2017-11-17T08:40:47Z</time>
      </trkpt>
      <trkpt lat="45.25277" lon="6.024">
        <ele>1888.4539794922</ele>
        <time>2017-11-17T08:40:52Z</time>
      </trkpt>
      <trkpt lat="45.25272" lon="6.02398">
        <ele>1889.4539794922</ele>
        <time>2017-11-17T08:40:55Z</time>
      </trkpt>
      <trkpt lat="45.25267" lon="6.02394">
        <ele>1887.4539794922</ele>
        <time>2017-11-17T08:40:59Z</time>
      </trkpt>
      <trkpt lat="45.25263" lon="6.02389">
        <ele>1886.4539794922</ele>
        <time>2017-11-17T08:41:03Z</time>
      </trkpt>
      <trkpt lat="45.25259" lon="6.02385">
        <ele>1886.4539794922</ele>
        <time>2017-11-17T08:41:07Z</time>
      </trkpt>
      <trkpt lat="45.25254" lon="6.0238">
        <ele>1887.4539794922</ele>
        <time>2017-11-17T08:41:10Z</time>
      </trkpt>
      <trkpt lat="45.25248" lon="6.02379">
        <ele>1887.4539794922</ele>
        <time>2017-11-17T08:41:14Z</time>
      </trkpt>
      <trkpt lat="45.25244" lon="6.02376">
        <ele>1883.4539794922</ele>
        <time>2017-11-17T08:41:17Z</time>
      </trkpt>
      <trkpt lat="45.2524" lon="6.02372">
        <ele>1884.4539794922</ele>
        <time>2017-11-17T08:41:19Z</time>
      </trkpt>
      <trkpt lat="45.25235" lon="6.0237">
        <ele>1884.4539794922</ele>
        <time>2017-11-17T08:41:24Z</time>
      </trkpt>
      <trkpt lat="45.25231" lon="6.02367">
        <ele>1884.4539794922</ele>
        <time>2017-11-17T08:41:28Z</time>
      </trkpt>
      <trkpt lat="45.25227" lon="6.02364">
        <ele>1886.4539794922</ele>
        <time>2017-11-17T08:41:33Z</time>
      </trkpt>
      <trkpt lat="45.25221" lon="6.02361">
        <ele>1891.4539794922</ele>
        <time>2017-11-17T08:41:37Z</time>
      </trkpt>
      <trkpt lat="45.25217" lon="6.02358">
        <ele>1889.4539794922</ele>
        <time>2017-11-17T08:41:43Z</time>
      </trkpt>
      <trkpt lat="45.25212" lon="6.02356">
        <ele>1890.4539794922</ele>
        <time>2017-11-17T08:41:49Z</time>
      </trkpt>
      <trkpt lat="45.25208" lon="6.02353">
        <ele>1891.4539794922</ele>
        <time>2017-11-17T08:41:52Z</time>
      </trkpt>
      <trkpt lat="45.25203" lon="6.02351">
        <ele>1892.4539794922</ele>
        <time>2017-11-17T08:41:55Z</time>
      </trkpt>
      <trkpt lat="45.25198" lon="6.02348">
        <ele>1892.4539794922</ele>
        <time>2017-11-17T08:41:58Z</time>
      </trkpt>
      <trkpt lat="45.25193" lon="6.02346">
        <ele>1891.4539794922</ele>
        <time>2017-11-17T08:42:01Z</time>
      </trkpt>
      <trkpt lat="45.25187" lon="6.02345">
        <ele>1892.4539794922</ele>
        <time>2017-11-17T08:42:06Z</time>
      </trkpt>
      <trkpt lat="45.25181" lon="6.02343">
        <ele>1892.4539794922</ele>
        <time>2017-11-17T08:42:09Z</time>
      </trkpt>
      <trkpt lat="45.25176" lon="6.02339">
        <ele>1888.4539794922</ele>
        <time>2017-11-17T08:42:16Z</time>
      </trkpt>
      <trkpt lat="45.25171" lon="6.02337">
        <ele>1888.4539794922</ele>
        <time>2017-11-17T08:42:20Z</time>
      </trkpt>
      <trkpt lat="45.25165" lon="6.02336">
        <ele>1887.4539794922</ele>
        <time>2017-11-17T08:42:25Z</time>
      </trkpt>
      <trkpt lat="45.2516" lon="6.02334">
        <ele>1887.4539794922</ele>
        <time>2017-11-17T08:42:30Z</time>
      </trkpt>
      <trkpt lat="45.25154" lon="6.02333">
        <ele>1888.4539794922</ele>
        <time>2017-11-17T08:42:36Z</time>
      </trkpt>
      <trkpt lat="45.2515" lon="6.0233">
        <ele>1889.4539794922</ele>
        <time>2017-11-17T08:42:39Z</time>
      </trkpt>
      <trkpt lat="45.25143" lon="6.02329">
        <ele>1893.4530029297</ele>
        <time>2017-11-17T08:42:49Z</time>
      </trkpt>
      <trkpt lat="45.25137" lon="6.02326">
        <ele>1894.4530029297</ele>
        <time>2017-11-17T08:42:52Z</time>
      </trkpt>
      <trkpt lat="45.25132" lon="6.02324">
        <ele>1893.4530029297</ele>
        <time>2017-11-17T08:42:55Z</time>
      </trkpt>
      <trkpt lat="45.25126" lon="6.02323">
        <ele>1891.4530029297</ele>
        <time>2017-11-17T08:42:58Z</time>
      </trkpt>
      <trkpt lat="45.2512" lon="6.02324">
        <ele>1889.4530029297</ele>
        <time>2017-11-17T08:43:04Z</time>
      </trkpt>
      <trkpt lat="45.25114" lon="6.02323">
        <ele>1892.4530029297</ele>
        <time>2017-11-17T08:43:09Z</time>
      </trkpt>
      <trkpt lat="45.25108" lon="6.02324">
        <ele>1894.4530029297</ele>
        <time>2017-11-17T08:43:13Z</time>
      </trkpt>
      <trkpt lat="45.25102" lon="6.02323">
        <ele>1894.4530029297</ele>
        <time>2017-11-17T08:43:17Z</time>
      </trkpt>
      <trkpt lat="45.25097" lon="6.02324">
        <ele>1894.4530029297</ele>
        <time>2017-11-17T08:43:20Z</time>
      </trkpt>
      <trkpt lat="45.25092" lon="6.02326">
        <ele>1891.4530029297</ele>
        <time>2017-11-17T08:43:24Z</time>
      </trkpt>
      <trkpt lat="45.25086" lon="6.02328">
        <ele>1891.4530029297</ele>
        <time>2017-11-17T08:43:28Z</time>
      </trkpt>
      <trkpt lat="45.25082" lon="6.02331">
        <ele>1890.4530029297</ele>
        <time>2017-11-17T08:43:32Z</time>
      </trkpt>
      <trkpt lat="45.25078" lon="6.02334">
        <ele>1890.4530029297</ele>
        <time>2017-11-17T08:43:35Z</time>
      </trkpt>
      <trkpt lat="45.25076" lon="6.02341">
        <ele>1888.4530029297</ele>
        <time>2017-11-17T08:43:40Z</time>
      </trkpt>
      <trkpt lat="45.25071" lon="6.02345">
        <ele>1889.4530029297</ele>
        <time>2017-11-17T08:43:43Z</time>
      </trkpt>
      <trkpt lat="45.25067" lon="6.02349">
        <ele>1890.4530029297</ele>
        <time>2017-11-17T08:43:45Z</time>
      </trkpt>
      <trkpt lat="45.25063" lon="6.02354">
        <ele>1892.4530029297</ele>
        <time>2017-11-17T08:43:49Z</time>
      </trkpt>
      <trkpt lat="45.25058" lon="6.02359">
        <ele>1892.4530029297</ele>
        <time>2017-11-17T08:43:53Z</time>
      </trkpt>
      <trkpt lat="45.25054" lon="6.02362">
        <ele>1892.4530029297</ele>
        <time>2017-11-17T08:43:57Z</time>
      </trkpt>
      <trkpt lat="45.2505" lon="6.02367">
        <ele>1893.4530029297</ele>
        <time>2017-11-17T08:44:03Z</time>
      </trkpt>
      <trkpt lat="45.25045" lon="6.02371">
        <ele>1894.4530029297</ele>
        <time>2017-11-17T08:44:07Z</time>
      </trkpt>
      <trkpt lat="45.25043" lon="6.02377">
        <ele>1895.4530029297</ele>
        <time>2017-11-17T08:44:19Z</time>
      </trkpt>
      <trkpt lat="45.25038" lon="6.02381">
        <ele>1897.4530029297</ele>
        <time>2017-11-17T08:44:28Z</time>
      </trkpt>
      <trkpt lat="45.25035" lon="6.02386">
        <ele>1899.4530029297</ele>
        <time>2017-11-17T08:44:33Z</time>
      </trkpt>
      <trkpt lat="45.25031" lon="6.02391">
        <ele>1899.4530029297</ele>
        <time>2017-11-17T08:44:37Z</time>
      </trkpt>
      <trkpt lat="45.25026" lon="6.02395">
        <ele>1900.4530029297</ele>
        <time>2017-11-17T08:44:40Z</time>
      </trkpt>
      <trkpt lat="45.25021" lon="6.024">
        <ele>1899.4530029297</ele>
        <time>2017-11-17T08:44:43Z</time>
      </trkpt>
      <trkpt lat="45.25018" lon="6.02405">
        <ele>1899.4530029297</ele>
        <time>2017-11-17T08:44:47Z</time>
      </trkpt>
      <trkpt lat="45.25013" lon="6.02409">
        <ele>1901.4530029297</ele>
        <time>2017-11-17T08:44:51Z</time>
      </trkpt>
      <trkpt lat="45.2501" lon="6.02415">
        <ele>1903.4530029297</ele>
        <time>2017-11-17T08:44:56Z</time>
      </trkpt>
      <trkpt lat="45.25006" lon="6.02419">
        <ele>1904.4530029297</ele>
        <time>2017-11-17T08:45:00Z</time>
      </trkpt>
      <trkpt lat="45.25001" lon="6.02424">
        <ele>1904.4530029297</ele>
        <time>2017-11-17T08:45:05Z</time>
      </trkpt>
      <trkpt lat="45.24997" lon="6.02429">
        <ele>1904.4530029297</ele>
        <time>2017-11-17T08:45:11Z</time>
      </trkpt>
      <trkpt lat="45.24993" lon="6.02434">
        <ele>1909.4530029297</ele>
        <time>2017-11-17T08:45:19Z</time>
      </trkpt>
      <trkpt lat="45.2499" lon="6.0244">
        <ele>1906.4530029297</ele>
        <time>2017-11-17T08:45:26Z</time>
      </trkpt>
      <trkpt lat="45.24986" lon="6.02446">
        <ele>1910.4530029297</ele>
        <time>2017-11-17T08:45:34Z</time>
      </trkpt>
      <trkpt lat="45.24984" lon="6.02452">
        <ele>1912.4530029297</ele>
        <time>2017-11-17T08:45:41Z</time>
      </trkpt>
      <trkpt lat="45.24979" lon="6.02453">
        <ele>1915.4530029297</ele>
        <time>2017-11-17T08:45:51Z</time>
      </trkpt>
      <trkpt lat="45.2498" lon="6.02461">
        <ele>1920.4530029297</ele>
        <time>2017-11-17T08:45:59Z</time>
      </trkpt>
      <trkpt lat="45.24981" lon="6.02467">
        <ele>1922.4530029297</ele>
        <time>2017-11-17T08:46:06Z</time>
      </trkpt>
      <trkpt lat="45.24982" lon="6.02474">
        <ele>1919.4530029297</ele>
        <time>2017-11-17T08:46:14Z</time>
      </trkpt>
      <trkpt lat="45.24979" lon="6.02477">
        <ele>1922.4530029297</ele>
        <time>2017-11-17T08:46:19Z</time>
      </trkpt>
      <trkpt lat="45.24972" lon="6.02477">
        <ele>1922.4530029297</ele>
        <time>2017-11-17T08:46:25Z</time>
      </trkpt>
      <trkpt lat="45.24967" lon="6.02475">
        <ele>1925.4530029297</ele>
        <time>2017-11-17T08:46:30Z</time>
      </trkpt>
      <trkpt lat="45.24961" lon="6.02474">
        <ele>1926.4530029297</ele>
        <time>2017-11-17T08:46:37Z</time>
      </trkpt>
      <trkpt lat="45.24957" lon="6.02471">
        <ele>1927.4530029297</ele>
        <time>2017-11-17T08:46:48Z</time>
      </trkpt>
      <trkpt lat="45.24952" lon="6.02475">
        <ele>1937.4530029297</ele>
        <time>2017-11-17T08:47:04Z</time>
      </trkpt>
      <trkpt lat="45.2495" lon="6.0248">
        <ele>1940.4530029297</ele>
        <time>2017-11-17T08:47:11Z</time>
      </trkpt>
      <trkpt lat="45.24949" lon="6.02487">
        <ele>1938.4530029297</ele>
        <time>2017-11-17T08:47:18Z</time>
      </trkpt>
      <trkpt lat="45.24945" lon="6.0249">
        <ele>1942.4530029297</ele>
        <time>2017-11-17T08:47:42Z</time>
      </trkpt>
      <trkpt lat="45.2494" lon="6.02488">
        <ele>1944.4530029297</ele>
        <time>2017-11-17T08:47:50Z</time>
      </trkpt>
      <trkpt lat="45.24935" lon="6.02486">
        <ele>1944.4530029297</ele>
        <time>2017-11-17T08:47:57Z</time>
      </trkpt>
      <trkpt lat="45.24931" lon="6.02484">
        <ele>1948.4530029297</ele>
        <time>2017-11-17T08:48:01Z</time>
      </trkpt>
      <trkpt lat="45.24929" lon="6.02491">
        <ele>1952.4530029297</ele>
        <time>2017-11-17T08:48:14Z</time>
      </trkpt>
      <trkpt lat="45.24926" lon="6.02497">
        <ele>1953.4530029297</ele>
        <time>2017-11-17T08:48:20Z</time>
      </trkpt>
      <trkpt lat="45.24925" lon="6.02504">
        <ele>1953.4530029297</ele>
        <time>2017-11-17T08:48:28Z</time>
      </trkpt>
      <trkpt lat="45.2492" lon="6.02506">
        <ele>1955.4530029297</ele>
        <time>2017-11-17T08:48:34Z</time>
      </trkpt>
      <trkpt lat="45.24915" lon="6.02504">
        <ele>1955.4530029297</ele>
        <time>2017-11-17T08:48:43Z</time>
      </trkpt>
      <trkpt lat="45.2491" lon="6.02504">
        <ele>1956.4530029297</ele>
        <time>2017-11-17T08:48:48Z</time>
      </trkpt>
      <trkpt lat="45.24906" lon="6.02501">
        <ele>1956.4530029297</ele>
        <time>2017-11-17T08:48:53Z</time>
      </trkpt>
      <trkpt lat="45.24901" lon="6.02501">
        <ele>1954.4530029297</ele>
        <time>2017-11-17T08:48:59Z</time>
      </trkpt>
      <trkpt lat="45.24898" lon="6.02496">
        <ele>1959.4530029297</ele>
        <time>2017-11-17T08:49:10Z</time>
      </trkpt>
      <trkpt lat="45.24894" lon="6.02492">
        <ele>1960.4530029297</ele>
        <time>2017-11-17T08:49:17Z</time>
      </trkpt>
      <trkpt lat="45.2489" lon="6.02489">
        <ele>1963.4530029297</ele>
        <time>2017-11-17T08:49:26Z</time>
      </trkpt>
      <trkpt lat="45.24885" lon="6.02487">
        <ele>1965.4530029297</ele>
        <time>2017-11-17T08:49:31Z</time>
      </trkpt>
      <trkpt lat="45.2488" lon="6.02484">
        <ele>1964.4530029297</ele>
        <time>2017-11-17T08:49:38Z</time>
      </trkpt>
      <trkpt lat="45.24877" lon="6.02489">
        <ele>1964.4530029297</ele>
        <time>2017-11-17T08:49:48Z</time>
      </trkpt>
      <trkpt lat="45.24874" lon="6.02495">
        <ele>1966.4530029297</ele>
        <time>2017-11-17T08:49:58Z</time>
      </trkpt>
      <trkpt lat="45.24869" lon="6.02496">
        <ele>1968.4530029297</ele>
        <time>2017-11-17T08:50:04Z</time>
      </trkpt>
      <trkpt lat="45.24867" lon="6.02491">
        <ele>1969.4530029297</ele>
        <time>2017-11-17T08:50:10Z</time>
      </trkpt>
      <trkpt lat="45.24863" lon="6.02487">
        <ele>1970.4530029297</ele>
        <time>2017-11-17T08:50:15Z</time>
      </trkpt>
      <trkpt lat="45.24859" lon="6.02482">
        <ele>1973.4530029297</ele>
        <time>2017-11-17T08:50:21Z</time>
      </trkpt>
      <trkpt lat="45.24855" lon="6.02477">
        <ele>1972.4530029297</ele>
        <time>2017-11-17T08:50:34Z</time>
      </trkpt>
      <trkpt lat="45.24853" lon="6.02471">
        <ele>1973.4530029297</ele>
        <time>2017-11-17T08:50:47Z</time>
      </trkpt>
      <trkpt lat="45.24851" lon="6.02466">
        <ele>1977.4530029297</ele>
        <time>2017-11-17T08:51:00Z</time>
      </trkpt>
      <trkpt lat="45.24846" lon="6.02465">
        <ele>1982.4530029297</ele>
        <time>2017-11-17T08:51:11Z</time>
      </trkpt>
      <trkpt lat="45.24842" lon="6.02468">
        <ele>1980.4530029297</ele>
        <time>2017-11-17T08:51:20Z</time>
      </trkpt>
      <trkpt lat="45.24838" lon="6.02475">
        <ele>1984.4530029297</ele>
        <time>2017-11-17T08:51:27Z</time>
      </trkpt>
      <trkpt lat="45.24836" lon="6.0248">
        <ele>1990.4530029297</ele>
        <time>2017-11-17T08:51:37Z</time>
      </trkpt>
      <trkpt lat="45.24831" lon="6.02477">
        <ele>1994.4530029297</ele>
        <time>2017-11-17T08:51:47Z</time>
      </trkpt>
      <trkpt lat="45.24826" lon="6.02474">
        <ele>1996.4530029297</ele>
        <time>2017-11-17T08:52:13Z</time>
      </trkpt>
      <trkpt lat="45.24822" lon="6.02469">
        <ele>1998.4530029297</ele>
        <time>2017-11-17T08:52:17Z</time>
      </trkpt>
      <trkpt lat="45.24818" lon="6.02465">
        <ele>1998.4530029297</ele>
        <time>2017-11-17T08:52:24Z</time>
      </trkpt>
      <trkpt lat="45.24813" lon="6.02463">
        <ele>1999.4530029297</ele>
        <time>2017-11-17T08:52:32Z</time>
      </trkpt>
      <trkpt lat="45.24808" lon="6.0246">
        <ele>2000.4530029297</ele>
        <time>2017-11-17T08:52:37Z</time>
      </trkpt>
      <trkpt lat="45.24806" lon="6.02455">
        <ele>2002.4530029297</ele>
        <time>2017-11-17T08:52:42Z</time>
      </trkpt>
      <trkpt lat="45.24802" lon="6.02459">
        <ele>2003.4530029297</ele>
        <time>2017-11-17T08:52:48Z</time>
      </trkpt>
      <trkpt lat="45.24798" lon="6.02463">
        <ele>2000.4530029297</ele>
        <time>2017-11-17T08:52:55Z</time>
      </trkpt>
      <trkpt lat="45.24795" lon="6.02468">
        <ele>2001.4530029297</ele>
        <time>2017-11-17T08:53:01Z</time>
      </trkpt>
      <trkpt lat="45.24791" lon="6.02474">
        <ele>2002.4530029297</ele>
        <time>2017-11-17T08:53:08Z</time>
      </trkpt>
      <trkpt lat="45.24788" lon="6.02479">
        <ele>2004.4530029297</ele>
        <time>2017-11-17T08:53:15Z</time>
      </trkpt>
      <trkpt lat="45.24786" lon="6.02485">
        <ele>2008.4530029297</ele>
        <time>2017-11-17T08:53:26Z</time>
      </trkpt>
      <trkpt lat="45.24781" lon="6.02487">
        <ele>2008.4530029297</ele>
        <time>2017-11-17T08:53:35Z</time>
      </trkpt>
      <trkpt lat="45.24776" lon="6.02489">
        <ele>2010.4530029297</ele>
        <time>2017-11-17T08:53:40Z</time>
      </trkpt>
      <trkpt lat="45.24772" lon="6.02493">
        <ele>2015.4530029297</ele>
        <time>2017-11-17T08:53:46Z</time>
      </trkpt>
      <trkpt lat="45.24767" lon="6.02496">
        <ele>2015.4530029297</ele>
        <time>2017-11-17T08:53:50Z</time>
      </trkpt>
      <trkpt lat="45.24764" lon="6.02503">
        <ele>2018.4530029297</ele>
        <time>2017-11-17T08:53:56Z</time>
      </trkpt>
      <trkpt lat="45.24762" lon="6.02509">
        <ele>2019.4530029297</ele>
        <time>2017-11-17T08:54:14Z</time>
      </trkpt>
      <trkpt lat="45.24764" lon="6.02515">
        <ele>2023.4530029297</ele>
        <time>2017-11-17T08:54:19Z</time>
      </trkpt>
      <trkpt lat="45.24767" lon="6.0252">
        <ele>2024.4530029297</ele>
        <time>2017-11-17T08:54:24Z</time>
      </trkpt>
      <trkpt lat="45.24772" lon="6.02524">
        <ele>2026.4530029297</ele>
        <time>2017-11-17T08:54:31Z</time>
      </trkpt>
      <trkpt lat="45.24776" lon="6.02528">
        <ele>2030.4530029297</ele>
        <time>2017-11-17T08:54:36Z</time>
      </trkpt>
      <trkpt lat="45.24778" lon="6.02534">
        <ele>2022.4530029297</ele>
        <time>2017-11-17T08:54:44Z</time>
      </trkpt>
      <trkpt lat="45.2478" lon="6.02541">
        <ele>2021.4530029297</ele>
        <time>2017-11-17T08:54:51Z</time>
      </trkpt>
      <trkpt lat="45.24776" lon="6.02545">
        <ele>2021.4530029297</ele>
        <time>2017-11-17T08:54:56Z</time>
      </trkpt>
      <trkpt lat="45.24773" lon="6.02549">
        <ele>2027.4530029297</ele>
        <time>2017-11-17T08:55:11Z</time>
      </trkpt>
      <trkpt lat="45.24769" lon="6.02556">
        <ele>2029.4530029297</ele>
        <time>2017-11-17T08:55:19Z</time>
      </trkpt>
      <trkpt lat="45.24765" lon="6.02561">
        <ele>2030.4530029297</ele>
        <time>2017-11-17T08:55:25Z</time>
      </trkpt>
      <trkpt lat="45.24768" lon="6.02567">
        <ele>2032.4530029297</ele>
        <time>2017-11-17T08:55:37Z</time>
      </trkpt>
      <trkpt lat="45.24773" lon="6.02571">
        <ele>2032.4530029297</ele>
        <time>2017-11-17T08:55:45Z</time>
      </trkpt>
      <trkpt lat="45.24777" lon="6.02574">
        <ele>2033.4530029297</ele>
        <time>2017-11-17T08:55:52Z</time>
      </trkpt>
      <trkpt lat="45.24778" lon="6.02581">
        <ele>2030.4530029297</ele>
        <time>2017-11-17T08:56:03Z</time>
      </trkpt>
      <trkpt lat="45.24783" lon="6.02585">
        <ele>2033.4530029297</ele>
        <time>2017-11-17T08:56:09Z</time>
      </trkpt>
      <trkpt lat="45.24781" lon="6.02591">
        <ele>2038.4530029297</ele>
        <time>2017-11-17T08:56:12Z</time>
      </trkpt>
      <trkpt lat="45.24777" lon="6.02596">
        <ele>2040.4530029297</ele>
        <time>2017-11-17T08:56:19Z</time>
      </trkpt>
      <trkpt lat="45.24773" lon="6.026">
        <ele>2039.4530029297</ele>
        <time>2017-11-17T08:56:24Z</time>
      </trkpt>
      <trkpt lat="45.24767" lon="6.02604">
        <ele>2041.4530029297</ele>
        <time>2017-11-17T08:56:31Z</time>
      </trkpt>
      <trkpt lat="45.24764" lon="6.02611">
        <ele>2044.4530029297</ele>
        <time>2017-11-17T08:56:37Z</time>
      </trkpt>
      <trkpt lat="45.24761" lon="6.02616">
        <ele>2046.4530029297</ele>
        <time>2017-11-17T08:56:44Z</time>
      </trkpt>
      <trkpt lat="45.24758" lon="6.02622">
        <ele>2048.4528808594</ele>
        <time>2017-11-17T08:56:57Z</time>
      </trkpt>
      <trkpt lat="45.24759" lon="6.02628">
        <ele>2049.4528808594</ele>
        <time>2017-11-17T08:57:04Z</time>
      </trkpt>
      <trkpt lat="45.24757" lon="6.02634">
        <ele>2051.4528808594</ele>
        <time>2017-11-17T08:57:09Z</time>
      </trkpt>
      <trkpt lat="45.24755" lon="6.02641">
        <ele>2053.4528808594</ele>
        <time>2017-11-17T08:57:15Z</time>
      </trkpt>
      <trkpt lat="45.24754" lon="6.02648">
        <ele>2057.4528808594</ele>
        <time>2017-11-17T08:57:22Z</time>
      </trkpt>
      <trkpt lat="45.24754" lon="6.02655">
        <ele>2056.4528808594</ele>
        <time>2017-11-17T08:57:31Z</time>
      </trkpt>
      <trkpt lat="45.2475" lon="6.02661">
        <ele>2060.4528808594</ele>
        <time>2017-11-17T08:57:37Z</time>
      </trkpt>
      <trkpt lat="45.24748" lon="6.02667">
        <ele>2060.4528808594</ele>
        <time>2017-11-17T08:57:44Z</time>
      </trkpt>
      <trkpt lat="45.24747" lon="6.02673">
        <ele>2061.4528808594</ele>
        <time>2017-11-17T08:57:51Z</time>
      </trkpt>
      <trkpt lat="45.2475" lon="6.02678">
        <ele>2059.4528808594</ele>
        <time>2017-11-17T08:57:57Z</time>
      </trkpt>
      <trkpt lat="45.24751" lon="6.02685">
        <ele>2063.4528808594</ele>
        <time>2017-11-17T08:58:03Z</time>
      </trkpt>
      <trkpt lat="45.24753" lon="6.02691">
        <ele>2061.4528808594</ele>
        <time>2017-11-17T08:58:07Z</time>
      </trkpt>
      <trkpt lat="45.24755" lon="6.02697">
        <ele>2061.4528808594</ele>
        <time>2017-11-17T08:58:11Z</time>
      </trkpt>
      <trkpt lat="45.24758" lon="6.02703">
        <ele>2066.4528808594</ele>
        <time>2017-11-17T08:58:24Z</time>
      </trkpt>
      <trkpt lat="45.24758" lon="6.02709">
        <ele>2067.4528808594</ele>
        <time>2017-11-17T08:58:30Z</time>
      </trkpt>
      <trkpt lat="45.2476" lon="6.02716">
        <ele>2072.4528808594</ele>
        <time>2017-11-17T08:58:36Z</time>
      </trkpt>
      <trkpt lat="45.24761" lon="6.02723">
        <ele>2077.4528808594</ele>
        <time>2017-11-17T08:58:44Z</time>
      </trkpt>
      <trkpt lat="45.24761" lon="6.0273">
        <ele>2075.4528808594</ele>
        <time>2017-11-17T08:58:51Z</time>
      </trkpt>
      <trkpt lat="45.24763" lon="6.02736">
        <ele>2075.4528808594</ele>
        <time>2017-11-17T08:58:59Z</time>
      </trkpt>
      <trkpt lat="45.24764" lon="6.02743">
        <ele>2078.4528808594</ele>
        <time>2017-11-17T08:59:08Z</time>
      </trkpt>
      <trkpt lat="45.24765" lon="6.0275">
        <ele>2082.4528808594</ele>
        <time>2017-11-17T08:59:17Z</time>
      </trkpt>
      <trkpt lat="45.24766" lon="6.02757">
        <ele>2082.4528808594</ele>
        <time>2017-11-17T08:59:24Z</time>
      </trkpt>
      <trkpt lat="45.24768" lon="6.02763">
        <ele>2085.4528808594</ele>
        <time>2017-11-17T08:59:38Z</time>
      </trkpt>
      <trkpt lat="45.24768" lon="6.0277">
        <ele>2079.4528808594</ele>
        <time>2017-11-17T08:59:58Z</time>
      </trkpt>
      <trkpt lat="45.2477" lon="6.02776">
        <ele>2074.4528808594</ele>
        <time>2017-11-17T09:00:05Z</time>
      </trkpt>
      <trkpt lat="45.24774" lon="6.02781">
        <ele>2078.4528808594</ele>
        <time>2017-11-17T09:00:11Z</time>
      </trkpt>
      <trkpt lat="45.24774" lon="6.02789">
        <ele>2082.4528808594</ele>
        <time>2017-11-17T09:00:20Z</time>
      </trkpt>
      <trkpt lat="45.24773" lon="6.02796">
        <ele>2086.4528808594</ele>
        <time>2017-11-17T09:00:31Z</time>
      </trkpt>
      <trkpt lat="45.24773" lon="6.02803">
        <ele>2089.4528808594</ele>
        <time>2017-11-17T09:00:38Z</time>
      </trkpt>
      <trkpt lat="45.24775" lon="6.02809">
        <ele>2090.4528808594</ele>
        <time>2017-11-17T09:00:47Z</time>
      </trkpt>
      <trkpt lat="45.24778" lon="6.02816">
        <ele>2092.4528808594</ele>
        <time>2017-11-17T09:01:03Z</time>
      </trkpt>
      <trkpt lat="45.24775" lon="6.0282">
        <ele>2089.4528808594</ele>
        <time>2017-11-17T09:01:14Z</time>
      </trkpt>
      <trkpt lat="45.2477" lon="6.02824">
        <ele>2093.4528808594</ele>
        <time>2017-11-17T09:01:20Z</time>
      </trkpt>
      <trkpt lat="45.24766" lon="6.02826">
        <ele>2107.4528808594</ele>
        <time>2017-11-17T09:01:39Z</time>
      </trkpt>
      <trkpt lat="45.24767" lon="6.02834">
        <ele>2111.4528808594</ele>
        <time>2017-11-17T09:01:55Z</time>
      </trkpt>
      <trkpt lat="45.24766" lon="6.0284">
        <ele>2111.4528808594</ele>
        <time>2017-11-17T09:02:10Z</time>
      </trkpt>
      <trkpt lat="45.24769" lon="6.02845">
        <ele>2114.4528808594</ele>
        <time>2017-11-17T09:02:17Z</time>
      </trkpt>
      <trkpt lat="45.24772" lon="6.02851">
        <ele>2115.4528808594</ele>
        <time>2017-11-17T09:02:29Z</time>
      </trkpt>
      <trkpt lat="45.24775" lon="6.02857">
        <ele>2116.4528808594</ele>
        <time>2017-11-17T09:02:37Z</time>
      </trkpt>
      <trkpt lat="45.24774" lon="6.02865">
        <ele>2117.4528808594</ele>
        <time>2017-11-17T09:02:48Z</time>
      </trkpt>
      <trkpt lat="45.24777" lon="6.02871">
        <ele>2117.4541015625</ele>
        <time>2017-11-17T09:02:53Z</time>
      </trkpt>
      <trkpt lat="45.24777" lon="6.02878">
        <ele>2121.4541015625</ele>
        <time>2017-11-17T09:03:12Z</time>
      </trkpt>
      <trkpt lat="45.24773" lon="6.02881">
        <ele>2122.4541015625</ele>
        <time>2017-11-17T09:03:21Z</time>
      </trkpt>
      <trkpt lat="45.24769" lon="6.02883">
        <ele>2125.4541015625</ele>
        <time>2017-11-17T09:03:32Z</time>
      </trkpt>
      <trkpt lat="45.24764" lon="6.02882">
        <ele>2131.4528808594</ele>
        <time>2017-11-17T09:03:42Z</time>
      </trkpt>
      <trkpt lat="45.24759" lon="6.02879">
        <ele>2134.4528808594</ele>
        <time>2017-11-17T09:03:48Z</time>
      </trkpt>
      <trkpt lat="45.24755" lon="6.02882">
        <ele>2136.4528808594</ele>
        <time>2017-11-17T09:03:59Z</time>
      </trkpt>
      <trkpt lat="45.2475" lon="6.02882">
        <ele>2135.4528808594</ele>
        <time>2017-11-17T09:04:06Z</time>
      </trkpt>
      <trkpt lat="45.24746" lon="6.0288">
        <ele>2140.4528808594</ele>
        <time>2017-11-17T09:05:02Z</time>
      </trkpt>
      <trkpt lat="45.24738" lon="6.02884">
        <ele>2139.4528808594</ele>
        <time>2017-11-17T09:05:07Z</time>
      </trkpt>
      <trkpt lat="45.24733" lon="6.02881">
        <ele>2139.4528808594</ele>
        <time>2017-11-17T09:05:11Z</time>
      </trkpt>
      <trkpt lat="45.24729" lon="6.0288">
        <ele>2143.4528808594</ele>
        <time>2017-11-17T09:05:17Z</time>
      </trkpt>
      <trkpt lat="45.24724" lon="6.02878">
        <ele>2146.4528808594</ele>
        <time>2017-11-17T09:05:22Z</time>
      </trkpt>
      <trkpt lat="45.24719" lon="6.02876">
        <ele>2144.4528808594</ele>
        <time>2017-11-17T09:05:26Z</time>
      </trkpt>
      <trkpt lat="45.24714" lon="6.02871">
        <ele>2146.4528808594</ele>
        <time>2017-11-17T09:05:31Z</time>
      </trkpt>
      <trkpt lat="45.24709" lon="6.02867">
        <ele>2148.4528808594</ele>
        <time>2017-11-17T09:05:37Z</time>
      </trkpt>
      <trkpt lat="45.24704" lon="6.02866">
        <ele>2148.4528808594</ele>
        <time>2017-11-17T09:05:43Z</time>
      </trkpt>
      <trkpt lat="45.247" lon="6.02863">
        <ele>2147.4528808594</ele>
        <time>2017-11-17T09:05:45Z</time>
      </trkpt>
      <trkpt lat="45.24698" lon="6.02858">
        <ele>2148.4528808594</ele>
        <time>2017-11-17T09:05:49Z</time>
      </trkpt>
      <trkpt lat="45.24693" lon="6.02853">
        <ele>2149.4528808594</ele>
        <time>2017-11-17T09:05:55Z</time>
      </trkpt>
      <trkpt lat="45.24689" lon="6.02847">
        <ele>2150.4528808594</ele>
        <time>2017-11-17T09:05:59Z</time>
      </trkpt>
      <trkpt lat="45.24686" lon="6.02841">
        <ele>2151.4528808594</ele>
        <time>2017-11-17T09:06:03Z</time>
      </trkpt>
      <trkpt lat="45.24681" lon="6.02844">
        <ele>2152.4528808594</ele>
        <time>2017-11-17T09:06:12Z</time>
      </trkpt>
      <trkpt lat="45.24681" lon="6.02837">
        <ele>2152.4528808594</ele>
        <time>2017-11-17T09:06:15Z</time>
      </trkpt>
      <trkpt lat="45.24679" lon="6.0283">
        <ele>2152.4528808594</ele>
        <time>2017-11-17T09:06:19Z</time>
      </trkpt>
      <trkpt lat="45.24676" lon="6.02825">
        <ele>2154.4528808594</ele>
        <time>2017-11-17T09:06:23Z</time>
      </trkpt>
      <trkpt lat="45.24671" lon="6.02822">
        <ele>2153.4528808594</ele>
        <time>2017-11-17T09:06:27Z</time>
      </trkpt>
      <trkpt lat="45.24668" lon="6.02817">
        <ele>2153.4528808594</ele>
        <time>2017-11-17T09:06:32Z</time>
      </trkpt>
      <trkpt lat="45.24667" lon="6.02811">
        <ele>2154.4528808594</ele>
        <time>2017-11-17T09:06:36Z</time>
      </trkpt>
      <trkpt lat="45.24663" lon="6.02804">
        <ele>2154.4528808594</ele>
        <time>2017-11-17T09:06:40Z</time>
      </trkpt>
      <trkpt lat="45.24661" lon="6.02798">
        <ele>2154.4528808594</ele>
        <time>2017-11-17T09:06:43Z</time>
      </trkpt>
      <trkpt lat="45.24659" lon="6.02792">
        <ele>2154.4528808594</ele>
        <time>2017-11-17T09:06:47Z</time>
      </trkpt>
      <trkpt lat="45.24656" lon="6.02785">
        <ele>2155.4528808594</ele>
        <time>2017-11-17T09:06:50Z</time>
      </trkpt>
      <trkpt lat="45.24654" lon="6.02778">
        <ele>2157.4528808594</ele>
        <time>2017-11-17T09:06:53Z</time>
      </trkpt>
      <trkpt lat="45.24651" lon="6.02774">
        <ele>2158.4528808594</ele>
        <time>2017-11-17T09:06:57Z</time>
      </trkpt>
      <trkpt lat="45.24648" lon="6.02769">
        <ele>2157.4528808594</ele>
        <time>2017-11-17T09:07:02Z</time>
      </trkpt>
      <trkpt lat="45.24645" lon="6.02764">
        <ele>2157.4528808594</ele>
        <time>2017-11-17T09:07:06Z</time>
      </trkpt>
      <trkpt lat="45.24643" lon="6.02758">
        <ele>2160.4528808594</ele>
        <time>2017-11-17T09:07:10Z</time>
      </trkpt>
      <trkpt lat="45.24638" lon="6.02754">
        <ele>2158.4528808594</ele>
        <time>2017-11-17T09:07:17Z</time>
      </trkpt>
      <trkpt lat="45.24634" lon="6.02751">
        <ele>2158.4528808594</ele>
        <time>2017-11-17T09:07:22Z</time>
      </trkpt>
      <trkpt lat="45.24628" lon="6.02749">
        <ele>2158.4528808594</ele>
        <time>2017-11-17T09:07:26Z</time>
      </trkpt>
      <trkpt lat="45.24624" lon="6.02746">
        <ele>2158.4528808594</ele>
        <time>2017-11-17T09:07:31Z</time>
      </trkpt>
      <trkpt lat="45.2462" lon="6.02742">
        <ele>2160.4528808594</ele>
        <time>2017-11-17T09:07:36Z</time>
      </trkpt>
      <trkpt lat="45.24615" lon="6.02742">
        <ele>2161.4528808594</ele>
        <time>2017-11-17T09:07:42Z</time>
      </trkpt>
      <trkpt lat="45.24609" lon="6.02743">
        <ele>2161.4528808594</ele>
        <time>2017-11-17T09:07:48Z</time>
      </trkpt>
      <trkpt lat="45.24605" lon="6.02746">
        <ele>2162.4528808594</ele>
        <time>2017-11-17T09:07:53Z</time>
      </trkpt>
      <trkpt lat="45.246" lon="6.02744">
        <ele>2164.4528808594</ele>
        <time>2017-11-17T09:07:58Z</time>
      </trkpt>
      <trkpt lat="45.24595" lon="6.02744">
        <ele>2164.4528808594</ele>
        <time>2017-11-17T09:08:02Z</time>
      </trkpt>
      <trkpt lat="45.2459" lon="6.02746">
        <ele>2166.4528808594</ele>
        <time>2017-11-17T09:08:07Z</time>
      </trkpt>
      <trkpt lat="45.24585" lon="6.02748">
        <ele>2168.4528808594</ele>
        <time>2017-11-17T09:08:13Z</time>
      </trkpt>
      <trkpt lat="45.2458" lon="6.0275">
        <ele>2171.4528808594</ele>
        <time>2017-11-17T09:08:20Z</time>
      </trkpt>
      <trkpt lat="45.24575" lon="6.02751">
        <ele>2172.4528808594</ele>
        <time>2017-11-17T09:08:25Z</time>
      </trkpt>
      <trkpt lat="45.24571" lon="6.02752">
        <ele>2175.4528808594</ele>
        <time>2017-11-17T09:08:34Z</time>
      </trkpt>
      <trkpt lat="45.24569" lon="6.02758">
        <ele>2174.4528808594</ele>
        <time>2017-11-17T09:08:41Z</time>
      </trkpt>
      <trkpt lat="45.24564" lon="6.02757">
        <ele>2173.4528808594</ele>
        <time>2017-11-17T09:08:45Z</time>
      </trkpt>
      <trkpt lat="45.2456" lon="6.02753">
        <ele>2174.4528808594</ele>
        <time>2017-11-17T09:08:52Z</time>
      </trkpt>
      <trkpt lat="45.2456" lon="6.0276">
        <ele>2173.4528808594</ele>
        <time>2017-11-17T09:08:59Z</time>
      </trkpt>
      <trkpt lat="45.24557" lon="6.02767">
        <ele>2177.4528808594</ele>
        <time>2017-11-17T09:09:05Z</time>
      </trkpt>
      <trkpt lat="45.24554" lon="6.02771">
        <ele>2178.4528808594</ele>
        <time>2017-11-17T09:09:11Z</time>
      </trkpt>
      <trkpt lat="45.24551" lon="6.02777">
        <ele>2182.4528808594</ele>
        <time>2017-11-17T09:09:21Z</time>
      </trkpt>
      <trkpt lat="45.24546" lon="6.02779">
        <ele>2187.4528808594</ele>
        <time>2017-11-17T09:09:27Z</time>
      </trkpt>
      <trkpt lat="45.24542" lon="6.02785">
        <ele>2191.4528808594</ele>
        <time>2017-11-17T09:09:38Z</time>
      </trkpt>
      <trkpt lat="45.24542" lon="6.02792">
        <ele>2192.4528808594</ele>
        <time>2017-11-17T09:09:43Z</time>
      </trkpt>
      <trkpt lat="45.24542" lon="6.02799">
        <ele>2194.4528808594</ele>
        <time>2017-11-17T09:09:49Z</time>
      </trkpt>
      <trkpt lat="45.24541" lon="6.02805">
        <ele>2193.4528808594</ele>
        <time>2017-11-17T09:10:05Z</time>
      </trkpt>
      <trkpt lat="45.2454" lon="6.02812">
        <ele>2194.4528808594</ele>
        <time>2017-11-17T09:10:10Z</time>
      </trkpt>
      <trkpt lat="45.24537" lon="6.02818">
        <ele>2196.4528808594</ele>
        <time>2017-11-17T09:10:17Z</time>
      </trkpt>
      <trkpt lat="45.24535" lon="6.02824">
        <ele>2197.4528808594</ele>
        <time>2017-11-17T09:10:22Z</time>
      </trkpt>
      <trkpt lat="45.24534" lon="6.0283">
        <ele>2197.4528808594</ele>
        <time>2017-11-17T09:10:29Z</time>
      </trkpt>
      <trkpt lat="45.24536" lon="6.02837">
        <ele>2197.4528808594</ele>
        <time>2017-11-17T09:10:36Z</time>
      </trkpt>
      <trkpt lat="45.24536" lon="6.02844">
        <ele>2201.4528808594</ele>
        <time>2017-11-17T09:10:55Z</time>
      </trkpt>
      <trkpt lat="45.24539" lon="6.0285">
        <ele>2204.4528808594</ele>
        <time>2017-11-17T09:11:05Z</time>
      </trkpt>
      <trkpt lat="45.24543" lon="6.02855">
        <ele>2208.4528808594</ele>
        <time>2017-11-17T09:11:14Z</time>
      </trkpt>
      <trkpt lat="45.24543" lon="6.02863">
        <ele>2207.4528808594</ele>
        <time>2017-11-17T09:11:22Z</time>
      </trkpt>
      <trkpt lat="45.24543" lon="6.0287">
        <ele>2206.4528808594</ele>
        <time>2017-11-17T09:11:29Z</time>
      </trkpt>
      <trkpt lat="45.2454" lon="6.02875">
        <ele>2210.4528808594</ele>
        <time>2017-11-17T09:11:36Z</time>
      </trkpt>
      <trkpt lat="45.24537" lon="6.02882">
        <ele>2216.4528808594</ele>
        <time>2017-11-17T09:11:48Z</time>
      </trkpt>
      <trkpt lat="45.24539" lon="6.02888">
        <ele>2216.4528808594</ele>
        <time>2017-11-17T09:11:57Z</time>
      </trkpt>
      <trkpt lat="45.24542" lon="6.02894">
        <ele>2222.4528808594</ele>
        <time>2017-11-17T09:12:06Z</time>
      </trkpt>
      <trkpt lat="45.24541" lon="6.02902">
        <ele>2223.4528808594</ele>
        <time>2017-11-17T09:12:22Z</time>
      </trkpt>
      <trkpt lat="45.24537" lon="6.02906">
        <ele>2226.4528808594</ele>
        <time>2017-11-17T09:12:28Z</time>
      </trkpt>
      <trkpt lat="45.24534" lon="6.02911">
        <ele>2230.4528808594</ele>
        <time>2017-11-17T09:12:38Z</time>
      </trkpt>
      <trkpt lat="45.24529" lon="6.02912">
        <ele>2232.4528808594</ele>
        <time>2017-11-17T09:12:44Z</time>
      </trkpt>
      <trkpt lat="45.24524" lon="6.02914">
        <ele>2238.4528808594</ele>
        <time>2017-11-17T09:12:53Z</time>
      </trkpt>
      <trkpt lat="45.24519" lon="6.02915">
        <ele>2236.4528808594</ele>
        <time>2017-11-17T09:12:58Z</time>
      </trkpt>
      <trkpt lat="45.24514" lon="6.02916">
        <ele>2240.4528808594</ele>
        <time>2017-11-17T09:13:06Z</time>
      </trkpt>
      <trkpt lat="45.24511" lon="6.02922">
        <ele>2240.4528808594</ele>
        <time>2017-11-17T09:13:17Z</time>
      </trkpt>
      <trkpt lat="45.2451" lon="6.02929">
        <ele>2239.4528808594</ele>
        <time>2017-11-17T09:13:20Z</time>
      </trkpt>
      <trkpt lat="45.24509" lon="6.02936">
        <ele>2238.4528808594</ele>
        <time>2017-11-17T09:13:29Z</time>
      </trkpt>
      <trkpt lat="45.24513" lon="6.02941">
        <ele>2243.4528808594</ele>
        <time>2017-11-17T09:13:37Z</time>
      </trkpt>
      <trkpt lat="45.24514" lon="6.02948">
        <ele>2250.4528808594</ele>
        <time>2017-11-17T09:13:47Z</time>
      </trkpt>
      <trkpt lat="45.24515" lon="6.02954">
        <ele>2251.4528808594</ele>
        <time>2017-11-17T09:13:53Z</time>
      </trkpt>
      <trkpt lat="45.24516" lon="6.02961">
        <ele>2252.4528808594</ele>
        <time>2017-11-17T09:13:59Z</time>
      </trkpt>
      <trkpt lat="45.24518" lon="6.02967">
        <ele>2256.4528808594</ele>
        <time>2017-11-17T09:14:08Z</time>
      </trkpt>
      <trkpt lat="45.24519" lon="6.02974">
        <ele>2258.4528808594</ele>
        <time>2017-11-17T09:14:13Z</time>
      </trkpt>
      <trkpt lat="45.24516" lon="6.02978">
        <ele>2255.4528808594</ele>
        <time>2017-11-17T09:14:23Z</time>
      </trkpt>
      <trkpt lat="45.24511" lon="6.02979">
        <ele>2256.4528808594</ele>
        <time>2017-11-17T09:14:31Z</time>
      </trkpt>
      <trkpt lat="45.24508" lon="6.02985">
        <ele>2261.4528808594</ele>
        <time>2017-11-17T09:14:43Z</time>
      </trkpt>
      <trkpt lat="45.24506" lon="6.0299">
        <ele>2262.4528808594</ele>
        <time>2017-11-17T09:14:50Z</time>
      </trkpt>
      <trkpt lat="45.24501" lon="6.02994">
        <ele>2264.4528808594</ele>
        <time>2017-11-17T09:14:58Z</time>
      </trkpt>
      <trkpt lat="45.24497" lon="6.02997">
        <ele>2264.4528808594</ele>
        <time>2017-11-17T09:15:07Z</time>
      </trkpt>
      <trkpt lat="45.24495" lon="6.03003">
        <ele>2267.4528808594</ele>
        <time>2017-11-17T09:15:23Z</time>
      </trkpt>
      <trkpt lat="45.24495" lon="6.0301">
        <ele>2266.4528808594</ele>
        <time>2017-11-17T09:15:29Z</time>
      </trkpt>
      <trkpt lat="45.24494" lon="6.03016">
        <ele>2270.4528808594</ele>
        <time>2017-11-17T09:15:37Z</time>
      </trkpt>
      <trkpt lat="45.24495" lon="6.03025">
        <ele>2271.4528808594</ele>
        <time>2017-11-17T09:15:43Z</time>
      </trkpt>
      <trkpt lat="45.24494" lon="6.03031">
        <ele>2272.4528808594</ele>
        <time>2017-11-17T09:15:49Z</time>
      </trkpt>
      <trkpt lat="45.24494" lon="6.03039">
        <ele>2272.4528808594</ele>
        <time>2017-11-17T09:15:55Z</time>
      </trkpt>
      <trkpt lat="45.24496" lon="6.03046">
        <ele>2273.4528808594</ele>
        <time>2017-11-17T09:16:03Z</time>
      </trkpt>
      <trkpt lat="45.24498" lon="6.03051">
        <ele>2277.4528808594</ele>
        <time>2017-11-17T09:16:10Z</time>
      </trkpt>
      <trkpt lat="45.24494" lon="6.03055">
        <ele>2276.4528808594</ele>
        <time>2017-11-17T09:16:13Z</time>
      </trkpt>
      <trkpt lat="45.24492" lon="6.03062">
        <ele>2279.4528808594</ele>
        <time>2017-11-17T09:16:18Z</time>
      </trkpt>
      <trkpt lat="45.2449" lon="6.03069">
        <ele>2275.4528808594</ele>
        <time>2017-11-17T09:16:24Z</time>
      </trkpt>
      <trkpt lat="45.24494" lon="6.03076">
        <ele>2277.4528808594</ele>
        <time>2017-11-17T09:16:41Z</time>
      </trkpt>
      <trkpt lat="45.24494" lon="6.03083">
        <ele>2284.4528808594</ele>
        <time>2017-11-17T09:16:47Z</time>
      </trkpt>
      <trkpt lat="45.24493" lon="6.03089">
        <ele>2282.4528808594</ele>
        <time>2017-11-17T09:16:52Z</time>
      </trkpt>
      <trkpt lat="45.24492" lon="6.03096">
        <ele>2281.4528808594</ele>
        <time>2017-11-17T09:16:59Z</time>
      </trkpt>
      <trkpt lat="45.24494" lon="6.03102">
        <ele>2284.4528808594</ele>
        <time>2017-11-17T09:17:07Z</time>
      </trkpt>
      <trkpt lat="45.24497" lon="6.03107">
        <ele>2288.4528808594</ele>
        <time>2017-11-17T09:17:18Z</time>
      </trkpt>
      <trkpt lat="45.24497" lon="6.03114">
        <ele>2290.4528808594</ele>
        <time>2017-11-17T09:17:29Z</time>
      </trkpt>
      <trkpt lat="45.24494" lon="6.03119">
        <ele>2291.4528808594</ele>
        <time>2017-11-17T09:17:41Z</time>
      </trkpt>
      <trkpt lat="45.24492" lon="6.03126">
        <ele>2288.4528808594</ele>
        <time>2017-11-17T09:17:46Z</time>
      </trkpt>
      <trkpt lat="45.24492" lon="6.03132">
        <ele>2295.4528808594</ele>
        <time>2017-11-17T09:17:57Z</time>
      </trkpt>
      <trkpt lat="45.24488" lon="6.03138">
        <ele>2300.4528808594</ele>
        <time>2017-11-17T09:18:08Z</time>
      </trkpt>
      <trkpt lat="45.24483" lon="6.03142">
        <ele>2306.4528808594</ele>
        <time>2017-11-17T09:18:16Z</time>
      </trkpt>
      <trkpt lat="45.24478" lon="6.03141">
        <ele>2308.4528808594</ele>
        <time>2017-11-17T09:18:21Z</time>
      </trkpt>
      <trkpt lat="45.24474" lon="6.0314">
        <ele>2309.4528808594</ele>
        <time>2017-11-17T09:18:27Z</time>
      </trkpt>
      <trkpt lat="45.24469" lon="6.03142">
        <ele>2312.4528808594</ele>
        <time>2017-11-17T09:18:34Z</time>
      </trkpt>
      <trkpt lat="45.24464" lon="6.03141">
        <ele>2316.4528808594</ele>
        <time>2017-11-17T09:18:42Z</time>
      </trkpt>
      <trkpt lat="45.24459" lon="6.03143">
        <ele>2320.4528808594</ele>
        <time>2017-11-17T09:18:48Z</time>
      </trkpt>
      <trkpt lat="45.24454" lon="6.03143">
        <ele>2316.4528808594</ele>
        <time>2017-11-17T09:18:54Z</time>
      </trkpt>
      <trkpt lat="45.2445" lon="6.03143">
        <ele>2318.4528808594</ele>
        <time>2017-11-17T09:19:02Z</time>
      </trkpt>
      <trkpt lat="45.24446" lon="6.0314">
        <ele>2320.4528808594</ele>
        <time>2017-11-17T09:19:10Z</time>
      </trkpt>
      <trkpt lat="45.24441" lon="6.03137">
        <ele>2321.4528808594</ele>
        <time>2017-11-17T09:19:15Z</time>
      </trkpt>
      <trkpt lat="45.24437" lon="6.03134">
        <ele>2325.4528808594</ele>
        <time>2017-11-17T09:19:23Z</time>
      </trkpt>
      <trkpt lat="45.24433" lon="6.0313">
        <ele>2326.4528808594</ele>
        <time>2017-11-17T09:19:31Z</time>
      </trkpt>
      <trkpt lat="45.24429" lon="6.03126">
        <ele>2329.4528808594</ele>
        <time>2017-11-17T09:19:45Z</time>
      </trkpt>
      <trkpt lat="45.24424" lon="6.03122">
        <ele>2330.4528808594</ele>
        <time>2017-11-17T09:19:54Z</time>
      </trkpt>
      <trkpt lat="45.2442" lon="6.0312">
        <ele>2332.4528808594</ele>
        <time>2017-11-17T09:20:02Z</time>
      </trkpt>
      <trkpt lat="45.24415" lon="6.03118">
        <ele>2334.4528808594</ele>
        <time>2017-11-17T09:20:12Z</time>
      </trkpt>
      <trkpt lat="45.2441" lon="6.03119">
        <ele>2332.4528808594</ele>
        <time>2017-11-17T09:20:19Z</time>
      </trkpt>
      <trkpt lat="45.24407" lon="6.03124">
        <ele>2333.4528808594</ele>
        <time>2017-11-17T09:20:35Z</time>
      </trkpt>
      <trkpt lat="45.24407" lon="6.03131">
        <ele>2335.4528808594</ele>
        <time>2017-11-17T09:20:41Z</time>
      </trkpt>
      <trkpt lat="45.24405" lon="6.03137">
        <ele>2336.4528808594</ele>
        <time>2017-11-17T09:20:46Z</time>
      </trkpt>
      <trkpt lat="45.24404" lon="6.03144">
        <ele>2335.4528808594</ele>
        <time>2017-11-17T09:20:53Z</time>
      </trkpt>
      <trkpt lat="45.24405" lon="6.0315">
        <ele>2338.4528808594</ele>
        <time>2017-11-17T09:21:03Z</time>
      </trkpt>
      <trkpt lat="45.24407" lon="6.03158">
        <ele>2340.4528808594</ele>
        <time>2017-11-17T09:21:08Z</time>
      </trkpt>
      <trkpt lat="45.2441" lon="6.03164">
        <ele>2344.4528808594</ele>
        <time>2017-11-17T09:21:16Z</time>
      </trkpt>
      <trkpt lat="45.24409" lon="6.0317">
        <ele>2345.4528808594</ele>
        <time>2017-11-17T09:21:22Z</time>
      </trkpt>
      <trkpt lat="45.24412" lon="6.03175">
        <ele>2347.4528808594</ele>
        <time>2017-11-17T09:21:27Z</time>
      </trkpt>
      <trkpt lat="45.24412" lon="6.03183">
        <ele>2351.4528808594</ele>
        <time>2017-11-17T09:21:34Z</time>
      </trkpt>
      <trkpt lat="45.24416" lon="6.03187">
        <ele>2352.4528808594</ele>
        <time>2017-11-17T09:21:39Z</time>
      </trkpt>
      <trkpt lat="45.24419" lon="6.03193">
        <ele>2354.4528808594</ele>
        <time>2017-11-17T09:21:45Z</time>
      </trkpt>
      <trkpt lat="45.2442" lon="6.032">
        <ele>2353.4528808594</ele>
        <time>2017-11-17T09:21:54Z</time>
      </trkpt>
      <trkpt lat="45.24423" lon="6.03207">
        <ele>2356.4528808594</ele>
        <time>2017-11-17T09:22:00Z</time>
      </trkpt>
      <trkpt lat="45.24425" lon="6.03212">
        <ele>2358.4528808594</ele>
        <time>2017-11-17T09:22:04Z</time>
      </trkpt>
      <trkpt lat="45.24428" lon="6.03217">
        <ele>2358.4528808594</ele>
        <time>2017-11-17T09:22:08Z</time>
      </trkpt>
      <trkpt lat="45.24432" lon="6.03222">
        <ele>2364.4528808594</ele>
        <time>2017-11-17T09:22:14Z</time>
      </trkpt>
      <trkpt lat="45.24434" lon="6.03229">
        <ele>2365.4528808594</ele>
        <time>2017-11-17T09:22:19Z</time>
      </trkpt>
      <trkpt lat="45.24437" lon="6.03234">
        <ele>2367.4528808594</ele>
        <time>2017-11-17T09:22:24Z</time>
      </trkpt>
      <trkpt lat="45.24438" lon="6.03241">
        <ele>2370.4528808594</ele>
        <time>2017-11-17T09:22:29Z</time>
      </trkpt>
      <trkpt lat="45.2444" lon="6.03247">
        <ele>2372.4528808594</ele>
        <time>2017-11-17T09:22:35Z</time>
      </trkpt>
      <trkpt lat="45.24438" lon="6.03253">
        <ele>2372.4528808594</ele>
        <time>2017-11-17T09:22:39Z</time>
      </trkpt>
      <trkpt lat="45.24435" lon="6.03258">
        <ele>2374.4528808594</ele>
        <time>2017-11-17T09:22:48Z</time>
      </trkpt>
      <trkpt lat="45.24437" lon="6.03265">
        <ele>2375.4528808594</ele>
        <time>2017-11-17T09:24:38Z</time>
      </trkpt>
      <trkpt lat="45.24439" lon="6.03258">
        <ele>2374.4528808594</ele>
        <time>2017-11-17T09:27:03Z</time>
      </trkpt>
      <trkpt lat="45.2444" lon="6.03251">
        <ele>2375.4528808594</ele>
        <time>2017-11-17T09:27:08Z</time>
      </trkpt>
      <trkpt lat="45.2444" lon="6.03245">
        <ele>2375.4528808594</ele>
        <time>2017-11-17T09:27:12Z</time>
      </trkpt>
      <trkpt lat="45.2444" lon="6.03238">
        <ele>2374.4528808594</ele>
        <time>2017-11-17T09:27:17Z</time>
      </trkpt>
      <trkpt lat="45.24442" lon="6.03232">
        <ele>2372.4528808594</ele>
        <time>2017-11-17T09:27:23Z</time>
      </trkpt>
      <trkpt lat="45.24443" lon="6.03226">
        <ele>2371.4528808594</ele>
        <time>2017-11-17T09:27:31Z</time>
      </trkpt>
      <trkpt lat="45.2444" lon="6.03232">
        <ele>2373.4528808594</ele>
        <time>2017-11-17T09:30:07Z</time>
      </trkpt>
      <trkpt lat="45.24438" lon="6.03239">
        <ele>2373.4528808594</ele>
        <time>2017-11-17T09:30:13Z</time>
      </trkpt>
      <trkpt lat="45.24439" lon="6.03248">
        <ele>2373.4528808594</ele>
        <time>2017-11-17T09:30:19Z</time>
      </trkpt>
      <trkpt lat="45.24437" lon="6.03255">
        <ele>2368.4528808594</ele>
        <time>2017-11-17T09:30:25Z</time>
      </trkpt>
      <trkpt lat="45.24436" lon="6.03262">
        <ele>2368.4528808594</ele>
        <time>2017-11-17T09:30:31Z</time>
      </trkpt>
      <trkpt lat="45.24437" lon="6.03269">
        <ele>2371.4528808594</ele>
        <time>2017-11-17T09:32:08Z</time>
      </trkpt>
      <trkpt lat="45.24438" lon="6.03262">
        <ele>2372.4528808594</ele>
        <time>2017-11-17T09:33:15Z</time>
      </trkpt>
      <trkpt lat="45.24434" lon="6.03267">
        <ele>2373.4528808594</ele>
        <time>2017-11-17T09:34:51Z</time>
      </trkpt>
      <trkpt lat="45.24427" lon="6.0327">
        <ele>2373.4528808594</ele>
        <time>2017-11-17T09:34:54Z</time>
      </trkpt>
      <trkpt lat="45.2442" lon="6.03275">
        <ele>2372.4528808594</ele>
        <time>2017-11-17T09:34:56Z</time>
      </trkpt>
      <trkpt lat="45.24414" lon="6.03283">
        <ele>2371.4528808594</ele>
        <time>2017-11-17T09:34:58Z</time>
      </trkpt>
      <trkpt lat="45.24409" lon="6.03285">
        <ele>2369.4528808594</ele>
        <time>2017-11-17T09:35:01Z</time>
      </trkpt>
      <trkpt lat="45.24405" lon="6.03287">
        <ele>2368.4528808594</ele>
        <time>2017-11-17T09:35:03Z</time>
      </trkpt>
      <trkpt lat="45.24399" lon="6.03298">
        <ele>2364.4528808594</ele>
        <time>2017-11-17T09:35:08Z</time>
      </trkpt>
      <trkpt lat="45.24391" lon="6.03304">
        <ele>2359.4528808594</ele>
        <time>2017-11-17T09:35:10Z</time>
      </trkpt>
      <trkpt lat="45.24386" lon="6.03309">
        <ele>2357.4528808594</ele>
        <time>2017-11-17T09:35:12Z</time>
      </trkpt>
      <trkpt lat="45.24382" lon="6.03314">
        <ele>2355.4528808594</ele>
        <time>2017-11-17T09:35:14Z</time>
      </trkpt>
      <trkpt lat="45.24378" lon="6.03319">
        <ele>2355.4528808594</ele>
        <time>2017-11-17T09:35:16Z</time>
      </trkpt>
      <trkpt lat="45.24375" lon="6.03326">
        <ele>2352.4528808594</ele>
        <time>2017-11-17T09:35:21Z</time>
      </trkpt>
      <trkpt lat="45.24369" lon="6.0333">
        <ele>2352.4528808594</ele>
        <time>2017-11-17T09:35:23Z</time>
      </trkpt>
      <trkpt lat="45.24365" lon="6.03333">
        <ele>2353.4528808594</ele>
        <time>2017-11-17T09:35:25Z</time>
      </trkpt>
      <trkpt lat="45.24365" lon="6.03342">
        <ele>2352.4528808594</ele>
        <time>2017-11-17T09:35:27Z</time>
      </trkpt>
      <trkpt lat="45.24366" lon="6.03349">
        <ele>2344.4528808594</ele>
        <time>2017-11-17T09:35:31Z</time>
      </trkpt>
      <trkpt lat="45.24364" lon="6.03358">
        <ele>2344.4528808594</ele>
        <time>2017-11-17T09:35:36Z</time>
      </trkpt>
      <trkpt lat="45.24363" lon="6.03367">
        <ele>2343.4528808594</ele>
        <time>2017-11-17T09:35:38Z</time>
      </trkpt>
      <trkpt lat="45.24359" lon="6.03371">
        <ele>2341.4528808594</ele>
        <time>2017-11-17T09:35:40Z</time>
      </trkpt>
      <trkpt lat="45.24363" lon="6.03374">
        <ele>2331.4528808594</ele>
        <time>2017-11-17T09:35:44Z</time>
      </trkpt>
      <trkpt lat="45.24363" lon="6.03383">
        <ele>2327.4528808594</ele>
        <time>2017-11-17T09:35:47Z</time>
      </trkpt>
      <trkpt lat="45.24361" lon="6.03391">
        <ele>2327.4528808594</ele>
        <time>2017-11-17T09:35:48Z</time>
      </trkpt>
      <trkpt lat="45.24359" lon="6.03399">
        <ele>2326.4528808594</ele>
        <time>2017-11-17T09:35:50Z</time>
      </trkpt>
      <trkpt lat="45.24364" lon="6.03403">
        <ele>2324.4528808594</ele>
        <time>2017-11-17T09:35:52Z</time>
      </trkpt>
      <trkpt lat="45.24369" lon="6.03409">
        <ele>2323.4528808594</ele>
        <time>2017-11-17T09:35:53Z</time>
      </trkpt>
      <trkpt lat="45.24374" lon="6.03417">
        <ele>2322.4528808594</ele>
        <time>2017-11-17T09:35:55Z</time>
      </trkpt>
      <trkpt lat="45.24392" lon="6.03426">
        <ele>2317.4541015625</ele>
        <time>2017-11-17T09:35:58Z</time>
      </trkpt>
      <trkpt lat="45.24407" lon="6.03431">
        <ele>2315.4541015625</ele>
        <time>2017-11-17T09:36:00Z</time>
      </trkpt>
      <trkpt lat="45.2442" lon="6.03439">
        <ele>2311.4541015625</ele>
        <time>2017-11-17T09:36:02Z</time>
      </trkpt>
      <trkpt lat="45.24408" lon="6.03449">
        <ele>2300.4541015625</ele>
        <time>2017-11-17T09:36:03Z</time>
      </trkpt>
      <trkpt lat="45.24417" lon="6.03461">
        <ele>2291.4541015625</ele>
        <time>2017-11-17T09:36:06Z</time>
      </trkpt>
      <trkpt lat="45.24422" lon="6.0347">
        <ele>2287.4541015625</ele>
        <time>2017-11-17T09:36:08Z</time>
      </trkpt>
      <trkpt lat="45.24421" lon="6.03483">
        <ele>2281.4541015625</ele>
        <time>2017-11-17T09:36:09Z</time>
      </trkpt>
      <trkpt lat="45.24418" lon="6.03499">
        <ele>2275.4541015625</ele>
        <time>2017-11-17T09:36:11Z</time>
      </trkpt>
      <trkpt lat="45.24415" lon="6.03506">
        <ele>2273.4541015625</ele>
        <time>2017-11-17T09:36:12Z</time>
      </trkpt>
      <trkpt lat="45.24409" lon="6.0352">
        <ele>2269.4541015625</ele>
        <time>2017-11-17T09:36:14Z</time>
      </trkpt>
      <trkpt lat="45.24403" lon="6.03535">
        <ele>2263.4541015625</ele>
        <time>2017-11-17T09:36:16Z</time>
      </trkpt>
      <trkpt lat="45.24407" lon="6.03545">
        <ele>2258.4541015625</ele>
        <time>2017-11-17T09:36:18Z</time>
      </trkpt>
      <trkpt lat="45.24412" lon="6.03558">
        <ele>2252.4541015625</ele>
        <time>2017-11-17T09:36:20Z</time>
      </trkpt>
      <trkpt lat="45.24421" lon="6.03569">
        <ele>2248.4541015625</ele>
        <time>2017-11-17T09:36:22Z</time>
      </trkpt>
      <trkpt lat="45.24427" lon="6.03586">
        <ele>2241.4541015625</ele>
        <time>2017-11-17T09:36:25Z</time>
      </trkpt>
      <trkpt lat="45.24433" lon="6.03599">
        <ele>2235.4541015625</ele>
        <time>2017-11-17T09:36:27Z</time>
      </trkpt>
      <trkpt lat="45.24444" lon="6.03618">
        <ele>2230.4541015625</ele>
        <time>2017-11-17T09:36:29Z</time>
      </trkpt>
      <trkpt lat="45.24445" lon="6.0363">
        <ele>2227.4541015625</ele>
        <time>2017-11-17T09:36:30Z</time>
      </trkpt>
      <trkpt lat="45.2444" lon="6.03642">
        <ele>2220.4541015625</ele>
        <time>2017-11-17T09:36:31Z</time>
      </trkpt>
      <trkpt lat="45.24439" lon="6.0365">
        <ele>2218.4541015625</ele>
        <time>2017-11-17T09:36:32Z</time>
      </trkpt>
      <trkpt lat="45.24438" lon="6.03658">
        <ele>2217.4541015625</ele>
        <time>2017-11-17T09:36:33Z</time>
      </trkpt>
      <trkpt lat="45.24441" lon="6.03672">
        <ele>2213.4541015625</ele>
        <time>2017-11-17T09:36:35Z</time>
      </trkpt>
      <trkpt lat="45.24449" lon="6.03683">
        <ele>2210.4541015625</ele>
        <time>2017-11-17T09:36:37Z</time>
      </trkpt>
      <trkpt lat="45.24461" lon="6.03698">
        <ele>2209.4541015625</ele>
        <time>2017-11-17T09:36:39Z</time>
      </trkpt>
      <trkpt lat="45.2447" lon="6.03722">
        <ele>2206.4541015625</ele>
        <time>2017-11-17T09:36:42Z</time>
      </trkpt>
      <trkpt lat="45.24468" lon="6.03729">
        <ele>2206.4541015625</ele>
        <time>2017-11-17T09:36:43Z</time>
      </trkpt>
      <trkpt lat="45.24469" lon="6.03745">
        <ele>2202.4541015625</ele>
        <time>2017-11-17T09:36:45Z</time>
      </trkpt>
      <trkpt lat="45.24469" lon="6.03754">
        <ele>2199.4541015625</ele>
        <time>2017-11-17T09:36:47Z</time>
      </trkpt>
      <trkpt lat="45.24464" lon="6.03753">
        <ele>2189.4541015625</ele>
        <time>2017-11-17T09:36:51Z</time>
      </trkpt>
      <trkpt lat="45.24472" lon="6.0376">
        <ele>2180.4541015625</ele>
        <time>2017-11-17T09:36:57Z</time>
      </trkpt>
      <trkpt lat="45.24481" lon="6.03768">
        <ele>2173.4541015625</ele>
        <time>2017-11-17T09:37:00Z</time>
      </trkpt>
      <trkpt lat="45.2449" lon="6.03774">
        <ele>2170.4541015625</ele>
        <time>2017-11-17T09:37:02Z</time>
      </trkpt>
      <trkpt lat="45.24504" lon="6.03781">
        <ele>2166.4541015625</ele>
        <time>2017-11-17T09:37:05Z</time>
      </trkpt>
      <trkpt lat="45.24508" lon="6.03784">
        <ele>2160.4541015625</ele>
        <time>2017-11-17T09:37:07Z</time>
      </trkpt>
      <trkpt lat="45.24508" lon="6.0379">
        <ele>2155.4541015625</ele>
        <time>2017-11-17T09:37:12Z</time>
      </trkpt>
      <trkpt lat="45.24508" lon="6.03796">
        <ele>2150.4541015625</ele>
        <time>2017-11-17T09:37:24Z</time>
      </trkpt>
      <trkpt lat="45.24511" lon="6.03801">
        <ele>2147.4541015625</ele>
        <time>2017-11-17T09:40:24Z</time>
      </trkpt>
      <trkpt lat="45.24506" lon="6.03801">
        <ele>2140.4541015625</ele>
        <time>2017-11-17T09:42:12Z</time>
      </trkpt>
      <trkpt lat="45.24502" lon="6.03798">
        <ele>2138.4541015625</ele>
        <time>2017-11-17T09:42:19Z</time>
      </trkpt>
      <trkpt lat="45.24497" lon="6.03794">
        <ele>2139.4541015625</ele>
        <time>2017-11-17T09:42:24Z</time>
      </trkpt>
      <trkpt lat="45.24494" lon="6.0379">
        <ele>2142.4541015625</ele>
        <time>2017-11-17T09:42:30Z</time>
      </trkpt>
      <trkpt lat="45.24492" lon="6.03783">
        <ele>2144.4541015625</ele>
        <time>2017-11-17T09:42:35Z</time>
      </trkpt>
      <trkpt lat="45.24492" lon="6.03776">
        <ele>2143.4541015625</ele>
        <time>2017-11-17T09:42:41Z</time>
      </trkpt>
      <trkpt lat="45.24486" lon="6.03776">
        <ele>2144.4541015625</ele>
        <time>2017-11-17T09:42:46Z</time>
      </trkpt>
      <trkpt lat="45.24482" lon="6.03772">
        <ele>2142.4541015625</ele>
        <time>2017-11-17T09:42:51Z</time>
      </trkpt>
      <trkpt lat="45.24479" lon="6.03767">
        <ele>2143.4541015625</ele>
        <time>2017-11-17T09:42:57Z</time>
      </trkpt>
      <trkpt lat="45.24473" lon="6.03766">
        <ele>2142.4541015625</ele>
        <time>2017-11-17T09:43:03Z</time>
      </trkpt>
      <trkpt lat="45.24473" lon="6.03758">
        <ele>2146.4541015625</ele>
        <time>2017-11-17T09:43:09Z</time>
      </trkpt>
      <trkpt lat="45.24467" lon="6.03757">
        <ele>2149.4541015625</ele>
        <time>2017-11-17T09:43:18Z</time>
      </trkpt>
      <trkpt lat="45.24462" lon="6.03757">
        <ele>2154.4541015625</ele>
        <time>2017-11-17T09:43:31Z</time>
      </trkpt>
      <trkpt lat="45.24457" lon="6.03761">
        <ele>2158.4541015625</ele>
        <time>2017-11-17T09:43:36Z</time>
      </trkpt>
      <trkpt lat="45.24451" lon="6.03763">
        <ele>2159.4541015625</ele>
        <time>2017-11-17T09:43:39Z</time>
      </trkpt>
      <trkpt lat="45.24445" lon="6.03763">
        <ele>2159.4541015625</ele>
        <time>2017-11-17T09:43:45Z</time>
      </trkpt>
      <trkpt lat="45.2444" lon="6.03763">
        <ele>2163.4541015625</ele>
        <time>2017-11-17T09:43:54Z</time>
      </trkpt>
      <trkpt lat="45.24434" lon="6.03764">
        <ele>2164.4541015625</ele>
        <time>2017-11-17T09:44:02Z</time>
      </trkpt>
      <trkpt lat="45.24428" lon="6.03765">
        <ele>2168.4541015625</ele>
        <time>2017-11-17T09:44:14Z</time>
      </trkpt>
      <trkpt lat="45.24424" lon="6.03767">
        <ele>2172.4541015625</ele>
        <time>2017-11-17T09:44:23Z</time>
      </trkpt>
      <trkpt lat="45.24421" lon="6.03763">
        <ele>2173.4541015625</ele>
        <time>2017-11-17T09:44:35Z</time>
      </trkpt>
      <trkpt lat="45.24415" lon="6.03762">
        <ele>2169.4541015625</ele>
        <time>2017-11-17T09:44:37Z</time>
      </trkpt>
      <trkpt lat="45.2441" lon="6.03758">
        <ele>2170.4541015625</ele>
        <time>2017-11-17T09:44:41Z</time>
      </trkpt>
      <trkpt lat="45.24409" lon="6.03751">
        <ele>2169.4541015625</ele>
        <time>2017-11-17T09:44:46Z</time>
      </trkpt>
      <trkpt lat="45.24407" lon="6.03743">
        <ele>2172.4541015625</ele>
        <time>2017-11-17T09:44:56Z</time>
      </trkpt>
      <trkpt lat="45.24405" lon="6.03735">
        <ele>2176.4541015625</ele>
        <time>2017-11-17T09:45:04Z</time>
      </trkpt>
      <trkpt lat="45.24401" lon="6.03729">
        <ele>2174.4541015625</ele>
        <time>2017-11-17T09:45:11Z</time>
      </trkpt>
      <trkpt lat="45.244" lon="6.03721">
        <ele>2177.4541015625</ele>
        <time>2017-11-17T09:45:20Z</time>
      </trkpt>
      <trkpt lat="45.24399" lon="6.03714">
        <ele>2182.4541015625</ele>
        <time>2017-11-17T09:45:29Z</time>
      </trkpt>
      <trkpt lat="45.24398" lon="6.03707">
        <ele>2183.4541015625</ele>
        <time>2017-11-17T09:45:32Z</time>
      </trkpt>
      <trkpt lat="45.24394" lon="6.03705">
        <ele>2182.4541015625</ele>
        <time>2017-11-17T09:45:37Z</time>
      </trkpt>
      <trkpt lat="45.24392" lon="6.03698">
        <ele>2182.4541015625</ele>
        <time>2017-11-17T09:45:51Z</time>
      </trkpt>
      <trkpt lat="45.24388" lon="6.03696">
        <ele>2179.4541015625</ele>
        <time>2017-11-17T09:46:00Z</time>
      </trkpt>
      <trkpt lat="45.24383" lon="6.03698">
        <ele>2182.4541015625</ele>
        <time>2017-11-17T09:46:08Z</time>
      </trkpt>
      <trkpt lat="45.24378" lon="6.037">
        <ele>2184.4541015625</ele>
        <time>2017-11-17T09:46:15Z</time>
      </trkpt>
      <trkpt lat="45.24375" lon="6.03705">
        <ele>2196.4541015625</ele>
        <time>2017-11-17T09:46:46Z</time>
      </trkpt>
      <trkpt lat="45.2437" lon="6.03708">
        <ele>2197.4541015625</ele>
        <time>2017-11-17T09:46:51Z</time>
      </trkpt>
      <trkpt lat="45.24367" lon="6.03712">
        <ele>2204.4541015625</ele>
        <time>2017-11-17T09:46:57Z</time>
      </trkpt>
      <trkpt lat="45.24362" lon="6.03716">
        <ele>2200.4541015625</ele>
        <time>2017-11-17T09:47:02Z</time>
      </trkpt>
      <trkpt lat="45.24359" lon="6.0371">
        <ele>2205.4541015625</ele>
        <time>2017-11-17T09:47:12Z</time>
      </trkpt>
      <trkpt lat="45.24358" lon="6.03702">
        <ele>2209.4541015625</ele>
        <time>2017-11-17T09:47:18Z</time>
      </trkpt>
      <trkpt lat="45.24354" lon="6.03699">
        <ele>2203.4541015625</ele>
        <time>2017-11-17T09:47:28Z</time>
      </trkpt>
      <trkpt lat="45.24349" lon="6.03702">
        <ele>2200.4541015625</ele>
        <time>2017-11-17T09:47:32Z</time>
      </trkpt>
      <trkpt lat="45.24348" lon="6.03695">
        <ele>2201.4541015625</ele>
        <time>2017-11-17T09:47:36Z</time>
      </trkpt>
      <trkpt lat="45.24345" lon="6.0369">
        <ele>2203.4541015625</ele>
        <time>2017-11-17T09:47:46Z</time>
      </trkpt>
      <trkpt lat="45.24343" lon="6.03683">
        <ele>2206.4541015625</ele>
        <time>2017-11-17T09:47:53Z</time>
      </trkpt>
      <trkpt lat="45.24341" lon="6.03676">
        <ele>2208.4541015625</ele>
        <time>2017-11-17T09:48:00Z</time>
      </trkpt>
      <trkpt lat="45.24336" lon="6.0368">
        <ele>2212.4541015625</ele>
        <time>2017-11-17T09:48:14Z</time>
      </trkpt>
      <trkpt lat="45.24334" lon="6.03685">
        <ele>2216.4541015625</ele>
        <time>2017-11-17T09:48:21Z</time>
      </trkpt>
      <trkpt lat="45.24332" lon="6.03691">
        <ele>2224.4541015625</ele>
        <time>2017-11-17T09:48:40Z</time>
      </trkpt>
      <trkpt lat="45.24328" lon="6.03696">
        <ele>2225.4541015625</ele>
        <time>2017-11-17T09:48:46Z</time>
      </trkpt>
      <trkpt lat="45.24326" lon="6.03701">
        <ele>2232.4541015625</ele>
        <time>2017-11-17T09:48:54Z</time>
      </trkpt>
      <trkpt lat="45.24321" lon="6.03705">
        <ele>2233.4541015625</ele>
        <time>2017-11-17T09:48:59Z</time>
      </trkpt>
      <trkpt lat="45.24318" lon="6.03701">
        <ele>2230.4541015625</ele>
        <time>2017-11-17T09:49:07Z</time>
      </trkpt>
      <trkpt lat="45.24314" lon="6.03705">
        <ele>2233.4541015625</ele>
        <time>2017-11-17T09:49:23Z</time>
      </trkpt>
      <trkpt lat="45.2431" lon="6.0371">
        <ele>2233.4541015625</ele>
        <time>2017-11-17T09:49:27Z</time>
      </trkpt>
      <trkpt lat="45.24309" lon="6.03701">
        <ele>2231.4541015625</ele>
        <time>2017-11-17T09:49:43Z</time>
      </trkpt>
      <trkpt lat="45.24306" lon="6.03695">
        <ele>2230.4541015625</ele>
        <time>2017-11-17T09:49:49Z</time>
      </trkpt>
      <trkpt lat="45.24305" lon="6.03688">
        <ele>2230.4541015625</ele>
        <time>2017-11-17T09:49:56Z</time>
      </trkpt>
      <trkpt lat="45.24306" lon="6.03681">
        <ele>2236.4541015625</ele>
        <time>2017-11-17T09:50:02Z</time>
      </trkpt>
      <trkpt lat="45.24304" lon="6.03673">
        <ele>2235.4541015625</ele>
        <time>2017-11-17T09:50:08Z</time>
      </trkpt>
      <trkpt lat="45.24304" lon="6.03666">
        <ele>2238.4541015625</ele>
        <time>2017-11-17T09:50:13Z</time>
      </trkpt>
      <trkpt lat="45.24299" lon="6.0367">
        <ele>2234.4541015625</ele>
        <time>2017-11-17T09:50:25Z</time>
      </trkpt>
      <trkpt lat="45.24296" lon="6.03676">
        <ele>2238.4541015625</ele>
        <time>2017-11-17T09:50:47Z</time>
      </trkpt>
      <trkpt lat="45.24294" lon="6.03682">
        <ele>2242.4541015625</ele>
        <time>2017-11-17T09:50:54Z</time>
      </trkpt>
      <trkpt lat="45.24293" lon="6.03689">
        <ele>2248.4541015625</ele>
        <time>2017-11-17T09:51:00Z</time>
      </trkpt>
      <trkpt lat="45.24288" lon="6.03693">
        <ele>2253.4541015625</ele>
        <time>2017-11-17T09:51:15Z</time>
      </trkpt>
      <trkpt lat="45.24287" lon="6.03686">
        <ele>2252.4541015625</ele>
        <time>2017-11-17T09:51:19Z</time>
      </trkpt>
      <trkpt lat="45.24284" lon="6.0368">
        <ele>2249.4541015625</ele>
        <time>2017-11-17T09:51:25Z</time>
      </trkpt>
      <trkpt lat="45.24283" lon="6.03672">
        <ele>2251.4541015625</ele>
        <time>2017-11-17T09:51:43Z</time>
      </trkpt>
      <trkpt lat="45.24282" lon="6.03665">
        <ele>2250.4541015625</ele>
        <time>2017-11-17T09:51:50Z</time>
      </trkpt>
      <trkpt lat="45.24282" lon="6.03658">
        <ele>2254.4541015625</ele>
        <time>2017-11-17T09:51:56Z</time>
      </trkpt>
      <trkpt lat="45.24282" lon="6.03652">
        <ele>2257.4541015625</ele>
        <time>2017-11-17T09:52:00Z</time>
      </trkpt>
      <trkpt lat="45.2428" lon="6.03646">
        <ele>2258.4541015625</ele>
        <time>2017-11-17T09:52:08Z</time>
      </trkpt>
      <trkpt lat="45.24276" lon="6.03643">
        <ele>2271.4541015625</ele>
        <time>2017-11-17T09:52:51Z</time>
      </trkpt>
      <trkpt lat="45.2427" lon="6.03641">
        <ele>2271.4541015625</ele>
        <time>2017-11-17T09:52:58Z</time>
      </trkpt>
      <trkpt lat="45.24266" lon="6.03639">
        <ele>2270.4541015625</ele>
        <time>2017-11-17T09:53:12Z</time>
      </trkpt>
      <trkpt lat="45.24265" lon="6.03632">
        <ele>2272.4541015625</ele>
        <time>2017-11-17T09:53:20Z</time>
      </trkpt>
      <trkpt lat="45.2426" lon="6.03629">
        <ele>2278.4541015625</ele>
        <time>2017-11-17T09:53:37Z</time>
      </trkpt>
      <trkpt lat="45.24255" lon="6.03633">
        <ele>2276.4541015625</ele>
        <time>2017-11-17T09:53:41Z</time>
      </trkpt>
      <trkpt lat="45.24251" lon="6.03638">
        <ele>2279.4541015625</ele>
        <time>2017-11-17T09:53:47Z</time>
      </trkpt>
      <trkpt lat="45.24248" lon="6.03642">
        <ele>2276.4541015625</ele>
        <time>2017-11-17T09:54:04Z</time>
      </trkpt>
      <trkpt lat="45.24242" lon="6.03642">
        <ele>2276.4541015625</ele>
        <time>2017-11-17T09:54:22Z</time>
      </trkpt>
      <trkpt lat="45.2424" lon="6.03635">
        <ele>2284.4528808594</ele>
        <time>2017-11-17T09:54:33Z</time>
      </trkpt>
      <trkpt lat="45.24238" lon="6.03629">
        <ele>2284.4528808594</ele>
        <time>2017-11-17T09:54:40Z</time>
      </trkpt>
      <trkpt lat="45.24239" lon="6.03622">
        <ele>2290.4528808594</ele>
        <time>2017-11-17T09:54:53Z</time>
      </trkpt>
      <trkpt lat="45.24238" lon="6.03615">
        <ele>2290.4528808594</ele>
        <time>2017-11-17T09:54:58Z</time>
      </trkpt>
      <trkpt lat="45.24237" lon="6.03609">
        <ele>2292.4528808594</ele>
        <time>2017-11-17T09:55:03Z</time>
      </trkpt>
      <trkpt lat="45.24237" lon="6.03603">
        <ele>2296.4528808594</ele>
        <time>2017-11-17T09:55:11Z</time>
      </trkpt>
      <trkpt lat="45.24238" lon="6.03595">
        <ele>2295.4528808594</ele>
        <time>2017-11-17T09:55:18Z</time>
      </trkpt>
      <trkpt lat="45.24239" lon="6.03588">
        <ele>2298.4528808594</ele>
        <time>2017-11-17T09:55:27Z</time>
      </trkpt>
      <trkpt lat="45.24235" lon="6.03593">
        <ele>2298.4528808594</ele>
        <time>2017-11-17T09:55:53Z</time>
      </trkpt>
      <trkpt lat="45.24231" lon="6.03598">
        <ele>2297.4528808594</ele>
        <time>2017-11-17T09:55:57Z</time>
      </trkpt>
      <trkpt lat="45.24226" lon="6.03603">
        <ele>2302.4528808594</ele>
        <time>2017-11-17T09:56:09Z</time>
      </trkpt>
      <trkpt lat="45.24223" lon="6.03611">
        <ele>2311.4528808594</ele>
        <time>2017-11-17T09:56:16Z</time>
      </trkpt>
      <trkpt lat="45.2422" lon="6.03617">
        <ele>2313.4528808594</ele>
        <time>2017-11-17T09:56:23Z</time>
      </trkpt>
      <trkpt lat="45.24216" lon="6.03614">
        <ele>2314.4528808594</ele>
        <time>2017-11-17T09:56:36Z</time>
      </trkpt>
      <trkpt lat="45.2421" lon="6.03615">
        <ele>2317.4528808594</ele>
        <time>2017-11-17T09:56:40Z</time>
      </trkpt>
      <trkpt lat="45.24206" lon="6.03613">
        <ele>2316.4528808594</ele>
        <time>2017-11-17T09:56:45Z</time>
      </trkpt>
      <trkpt lat="45.24204" lon="6.03607">
        <ele>2315.4528808594</ele>
        <time>2017-11-17T09:56:52Z</time>
      </trkpt>
      <trkpt lat="45.24201" lon="6.03602">
        <ele>2315.4528808594</ele>
        <time>2017-11-17T09:56:59Z</time>
      </trkpt>
      <trkpt lat="45.242" lon="6.03596">
        <ele>2318.4528808594</ele>
        <time>2017-11-17T09:57:15Z</time>
      </trkpt>
      <trkpt lat="45.24201" lon="6.03588">
        <ele>2323.4528808594</ele>
        <time>2017-11-17T09:57:38Z</time>
      </trkpt>
      <trkpt lat="45.24196" lon="6.0359">
        <ele>2325.4528808594</ele>
        <time>2017-11-17T09:57:49Z</time>
      </trkpt>
      <trkpt lat="45.24194" lon="6.03597">
        <ele>2327.4528808594</ele>
        <time>2017-11-17T09:57:55Z</time>
      </trkpt>
      <trkpt lat="45.2419" lon="6.03602">
        <ele>2331.4528808594</ele>
        <time>2017-11-17T09:58:02Z</time>
      </trkpt>
      <trkpt lat="45.24186" lon="6.03605">
        <ele>2332.4528808594</ele>
        <time>2017-11-17T09:58:05Z</time>
      </trkpt>
      <trkpt lat="45.24183" lon="6.03611">
        <ele>2334.4528808594</ele>
        <time>2017-11-17T09:58:12Z</time>
      </trkpt>
      <trkpt lat="45.2418" lon="6.03617">
        <ele>2336.4528808594</ele>
        <time>2017-11-17T09:58:20Z</time>
      </trkpt>
      <trkpt lat="45.24176" lon="6.03622">
        <ele>2334.4528808594</ele>
        <time>2017-11-17T09:58:27Z</time>
      </trkpt>
      <trkpt lat="45.24176" lon="6.03614">
        <ele>2336.4528808594</ele>
        <time>2017-11-17T09:58:34Z</time>
      </trkpt>
      <trkpt lat="45.24175" lon="6.03606">
        <ele>2336.4528808594</ele>
        <time>2017-11-17T09:58:39Z</time>
      </trkpt>
      <trkpt lat="45.24177" lon="6.036">
        <ele>2340.4528808594</ele>
        <time>2017-11-17T09:59:16Z</time>
      </trkpt>
      <trkpt lat="45.24172" lon="6.03604">
        <ele>2345.4528808594</ele>
        <time>2017-11-17T09:59:30Z</time>
      </trkpt>
      <trkpt lat="45.24168" lon="6.03606">
        <ele>2343.4528808594</ele>
        <time>2017-11-17T09:59:34Z</time>
      </trkpt>
      <trkpt lat="45.24164" lon="6.03611">
        <ele>2347.4528808594</ele>
        <time>2017-11-17T09:59:41Z</time>
      </trkpt>
      <trkpt lat="45.24161" lon="6.03617">
        <ele>2347.4528808594</ele>
        <time>2017-11-17T09:59:48Z</time>
      </trkpt>
      <trkpt lat="45.24159" lon="6.03623">
        <ele>2350.4528808594</ele>
        <time>2017-11-17T09:59:59Z</time>
      </trkpt>
      <trkpt lat="45.24157" lon="6.03629">
        <ele>2353.4528808594</ele>
        <time>2017-11-17T10:00:09Z</time>
      </trkpt>
      <trkpt lat="45.24155" lon="6.03637">
        <ele>2355.4528808594</ele>
        <time>2017-11-17T10:00:31Z</time>
      </trkpt>
      <trkpt lat="45.24152" lon="6.03642">
        <ele>2358.4528808594</ele>
        <time>2017-11-17T10:00:36Z</time>
      </trkpt>
      <trkpt lat="45.24147" lon="6.03647">
        <ele>2357.4528808594</ele>
        <time>2017-11-17T10:01:22Z</time>
      </trkpt>
      <trkpt lat="45.24144" lon="6.03652">
        <ele>2360.4528808594</ele>
        <time>2017-11-17T10:01:43Z</time>
      </trkpt>
      <trkpt lat="45.24141" lon="6.03658">
        <ele>2360.4528808594</ele>
        <time>2017-11-17T10:01:51Z</time>
      </trkpt>
      <trkpt lat="45.24138" lon="6.03664">
        <ele>2360.4528808594</ele>
        <time>2017-11-17T10:02:00Z</time>
      </trkpt>
      <trkpt lat="45.24133" lon="6.03667">
        <ele>2367.4528808594</ele>
        <time>2017-11-17T10:02:38Z</time>
      </trkpt>
      <trkpt lat="45.24131" lon="6.03661">
        <ele>2368.4528808594</ele>
        <time>2017-11-17T10:02:46Z</time>
      </trkpt>
      <trkpt lat="45.24126" lon="6.03662">
        <ele>2372.4528808594</ele>
        <time>2017-11-17T10:03:10Z</time>
      </trkpt>
      <trkpt lat="45.24123" lon="6.03668">
        <ele>2375.4528808594</ele>
        <time>2017-11-17T10:03:32Z</time>
      </trkpt>
      <trkpt lat="45.24121" lon="6.03675">
        <ele>2375.4528808594</ele>
        <time>2017-11-17T10:03:41Z</time>
      </trkpt>
      <trkpt lat="45.24119" lon="6.0368">
        <ele>2380.4528808594</ele>
        <time>2017-11-17T10:04:06Z</time>
      </trkpt>
      <trkpt lat="45.24117" lon="6.03686">
        <ele>2388.4528808594</ele>
        <time>2017-11-17T10:04:38Z</time>
      </trkpt>
      <trkpt lat="45.24114" lon="6.03691">
        <ele>2387.4528808594</ele>
        <time>2017-11-17T10:04:47Z</time>
      </trkpt>
      <trkpt lat="45.24113" lon="6.03699">
        <ele>2391.4528808594</ele>
        <time>2017-11-17T10:05:23Z</time>
      </trkpt>
      <trkpt lat="45.2411" lon="6.03704">
        <ele>2390.4528808594</ele>
        <time>2017-11-17T10:05:37Z</time>
      </trkpt>
      <trkpt lat="45.24105" lon="6.03704">
        <ele>2391.4528808594</ele>
        <time>2017-11-17T10:06:09Z</time>
      </trkpt>
      <trkpt lat="45.241" lon="6.03707">
        <ele>2398.4528808594</ele>
        <time>2017-11-17T10:06:37Z</time>
      </trkpt>
      <trkpt lat="45.24096" lon="6.03712">
        <ele>2397.4528808594</ele>
        <time>2017-11-17T10:06:43Z</time>
      </trkpt>
      <trkpt lat="45.24093" lon="6.03716">
        <ele>2400.4528808594</ele>
        <time>2017-11-17T10:06:55Z</time>
      </trkpt>
      <trkpt lat="45.24091" lon="6.03722">
        <ele>2400.4528808594</ele>
        <time>2017-11-17T10:07:24Z</time>
      </trkpt>
      <trkpt lat="45.24089" lon="6.03729">
        <ele>2409.4528808594</ele>
        <time>2017-11-17T10:07:35Z</time>
      </trkpt>
      <trkpt lat="45.24085" lon="6.03732">
        <ele>2423.4528808594</ele>
        <time>2017-11-17T10:08:38Z</time>
      </trkpt>
      <trkpt lat="45.2408" lon="6.03736">
        <ele>2426.4528808594</ele>
        <time>2017-11-17T10:09:15Z</time>
      </trkpt>
      <trkpt lat="45.24077" lon="6.03742">
        <ele>2425.4528808594</ele>
        <time>2017-11-17T10:09:22Z</time>
      </trkpt>
      <trkpt lat="45.24079" lon="6.03748">
        <ele>2431.4528808594</ele>
        <time>2017-11-17T10:09:40Z</time>
      </trkpt>
      <trkpt lat="45.24077" lon="6.03754">
        <ele>2431.4528808594</ele>
        <time>2017-11-17T10:09:47Z</time>
      </trkpt>
      <trkpt lat="45.24075" lon="6.03762">
        <ele>2432.4528808594</ele>
        <time>2017-11-17T10:09:51Z</time>
      </trkpt>
      <trkpt lat="45.24079" lon="6.03766">
        <ele>2433.4528808594</ele>
        <time>2017-11-17T10:09:55Z</time>
      </trkpt>
      <trkpt lat="45.24079" lon="6.03773">
        <ele>2435.4528808594</ele>
        <time>2017-11-17T10:10:01Z</time>
      </trkpt>
      <trkpt lat="45.24081" lon="6.03779">
        <ele>2439.4528808594</ele>
        <time>2017-11-17T10:10:37Z</time>
      </trkpt>
      <trkpt lat="45.24086" lon="6.03784">
        <ele>2438.4528808594</ele>
        <time>2017-11-17T10:10:43Z</time>
      </trkpt>
      <trkpt lat="45.24086" lon="6.03791">
        <ele>2431.4528808594</ele>
        <time>2017-11-17T10:10:57Z</time>
      </trkpt>
      <trkpt lat="45.2409" lon="6.03795">
        <ele>2435.4528808594</ele>
        <time>2017-11-17T10:11:01Z</time>
      </trkpt>
      <trkpt lat="45.24092" lon="6.03801">
        <ele>2435.4528808594</ele>
        <time>2017-11-17T10:11:05Z</time>
      </trkpt>
      <trkpt lat="45.24091" lon="6.03807">
        <ele>2435.4528808594</ele>
        <time>2017-11-17T10:11:10Z</time>
      </trkpt>
      <trkpt lat="45.24088" lon="6.03813">
        <ele>2433.4528808594</ele>
        <time>2017-11-17T10:11:19Z</time>
      </trkpt>
      <trkpt lat="45.24085" lon="6.03817">
        <ele>2432.4528808594</ele>
        <time>2017-11-17T10:11:22Z</time>
      </trkpt>
      <trkpt lat="45.24082" lon="6.03825">
        <ele>2433.4528808594</ele>
        <time>2017-11-17T10:11:29Z</time>
      </trkpt>
      <trkpt lat="45.24079" lon="6.03831">
        <ele>2432.4528808594</ele>
        <time>2017-11-17T10:11:33Z</time>
      </trkpt>
      <trkpt lat="45.24077" lon="6.03836">
        <ele>2433.4528808594</ele>
        <time>2017-11-17T10:11:42Z</time>
      </trkpt>
      <trkpt lat="45.24076" lon="6.03851">
        <ele>2435.4528808594</ele>
        <time>2017-11-17T10:11:45Z</time>
      </trkpt>
      <trkpt lat="45.2407" lon="6.03859">
        <ele>2432.4528808594</ele>
        <time>2017-11-17T10:11:46Z</time>
      </trkpt>
      <trkpt lat="45.24069" lon="6.03867">
        <ele>2433.4528808594</ele>
        <time>2017-11-17T10:11:49Z</time>
      </trkpt>
      <trkpt lat="45.24068" lon="6.03873">
        <ele>2435.4528808594</ele>
        <time>2017-11-17T10:11:56Z</time>
      </trkpt>
      <trkpt lat="45.24063" lon="6.03875">
        <ele>2434.4528808594</ele>
        <time>2017-11-17T10:11:59Z</time>
      </trkpt>
      <trkpt lat="45.24062" lon="6.03882">
        <ele>2432.4528808594</ele>
        <time>2017-11-17T10:13:11Z</time>
      </trkpt>
      <trkpt lat="45.24062" lon="6.03889">
        <ele>2434.4528808594</ele>
        <time>2017-11-17T10:13:20Z</time>
      </trkpt>
      <trkpt lat="45.24058" lon="6.03893">
        <ele>2434.4528808594</ele>
        <time>2017-11-17T10:13:23Z</time>
      </trkpt>
      <trkpt lat="45.24054" lon="6.03899">
        <ele>2430.4528808594</ele>
        <time>2017-11-17T10:13:27Z</time>
      </trkpt>
      <trkpt lat="45.24051" lon="6.03906">
        <ele>2433.4528808594</ele>
        <time>2017-11-17T10:13:58Z</time>
      </trkpt>
      <trkpt lat="45.2405" lon="6.03912">
        <ele>2436.4541015625</ele>
        <time>2017-11-17T10:14:46Z</time>
      </trkpt>
      <trkpt lat="45.24045" lon="6.03911">
        <ele>2435.4528808594</ele>
        <time>2017-11-17T10:15:06Z</time>
      </trkpt>
      <trkpt lat="45.24042" lon="6.03906">
        <ele>2439.4528808594</ele>
        <time>2017-11-17T10:15:39Z</time>
      </trkpt>
      <trkpt lat="45.2404" lon="6.03912">
        <ele>2441.4528808594</ele>
        <time>2017-11-17T10:16:05Z</time>
      </trkpt>
      <trkpt lat="45.24036" lon="6.03909">
        <ele>2449.4528808594</ele>
        <time>2017-11-17T10:16:40Z</time>
      </trkpt>
      <trkpt lat="45.24031" lon="6.03912">
        <ele>2456.4528808594</ele>
        <time>2017-11-17T10:17:17Z</time>
      </trkpt>
      <trkpt lat="45.2403" lon="6.03918">
        <ele>2458.4528808594</ele>
        <time>2017-11-17T10:17:52Z</time>
      </trkpt>
      <trkpt lat="45.24026" lon="6.03922">
        <ele>2455.4528808594</ele>
        <time>2017-11-17T10:17:55Z</time>
      </trkpt>
      <trkpt lat="45.24023" lon="6.03927">
        <ele>2456.4528808594</ele>
        <time>2017-11-17T10:17:59Z</time>
      </trkpt>
      <trkpt lat="45.24021" lon="6.03933">
        <ele>2456.4528808594</ele>
        <time>2017-11-17T10:18:03Z</time>
      </trkpt>
      <trkpt lat="45.24016" lon="6.03936">
        <ele>2457.4528808594</ele>
        <time>2017-11-17T10:18:09Z</time>
      </trkpt>
      <trkpt lat="45.24014" lon="6.03941">
        <ele>2460.4528808594</ele>
        <time>2017-11-17T10:18:24Z</time>
      </trkpt>
      <trkpt lat="45.2401" lon="6.03946">
        <ele>2459.4528808594</ele>
        <time>2017-11-17T10:18:35Z</time>
      </trkpt>
      <trkpt lat="45.24009" lon="6.03953">
        <ele>2462.4528808594</ele>
        <time>2017-11-17T10:18:44Z</time>
      </trkpt>
      <trkpt lat="45.2401" lon="6.0396">
        <ele>2468.4528808594</ele>
        <time>2017-11-17T10:19:00Z</time>
      </trkpt>
      <trkpt lat="45.24008" lon="6.03966">
        <ele>2468.4528808594</ele>
        <time>2017-11-17T10:19:13Z</time>
      </trkpt>
      <trkpt lat="45.24006" lon="6.03972">
        <ele>2468.4528808594</ele>
        <time>2017-11-17T10:19:22Z</time>
      </trkpt>
      <trkpt lat="45.24003" lon="6.03978">
        <ele>2471.4528808594</ele>
        <time>2017-11-17T10:19:29Z</time>
      </trkpt>
      <trkpt lat="45.24003" lon="6.03985">
        <ele>2476.4541015625</ele>
        <time>2017-11-17T10:19:40Z</time>
      </trkpt>
      <trkpt lat="45.23997" lon="6.03985">
        <ele>2480.4528808594</ele>
        <time>2017-11-17T10:20:26Z</time>
      </trkpt>
      <trkpt lat="45.23992" lon="6.03984">
        <ele>2479.4528808594</ele>
        <time>2017-11-17T10:20:29Z</time>
      </trkpt>
      <trkpt lat="45.23989" lon="6.03989">
        <ele>2487.4528808594</ele>
        <time>2017-11-17T10:21:28Z</time>
      </trkpt>
      <trkpt lat="45.23986" lon="6.03995">
        <ele>2487.4528808594</ele>
        <time>2017-11-17T10:21:44Z</time>
      </trkpt>
      <trkpt lat="45.23983" lon="6.04">
        <ele>2484.4528808594</ele>
        <time>2017-11-17T10:21:58Z</time>
      </trkpt>
      <trkpt lat="45.23981" lon="6.04006">
        <ele>2487.4528808594</ele>
        <time>2017-11-17T10:22:03Z</time>
      </trkpt>
      <trkpt lat="45.23981" lon="6.04014">
        <ele>2490.4541015625</ele>
        <time>2017-11-17T10:22:16Z</time>
      </trkpt>
      <trkpt lat="45.23981" lon="6.04022">
        <ele>2498.4541015625</ele>
        <time>2017-11-17T10:22:27Z</time>
      </trkpt>
      <trkpt lat="45.23982" lon="6.04028">
        <ele>2500.4541015625</ele>
        <time>2017-11-17T10:22:42Z</time>
      </trkpt>
      <trkpt lat="45.23978" lon="6.04032">
        <ele>2499.4541015625</ele>
        <time>2017-11-17T10:22:48Z</time>
      </trkpt>
      <trkpt lat="45.2398" lon="6.04039">
        <ele>2504.4541015625</ele>
        <time>2017-11-17T10:23:21Z</time>
      </trkpt>
      <trkpt lat="45.23976" lon="6.04046">
        <ele>2504.4541015625</ele>
        <time>2017-11-17T10:23:28Z</time>
      </trkpt>
      <trkpt lat="45.23975" lon="6.04052">
        <ele>2504.4541015625</ele>
        <time>2017-11-17T10:23:42Z</time>
      </trkpt>
      <trkpt lat="45.23973" lon="6.04058">
        <ele>2505.4541015625</ele>
        <time>2017-11-17T10:23:49Z</time>
      </trkpt>
      <trkpt lat="45.23974" lon="6.04064">
        <ele>2508.4541015625</ele>
        <time>2017-11-17T10:23:57Z</time>
      </trkpt>
      <trkpt lat="45.23975" lon="6.04071">
        <ele>2512.4541015625</ele>
        <time>2017-11-17T10:24:31Z</time>
      </trkpt>
      <trkpt lat="45.23971" lon="6.04074">
        <ele>2517.4541015625</ele>
        <time>2017-11-17T10:25:04Z</time>
      </trkpt>
      <trkpt lat="45.23966" lon="6.04077">
        <ele>2528.4541015625</ele>
        <time>2017-11-17T10:27:02Z</time>
      </trkpt>
      <trkpt lat="45.23962" lon="6.04075">
        <ele>2538.4541015625</ele>
        <time>2017-11-17T10:27:57Z</time>
      </trkpt>
      <trkpt lat="45.23956" lon="6.04073">
        <ele>2548.4541015625</ele>
        <time>2017-11-17T10:29:20Z</time>
      </trkpt>
      <trkpt lat="45.23952" lon="6.04076">
        <ele>2548.4541015625</ele>
        <time>2017-11-17T10:29:28Z</time>
      </trkpt>
      <trkpt lat="45.23947" lon="6.04076">
        <ele>2546.4541015625</ele>
        <time>2017-11-17T10:30:09Z</time>
      </trkpt>
      <trkpt lat="45.23942" lon="6.04077">
        <ele>2549.4541015625</ele>
        <time>2017-11-17T10:30:24Z</time>
      </trkpt>
      <trkpt lat="45.23937" lon="6.04082">
        <ele>2551.4541015625</ele>
        <time>2017-11-17T10:31:10Z</time>
      </trkpt>
      <trkpt lat="45.23933" lon="6.04082">
        <ele>2553.4541015625</ele>
        <time>2017-11-17T10:31:35Z</time>
      </trkpt>
      <trkpt lat="45.23929" lon="6.04078">
        <ele>2561.4528808594</ele>
        <time>2017-11-17T10:32:19Z</time>
      </trkpt>
      <trkpt lat="45.23927" lon="6.04083">
        <ele>2562.4528808594</ele>
        <time>2017-11-17T10:33:09Z</time>
      </trkpt>
      <trkpt lat="45.23926" lon="6.0409">
        <ele>2565.4528808594</ele>
        <time>2017-11-17T10:33:48Z</time>
      </trkpt>
      <trkpt lat="45.23921" lon="6.04089">
        <ele>2564.4528808594</ele>
        <time>2017-11-17T10:34:01Z</time>
      </trkpt>
      <trkpt lat="45.23916" lon="6.04084">
        <ele>2565.4528808594</ele>
        <time>2017-11-17T10:34:38Z</time>
      </trkpt>
      <trkpt lat="45.23913" lon="6.0408">
        <ele>2571.4528808594</ele>
        <time>2017-11-17T10:35:10Z</time>
      </trkpt>
      <trkpt lat="45.23907" lon="6.04079">
        <ele>2569.4528808594</ele>
        <time>2017-11-17T10:35:28Z</time>
      </trkpt>
      <trkpt lat="45.23907" lon="6.04086">
        <ele>2579.4528808594</ele>
        <time>2017-11-17T10:38:55Z</time>
      </trkpt>
      <trkpt lat="45.23902" lon="6.04089">
        <ele>2583.4528808594</ele>
        <time>2017-11-17T10:40:46Z</time>
      </trkpt>
      <trkpt lat="45.23895" lon="6.04089">
        <ele>2580.4528808594</ele>
        <time>2017-11-17T10:40:54Z</time>
      </trkpt>
      <trkpt lat="45.2389" lon="6.04089">
        <ele>2583.4528808594</ele>
        <time>2017-11-17T10:41:07Z</time>
      </trkpt>
      <trkpt lat="45.23886" lon="6.04086">
        <ele>2582.4528808594</ele>
        <time>2017-11-17T10:41:18Z</time>
      </trkpt>
      <trkpt lat="45.23882" lon="6.04089">
        <ele>2579.4528808594</ele>
        <time>2017-11-17T10:41:33Z</time>
      </trkpt>
      <trkpt lat="45.23877" lon="6.04091">
        <ele>2579.4528808594</ele>
        <time>2017-11-17T10:42:07Z</time>
      </trkpt>
      <trkpt lat="45.23873" lon="6.0409">
        <ele>2580.4528808594</ele>
        <time>2017-11-17T10:42:13Z</time>
      </trkpt>
      <trkpt lat="45.23877" lon="6.0409">
        <ele>2594.4528808594</ele>
        <time>2017-11-17T10:43:22Z</time>
      </trkpt>
      <trkpt lat="45.23882" lon="6.04087">
        <ele>2607.4528808594</ele>
        <time>2017-11-17T10:43:53Z</time>
      </trkpt>
      <trkpt lat="45.23882" lon="6.0408">
        <ele>2613.4528808594</ele>
        <time>2017-11-17T10:44:13Z</time>
      </trkpt>
      <trkpt lat="45.23881" lon="6.04073">
        <ele>2613.4528808594</ele>
        <time>2017-11-17T10:44:35Z</time>
      </trkpt>
      <trkpt lat="45.23877" lon="6.04068">
        <ele>2613.4528808594</ele>
        <time>2017-11-17T10:45:02Z</time>
      </trkpt>
      <trkpt lat="45.23878" lon="6.04061">
        <ele>2615.4528808594</ele>
        <time>2017-11-17T10:46:45Z</time>
      </trkpt>
      <trkpt lat="45.2388" lon="6.04055">
        <ele>2620.4528808594</ele>
        <time>2017-11-17T10:48:33Z</time>
      </trkpt>
      <trkpt lat="45.23878" lon="6.0405">
        <ele>2626.4528808594</ele>
        <time>2017-11-17T10:49:28Z</time>
      </trkpt>
      <trkpt lat="45.23882" lon="6.04046">
        <ele>2631.4528808594</ele>
        <time>2017-11-17T10:49:46Z</time>
      </trkpt>
      <trkpt lat="45.23879" lon="6.04041">
        <ele>2630.4528808594</ele>
        <time>2017-11-17T10:57:57Z</time>
      </trkpt>
      <trkpt lat="45.23876" lon="6.04046">
        <ele>2621.4528808594</ele>
        <time>2017-11-17T11:00:04Z</time>
      </trkpt>
      <trkpt lat="45.23876" lon="6.04053">
        <ele>2617.4528808594</ele>
        <time>2017-11-17T11:00:58Z</time>
      </trkpt>
      <trkpt lat="45.23876" lon="6.0406">
        <ele>2615.4528808594</ele>
        <time>2017-11-17T11:01:21Z</time>
      </trkpt>
      <trkpt lat="45.2388" lon="6.04064">
        <ele>2616.4528808594</ele>
        <time>2017-11-17T11:06:05Z</time>
      </trkpt>
      <trkpt lat="45.23881" lon="6.04072">
        <ele>2615.4528808594</ele>
        <time>2017-11-17T11:06:10Z</time>
      </trkpt>
      <trkpt lat="45.23884" lon="6.04077">
        <ele>2614.4528808594</ele>
        <time>2017-11-17T11:06:17Z</time>
      </trkpt>
      <trkpt lat="45.23885" lon="6.04083">
        <ele>2615.4528808594</ele>
        <time>2017-11-17T11:06:24Z</time>
      </trkpt>
      <trkpt lat="45.23886" lon="6.04091">
        <ele>2610.4528808594</ele>
        <time>2017-11-17T11:07:42Z</time>
      </trkpt>
      <trkpt lat="45.2389" lon="6.04093">
        <ele>2605.4528808594</ele>
        <time>2017-11-17T11:08:41Z</time>
      </trkpt>
      <trkpt lat="45.23895" lon="6.04095">
        <ele>2601.4528808594</ele>
        <time>2017-11-17T11:09:13Z</time>
      </trkpt>
      <trkpt lat="45.23899" lon="6.04098">
        <ele>2600.4528808594</ele>
        <time>2017-11-17T11:09:21Z</time>
      </trkpt>
      <trkpt lat="45.23906" lon="6.04098">
        <ele>2600.4528808594</ele>
        <time>2017-11-17T11:12:02Z</time>
      </trkpt>
      <trkpt lat="45.23912" lon="6.04101">
        <ele>2596.4528808594</ele>
        <time>2017-11-17T11:12:06Z</time>
      </trkpt>
      <trkpt lat="45.23904" lon="6.041">
        <ele>2594.4528808594</ele>
        <time>2017-11-17T11:13:11Z</time>
      </trkpt>
      <trkpt lat="45.2391" lon="6.04097">
        <ele>2593.4528808594</ele>
        <time>2017-11-17T11:13:15Z</time>
      </trkpt>
      <trkpt lat="45.23915" lon="6.04099">
        <ele>2588.4528808594</ele>
        <time>2017-11-17T11:13:25Z</time>
      </trkpt>
      <trkpt lat="45.2392" lon="6.041">
        <ele>2588.4541015625</ele>
        <time>2017-11-17T11:13:28Z</time>
      </trkpt>
      <trkpt lat="45.23925" lon="6.04098">
        <ele>2586.4541015625</ele>
        <time>2017-11-17T11:13:30Z</time>
      </trkpt>
      <trkpt lat="45.23931" lon="6.04094">
        <ele>2581.4541015625</ele>
        <time>2017-11-17T11:13:33Z</time>
      </trkpt>
      <trkpt lat="45.23935" lon="6.0409">
        <ele>2574.4541015625</ele>
        <time>2017-11-17T11:13:36Z</time>
      </trkpt>
      <trkpt lat="45.23941" lon="6.04088">
        <ele>2570.4541015625</ele>
        <time>2017-11-17T11:13:38Z</time>
      </trkpt>
      <trkpt lat="45.23946" lon="6.04084">
        <ele>2565.4541015625</ele>
        <time>2017-11-17T11:13:40Z</time>
      </trkpt>
      <trkpt lat="45.23952" lon="6.04079">
        <ele>2561.4541015625</ele>
        <time>2017-11-17T11:13:42Z</time>
      </trkpt>
      <trkpt lat="45.23958" lon="6.04082">
        <ele>2556.4541015625</ele>
        <time>2017-11-17T11:13:44Z</time>
      </trkpt>
      <trkpt lat="45.23964" lon="6.04081">
        <ele>2554.4541015625</ele>
        <time>2017-11-17T11:13:46Z</time>
      </trkpt>
      <trkpt lat="45.23968" lon="6.04085">
        <ele>2547.4541015625</ele>
        <time>2017-11-17T11:13:58Z</time>
      </trkpt>
      <trkpt lat="45.23971" lon="6.0409">
        <ele>2544.4541015625</ele>
        <time>2017-11-17T11:14:00Z</time>
      </trkpt>
      <trkpt lat="45.23978" lon="6.04087">
        <ele>2537.4541015625</ele>
        <time>2017-11-17T11:14:02Z</time>
      </trkpt>
      <trkpt lat="45.23986" lon="6.04086">
        <ele>2535.4541015625</ele>
        <time>2017-11-17T11:14:04Z</time>
      </trkpt>
      <trkpt lat="45.23983" lon="6.04078">
        <ele>2529.4541015625</ele>
        <time>2017-11-17T11:14:05Z</time>
      </trkpt>
      <trkpt lat="45.2399" lon="6.04073">
        <ele>2527.4541015625</ele>
        <time>2017-11-17T11:14:07Z</time>
      </trkpt>
      <trkpt lat="45.23995" lon="6.04073">
        <ele>2522.4541015625</ele>
        <time>2017-11-17T11:14:20Z</time>
      </trkpt>
      <trkpt lat="45.24001" lon="6.04068">
        <ele>2517.4541015625</ele>
        <time>2017-11-17T11:14:22Z</time>
      </trkpt>
      <trkpt lat="45.24001" lon="6.0406">
        <ele>2513.4541015625</ele>
        <time>2017-11-17T11:14:25Z</time>
      </trkpt>
      <trkpt lat="45.24" lon="6.04053">
        <ele>2511.4541015625</ele>
        <time>2017-11-17T11:14:27Z</time>
      </trkpt>
      <trkpt lat="45.24" lon="6.04045">
        <ele>2510.4541015625</ele>
        <time>2017-11-17T11:14:29Z</time>
      </trkpt>
      <trkpt lat="45.24" lon="6.04036">
        <ele>2508.4541015625</ele>
        <time>2017-11-17T11:14:31Z</time>
      </trkpt>
      <trkpt lat="45.24005" lon="6.04036">
        <ele>2500.4541015625</ele>
        <time>2017-11-17T11:14:36Z</time>
      </trkpt>
      <trkpt lat="45.24012" lon="6.04034">
        <ele>2493.4541015625</ele>
        <time>2017-11-17T11:14:38Z</time>
      </trkpt>
      <trkpt lat="45.24018" lon="6.04028">
        <ele>2489.4541015625</ele>
        <time>2017-11-17T11:14:40Z</time>
      </trkpt>
      <trkpt lat="45.24031" lon="6.04025">
        <ele>2483.4541015625</ele>
        <time>2017-11-17T11:14:43Z</time>
      </trkpt>
      <trkpt lat="45.2404" lon="6.04029">
        <ele>2479.4541015625</ele>
        <time>2017-11-17T11:14:45Z</time>
      </trkpt>
      <trkpt lat="45.24051" lon="6.04017">
        <ele>2477.4541015625</ele>
        <time>2017-11-17T11:14:47Z</time>
      </trkpt>
      <trkpt lat="45.24065" lon="6.04016">
        <ele>2472.4541015625</ele>
        <time>2017-11-17T11:14:50Z</time>
      </trkpt>
      <trkpt lat="45.24063" lon="6.04023">
        <ele>2465.4541015625</ele>
        <time>2017-11-17T11:14:53Z</time>
      </trkpt>
      <trkpt lat="45.2407" lon="6.04025">
        <ele>2461.4541015625</ele>
        <time>2017-11-17T11:14:55Z</time>
      </trkpt>
      <trkpt lat="45.24076" lon="6.04016">
        <ele>2455.4541015625</ele>
        <time>2017-11-17T11:14:56Z</time>
      </trkpt>
      <trkpt lat="45.24079" lon="6.04">
        <ele>2455.4541015625</ele>
        <time>2017-11-17T11:14:58Z</time>
      </trkpt>
      <trkpt lat="45.24077" lon="6.03994">
        <ele>2452.4541015625</ele>
        <time>2017-11-17T11:14:59Z</time>
      </trkpt>
      <trkpt lat="45.24074" lon="6.03983">
        <ele>2447.4541015625</ele>
        <time>2017-11-17T11:15:01Z</time>
      </trkpt>
      <trkpt lat="45.24074" lon="6.03971">
        <ele>2443.4541015625</ele>
        <time>2017-11-17T11:15:03Z</time>
      </trkpt>
      <trkpt lat="45.24073" lon="6.03953">
        <ele>2439.4541015625</ele>
        <time>2017-11-17T11:15:05Z</time>
      </trkpt>
      <trkpt lat="45.24073" lon="6.03929">
        <ele>2434.4541015625</ele>
        <time>2017-11-17T11:15:08Z</time>
      </trkpt>
      <trkpt lat="45.24077" lon="6.03924">
        <ele>2433.4541015625</ele>
        <time>2017-11-17T11:15:10Z</time>
      </trkpt>
      <trkpt lat="45.24078" lon="6.03916">
        <ele>2432.4541015625</ele>
        <time>2017-11-17T11:15:12Z</time>
      </trkpt>
      <trkpt lat="45.24078" lon="6.03908">
        <ele>2430.4541015625</ele>
        <time>2017-11-17T11:15:16Z</time>
      </trkpt>
      <trkpt lat="45.24082" lon="6.03896">
        <ele>2430.4541015625</ele>
        <time>2017-11-17T11:15:18Z</time>
      </trkpt>
      <trkpt lat="45.24088" lon="6.0388">
        <ele>2429.4541015625</ele>
        <time>2017-11-17T11:15:21Z</time>
      </trkpt>
      <trkpt lat="45.24091" lon="6.03874">
        <ele>2429.4541015625</ele>
        <time>2017-11-17T11:15:25Z</time>
      </trkpt>
      <trkpt lat="45.24094" lon="6.03868">
        <ele>2429.4541015625</ele>
        <time>2017-11-17T11:15:58Z</time>
      </trkpt>
      <trkpt lat="45.24094" lon="6.03861">
        <ele>2431.4541015625</ele>
        <time>2017-11-17T11:16:41Z</time>
      </trkpt>
      <trkpt lat="45.24095" lon="6.03854">
        <ele>2430.4541015625</ele>
        <time>2017-11-17T11:16:57Z</time>
      </trkpt>
      <trkpt lat="45.24099" lon="6.0385">
        <ele>2432.4541015625</ele>
        <time>2017-11-17T11:17:03Z</time>
      </trkpt>
      <trkpt lat="45.24102" lon="6.03843">
        <ele>2431.4541015625</ele>
        <time>2017-11-17T11:17:16Z</time>
      </trkpt>
      <trkpt lat="45.24105" lon="6.03834">
        <ele>2434.4541015625</ele>
        <time>2017-11-17T11:17:42Z</time>
      </trkpt>
      <trkpt lat="45.24106" lon="6.03827">
        <ele>2433.4528808594</ele>
        <time>2017-11-17T11:17:45Z</time>
      </trkpt>
      <trkpt lat="45.24107" lon="6.03821">
        <ele>2436.4528808594</ele>
        <time>2017-11-17T11:17:48Z</time>
      </trkpt>
      <trkpt lat="45.24109" lon="6.03814">
        <ele>2436.4528808594</ele>
        <time>2017-11-17T11:17:52Z</time>
      </trkpt>
      <trkpt lat="45.24112" lon="6.0381">
        <ele>2433.4528808594</ele>
        <time>2017-11-17T11:17:57Z</time>
      </trkpt>
      <trkpt lat="45.24113" lon="6.03798">
        <ele>2434.4528808594</ele>
        <time>2017-11-17T11:18:51Z</time>
      </trkpt>
      <trkpt lat="45.24108" lon="6.03777">
        <ele>2432.4528808594</ele>
        <time>2017-11-17T11:18:53Z</time>
      </trkpt>
      <trkpt lat="45.24105" lon="6.0376">
        <ele>2429.4528808594</ele>
        <time>2017-11-17T11:18:55Z</time>
      </trkpt>
      <trkpt lat="45.24105" lon="6.03753">
        <ele>2427.4528808594</ele>
        <time>2017-11-17T11:18:57Z</time>
      </trkpt>
      <trkpt lat="45.24116" lon="6.03748">
        <ele>2424.4528808594</ele>
        <time>2017-11-17T11:18:58Z</time>
      </trkpt>
      <trkpt lat="45.24129" lon="6.03737">
        <ele>2423.4528808594</ele>
        <time>2017-11-17T11:19:00Z</time>
      </trkpt>
      <trkpt lat="45.24136" lon="6.03719">
        <ele>2419.4528808594</ele>
        <time>2017-11-17T11:19:02Z</time>
      </trkpt>
      <trkpt lat="45.24146" lon="6.03709">
        <ele>2416.4528808594</ele>
        <time>2017-11-17T11:19:04Z</time>
      </trkpt>
      <trkpt lat="45.24157" lon="6.03702">
        <ele>2406.4528808594</ele>
        <time>2017-11-17T11:19:06Z</time>
      </trkpt>
      <trkpt lat="45.24169" lon="6.03696">
        <ele>2399.4528808594</ele>
        <time>2017-11-17T11:19:08Z</time>
      </trkpt>
      <trkpt lat="45.24177" lon="6.0368">
        <ele>2396.4528808594</ele>
        <time>2017-11-17T11:19:10Z</time>
      </trkpt>
      <trkpt lat="45.24176" lon="6.03672">
        <ele>2388.4528808594</ele>
        <time>2017-11-17T11:19:11Z</time>
      </trkpt>
      <trkpt lat="45.24184" lon="6.03668">
        <ele>2380.4528808594</ele>
        <time>2017-11-17T11:19:13Z</time>
      </trkpt>
      <trkpt lat="45.24195" lon="6.03671">
        <ele>2373.4528808594</ele>
        <time>2017-11-17T11:19:15Z</time>
      </trkpt>
      <trkpt lat="45.24207" lon="6.03665">
        <ele>2365.4528808594</ele>
        <time>2017-11-17T11:19:17Z</time>
      </trkpt>
      <trkpt lat="45.24224" lon="6.03667">
        <ele>2353.4541015625</ele>
        <time>2017-11-17T11:19:20Z</time>
      </trkpt>
      <trkpt lat="45.2423" lon="6.03662">
        <ele>2345.4541015625</ele>
        <time>2017-11-17T11:19:21Z</time>
      </trkpt>
      <trkpt lat="45.24238" lon="6.03663">
        <ele>2342.4541015625</ele>
        <time>2017-11-17T11:19:22Z</time>
      </trkpt>
      <trkpt lat="45.24252" lon="6.03662">
        <ele>2339.4541015625</ele>
        <time>2017-11-17T11:19:24Z</time>
      </trkpt>
      <trkpt lat="45.24255" lon="6.0367">
        <ele>2336.4541015625</ele>
        <time>2017-11-17T11:19:26Z</time>
      </trkpt>
      <trkpt lat="45.24255" lon="6.03679">
        <ele>2331.4541015625</ele>
        <time>2017-11-17T11:19:28Z</time>
      </trkpt>
      <trkpt lat="45.24253" lon="6.03685">
        <ele>2326.4541015625</ele>
        <time>2017-11-17T11:19:31Z</time>
      </trkpt>
      <trkpt lat="45.24253" lon="6.03692">
        <ele>2321.4541015625</ele>
        <time>2017-11-17T11:19:34Z</time>
      </trkpt>
      <trkpt lat="45.24257" lon="6.037">
        <ele>2318.4541015625</ele>
        <time>2017-11-17T11:19:36Z</time>
      </trkpt>
      <trkpt lat="45.24263" lon="6.03701">
        <ele>2313.4541015625</ele>
        <time>2017-11-17T11:19:38Z</time>
      </trkpt>
      <trkpt lat="45.24269" lon="6.03703">
        <ele>2306.4541015625</ele>
        <time>2017-11-17T11:19:41Z</time>
      </trkpt>
      <trkpt lat="45.24271" lon="6.03694">
        <ele>2302.4541015625</ele>
        <time>2017-11-17T11:19:47Z</time>
      </trkpt>
      <trkpt lat="45.24275" lon="6.03688">
        <ele>2299.4541015625</ele>
        <time>2017-11-17T11:19:48Z</time>
      </trkpt>
      <trkpt lat="45.24287" lon="6.03689">
        <ele>2297.4541015625</ele>
        <time>2017-11-17T11:19:50Z</time>
      </trkpt>
      <trkpt lat="45.2429" lon="6.03683">
        <ele>2292.4541015625</ele>
        <time>2017-11-17T11:19:51Z</time>
      </trkpt>
      <trkpt lat="45.24293" lon="6.03688">
        <ele>2287.4541015625</ele>
        <time>2017-11-17T11:19:53Z</time>
      </trkpt>
      <trkpt lat="45.24294" lon="6.03702">
        <ele>2283.4541015625</ele>
        <time>2017-11-17T11:19:55Z</time>
      </trkpt>
      <trkpt lat="45.24298" lon="6.03706">
        <ele>2278.4541015625</ele>
        <time>2017-11-17T11:19:58Z</time>
      </trkpt>
      <trkpt lat="45.24299" lon="6.03712">
        <ele>2273.4541015625</ele>
        <time>2017-11-17T11:19:59Z</time>
      </trkpt>
      <trkpt lat="45.24301" lon="6.03723">
        <ele>2268.4541015625</ele>
        <time>2017-11-17T11:20:01Z</time>
      </trkpt>
      <trkpt lat="45.243" lon="6.0374">
        <ele>2265.4541015625</ele>
        <time>2017-11-17T11:20:03Z</time>
      </trkpt>
      <trkpt lat="45.24302" lon="6.03747">
        <ele>2264.4541015625</ele>
        <time>2017-11-17T11:20:04Z</time>
      </trkpt>
      <trkpt lat="45.24314" lon="6.03751">
        <ele>2262.4541015625</ele>
        <time>2017-11-17T11:20:06Z</time>
      </trkpt>
      <trkpt lat="45.24327" lon="6.03756">
        <ele>2260.4541015625</ele>
        <time>2017-11-17T11:20:08Z</time>
      </trkpt>
      <trkpt lat="45.24336" lon="6.03758">
        <ele>2257.4541015625</ele>
        <time>2017-11-17T11:20:09Z</time>
      </trkpt>
      <trkpt lat="45.24354" lon="6.03763">
        <ele>2252.4541015625</ele>
        <time>2017-11-17T11:20:11Z</time>
      </trkpt>
      <trkpt lat="45.24372" lon="6.03762">
        <ele>2238.4541015625</ele>
        <time>2017-11-17T11:20:14Z</time>
      </trkpt>
      <trkpt lat="45.24388" lon="6.03764">
        <ele>2227.4541015625</ele>
        <time>2017-11-17T11:20:16Z</time>
      </trkpt>
      <trkpt lat="45.24401" lon="6.03765">
        <ele>2218.4541015625</ele>
        <time>2017-11-17T11:20:18Z</time>
      </trkpt>
      <trkpt lat="45.24417" lon="6.03755">
        <ele>2211.4541015625</ele>
        <time>2017-11-17T11:20:20Z</time>
      </trkpt>
      <trkpt lat="45.24427" lon="6.03773">
        <ele>2205.4541015625</ele>
        <time>2017-11-17T11:20:23Z</time>
      </trkpt>
      <trkpt lat="45.24434" lon="6.0377">
        <ele>2198.4541015625</ele>
        <time>2017-11-17T11:20:24Z</time>
      </trkpt>
      <trkpt lat="45.24444" lon="6.0376">
        <ele>2195.4541015625</ele>
        <time>2017-11-17T11:20:26Z</time>
      </trkpt>
      <trkpt lat="45.24447" lon="6.03751">
        <ele>2192.4541015625</ele>
        <time>2017-11-17T11:20:28Z</time>
      </trkpt>
      <trkpt lat="45.24454" lon="6.03743">
        <ele>2189.4541015625</ele>
        <time>2017-11-17T11:20:30Z</time>
      </trkpt>
      <trkpt lat="45.24459" lon="6.03729">
        <ele>2181.4541015625</ele>
        <time>2017-11-17T11:20:33Z</time>
      </trkpt>
      <trkpt lat="45.24465" lon="6.03721">
        <ele>2181.4541015625</ele>
        <time>2017-11-17T11:20:35Z</time>
      </trkpt>
      <trkpt lat="45.24469" lon="6.03714">
        <ele>2181.4541015625</ele>
        <time>2017-11-17T11:20:37Z</time>
      </trkpt>
      <trkpt lat="45.24477" lon="6.03712">
        <ele>2177.4541015625</ele>
        <time>2017-11-17T11:20:39Z</time>
      </trkpt>
      <trkpt lat="45.24487" lon="6.03709">
        <ele>2176.4541015625</ele>
        <time>2017-11-17T11:20:41Z</time>
      </trkpt>
      <trkpt lat="45.245" lon="6.03715">
        <ele>2169.4541015625</ele>
        <time>2017-11-17T11:20:44Z</time>
      </trkpt>
      <trkpt lat="45.24508" lon="6.03718">
        <ele>2167.4541015625</ele>
        <time>2017-11-17T11:20:46Z</time>
      </trkpt>
      <trkpt lat="45.24513" lon="6.03718">
        <ele>2165.4541015625</ele>
        <time>2017-11-17T11:20:48Z</time>
      </trkpt>
      <trkpt lat="45.24518" lon="6.03729">
        <ele>2161.4541015625</ele>
        <time>2017-11-17T11:20:50Z</time>
      </trkpt>
      <trkpt lat="45.24527" lon="6.03734">
        <ele>2157.4541015625</ele>
        <time>2017-11-17T11:20:52Z</time>
      </trkpt>
      <trkpt lat="45.24529" lon="6.03743">
        <ele>2155.4541015625</ele>
        <time>2017-11-17T11:20:54Z</time>
      </trkpt>
      <trkpt lat="45.24529" lon="6.03753">
        <ele>2155.4541015625</ele>
        <time>2017-11-17T11:20:56Z</time>
      </trkpt>
      <trkpt lat="45.24529" lon="6.0376">
        <ele>2156.4541015625</ele>
        <time>2017-11-17T11:21:00Z</time>
      </trkpt>
      <trkpt lat="45.24538" lon="6.03755">
        <ele>2151.4541015625</ele>
        <time>2017-11-17T11:21:04Z</time>
      </trkpt>
      <trkpt lat="45.24545" lon="6.03746">
        <ele>2151.4541015625</ele>
        <time>2017-11-17T11:21:06Z</time>
      </trkpt>
      <trkpt lat="45.24553" lon="6.03742">
        <ele>2149.4541015625</ele>
        <time>2017-11-17T11:21:08Z</time>
      </trkpt>
      <trkpt lat="45.24562" lon="6.03743">
        <ele>2147.4541015625</ele>
        <time>2017-11-17T11:21:10Z</time>
      </trkpt>
      <trkpt lat="45.24565" lon="6.03748">
        <ele>2143.4541015625</ele>
        <time>2017-11-17T11:21:11Z</time>
      </trkpt>
      <trkpt lat="45.24575" lon="6.03748">
        <ele>2138.4541015625</ele>
        <time>2017-11-17T11:21:13Z</time>
      </trkpt>
      <trkpt lat="45.24586" lon="6.03752">
        <ele>2135.4541015625</ele>
        <time>2017-11-17T11:21:15Z</time>
      </trkpt>
      <trkpt lat="45.24597" lon="6.03757">
        <ele>2134.4541015625</ele>
        <time>2017-11-17T11:21:17Z</time>
      </trkpt>
      <trkpt lat="45.24605" lon="6.03764">
        <ele>2132.4541015625</ele>
        <time>2017-11-17T11:21:19Z</time>
      </trkpt>
      <trkpt lat="45.2461" lon="6.03765">
        <ele>2131.4541015625</ele>
        <time>2017-11-17T11:21:21Z</time>
      </trkpt>
      <trkpt lat="45.24616" lon="6.03768">
        <ele>2129.4541015625</ele>
        <time>2017-11-17T11:21:24Z</time>
      </trkpt>
      <trkpt lat="45.24622" lon="6.03773">
        <ele>2129.4541015625</ele>
        <time>2017-11-17T11:21:26Z</time>
      </trkpt>
      <trkpt lat="45.24628" lon="6.03779">
        <ele>2128.4541015625</ele>
        <time>2017-11-17T11:21:28Z</time>
      </trkpt>
      <trkpt lat="45.24629" lon="6.03791">
        <ele>2123.4541015625</ele>
        <time>2017-11-17T11:21:31Z</time>
      </trkpt>
      <trkpt lat="45.24628" lon="6.03799">
        <ele>2121.4541015625</ele>
        <time>2017-11-17T11:21:33Z</time>
      </trkpt>
      <trkpt lat="45.24633" lon="6.03801">
        <ele>2115.455078125</ele>
        <time>2017-11-17T11:21:36Z</time>
      </trkpt>
      <trkpt lat="45.24623" lon="6.03808">
        <ele>2106.4541015625</ele>
        <time>2017-11-17T11:21:48Z</time>
      </trkpt>
      <trkpt lat="45.24621" lon="6.03814">
        <ele>2105.4541015625</ele>
        <time>2017-11-17T11:21:51Z</time>
      </trkpt>
      <trkpt lat="45.24626" lon="6.03815">
        <ele>2104.455078125</ele>
        <time>2017-11-17T11:21:54Z</time>
      </trkpt>
      <trkpt lat="45.24627" lon="6.03823">
        <ele>2100.455078125</ele>
        <time>2017-11-17T11:21:59Z</time>
      </trkpt>
      <trkpt lat="45.24633" lon="6.03825">
        <ele>2099.455078125</ele>
        <time>2017-11-17T11:22:02Z</time>
      </trkpt>
      <trkpt lat="45.24636" lon="6.03832">
        <ele>2094.455078125</ele>
        <time>2017-11-17T11:22:14Z</time>
      </trkpt>
      <trkpt lat="45.24641" lon="6.0384">
        <ele>2092.455078125</ele>
        <time>2017-11-17T11:22:16Z</time>
      </trkpt>
      <trkpt lat="45.24645" lon="6.03842">
        <ele>2089.455078125</ele>
        <time>2017-11-17T11:22:19Z</time>
      </trkpt>
      <trkpt lat="45.24652" lon="6.03842">
        <ele>2086.455078125</ele>
        <time>2017-11-17T11:22:21Z</time>
      </trkpt>
      <trkpt lat="45.24656" lon="6.03839">
        <ele>2085.455078125</ele>
        <time>2017-11-17T11:22:23Z</time>
      </trkpt>
      <trkpt lat="45.24662" lon="6.03846">
        <ele>2079.455078125</ele>
        <time>2017-11-17T11:22:26Z</time>
      </trkpt>
      <trkpt lat="45.24666" lon="6.03851">
        <ele>2076.455078125</ele>
        <time>2017-11-17T11:22:27Z</time>
      </trkpt>
      <trkpt lat="45.24671" lon="6.03865">
        <ele>2072.455078125</ele>
        <time>2017-11-17T11:22:29Z</time>
      </trkpt>
      <trkpt lat="45.24676" lon="6.03869">
        <ele>2068.455078125</ele>
        <time>2017-11-17T11:22:30Z</time>
      </trkpt>
      <trkpt lat="45.24687" lon="6.03883">
        <ele>2064.455078125</ele>
        <time>2017-11-17T11:22:33Z</time>
      </trkpt>
      <trkpt lat="45.24695" lon="6.03891">
        <ele>2065.455078125</ele>
        <time>2017-11-17T11:22:36Z</time>
      </trkpt>
      <trkpt lat="45.24693" lon="6.03897">
        <ele>2061.455078125</ele>
        <time>2017-11-17T11:22:40Z</time>
      </trkpt>
      <trkpt lat="45.24698" lon="6.039">
        <ele>2055.455078125</ele>
        <time>2017-11-17T11:22:41Z</time>
      </trkpt>
      <trkpt lat="45.24699" lon="6.03912">
        <ele>2049.455078125</ele>
        <time>2017-11-17T11:22:43Z</time>
      </trkpt>
      <trkpt lat="45.24701" lon="6.03924">
        <ele>2044.4549560547</ele>
        <time>2017-11-17T11:22:45Z</time>
      </trkpt>
      <trkpt lat="45.24705" lon="6.03939">
        <ele>2038.4549560547</ele>
        <time>2017-11-17T11:22:47Z</time>
      </trkpt>
      <trkpt lat="45.24712" lon="6.03947">
        <ele>2034.4549560547</ele>
        <time>2017-11-17T11:22:49Z</time>
      </trkpt>
      <trkpt lat="45.24724" lon="6.03949">
        <ele>2032.4549560547</ele>
        <time>2017-11-17T11:22:52Z</time>
      </trkpt>
      <trkpt lat="45.2473" lon="6.03949">
        <ele>2028.4549560547</ele>
        <time>2017-11-17T11:22:54Z</time>
      </trkpt>
      <trkpt lat="45.24736" lon="6.0395">
        <ele>2028.4549560547</ele>
        <time>2017-11-17T11:22:56Z</time>
      </trkpt>
      <trkpt lat="45.24744" lon="6.03948">
        <ele>2028.4549560547</ele>
        <time>2017-11-17T11:22:58Z</time>
      </trkpt>
      <trkpt lat="45.24752" lon="6.0395">
        <ele>2021.4549560547</ele>
        <time>2017-11-17T11:23:02Z</time>
      </trkpt>
      <trkpt lat="45.24757" lon="6.03963">
        <ele>2016.4549560547</ele>
        <time>2017-11-17T11:23:04Z</time>
      </trkpt>
      <trkpt lat="45.24762" lon="6.0398">
        <ele>2006.4549560547</ele>
        <time>2017-11-17T11:23:07Z</time>
      </trkpt>
      <trkpt lat="45.24768" lon="6.03985">
        <ele>1997.4549560547</ele>
        <time>2017-11-17T11:23:09Z</time>
      </trkpt>
      <trkpt lat="45.24775" lon="6.03993">
        <ele>1989.4549560547</ele>
        <time>2017-11-17T11:23:11Z</time>
      </trkpt>
      <trkpt lat="45.24788" lon="6.04006">
        <ele>1980.4549560547</ele>
        <time>2017-11-17T11:23:13Z</time>
      </trkpt>
      <trkpt lat="45.24801" lon="6.04016">
        <ele>1971.4549560547</ele>
        <time>2017-11-17T11:23:15Z</time>
      </trkpt>
      <trkpt lat="45.24808" lon="6.04019">
        <ele>1968.4549560547</ele>
        <time>2017-11-17T11:23:16Z</time>
      </trkpt>
      <trkpt lat="45.2482" lon="6.04018">
        <ele>1963.4549560547</ele>
        <time>2017-11-17T11:23:18Z</time>
      </trkpt>
      <trkpt lat="45.24831" lon="6.04013">
        <ele>1960.4549560547</ele>
        <time>2017-11-17T11:23:21Z</time>
      </trkpt>
      <trkpt lat="45.24835" lon="6.04013">
        <ele>1959.4549560547</ele>
        <time>2017-11-17T11:23:22Z</time>
      </trkpt>
      <trkpt lat="45.24846" lon="6.04012">
        <ele>1954.4549560547</ele>
        <time>2017-11-17T11:23:24Z</time>
      </trkpt>
      <trkpt lat="45.2486" lon="6.04008">
        <ele>1953.4549560547</ele>
        <time>2017-11-17T11:23:27Z</time>
      </trkpt>
      <trkpt lat="45.24869" lon="6.04007">
        <ele>1951.4549560547</ele>
        <time>2017-11-17T11:23:31Z</time>
      </trkpt>
      <trkpt lat="45.24875" lon="6.04006">
        <ele>1950.4549560547</ele>
        <time>2017-11-17T11:23:33Z</time>
      </trkpt>
      <trkpt lat="45.2488" lon="6.04007">
        <ele>1949.4549560547</ele>
        <time>2017-11-17T11:23:36Z</time>
      </trkpt>
      <trkpt lat="45.24887" lon="6.04015">
        <ele>1944.4549560547</ele>
        <time>2017-11-17T11:23:46Z</time>
      </trkpt>
      <trkpt lat="45.24897" lon="6.0402">
        <ele>1944.4549560547</ele>
        <time>2017-11-17T11:23:48Z</time>
      </trkpt>
      <trkpt lat="45.24908" lon="6.04019">
        <ele>1942.4549560547</ele>
        <time>2017-11-17T11:23:50Z</time>
      </trkpt>
      <trkpt lat="45.2492" lon="6.04016">
        <ele>1942.4549560547</ele>
        <time>2017-11-17T11:23:52Z</time>
      </trkpt>
      <trkpt lat="45.24927" lon="6.04014">
        <ele>1940.4549560547</ele>
        <time>2017-11-17T11:23:54Z</time>
      </trkpt>
      <trkpt lat="45.24934" lon="6.04012">
        <ele>1940.4549560547</ele>
        <time>2017-11-17T11:23:56Z</time>
      </trkpt>
      <trkpt lat="45.24941" lon="6.0401">
        <ele>1942.4549560547</ele>
        <time>2017-11-17T11:23:58Z</time>
      </trkpt>
      <trkpt lat="45.24945" lon="6.04009">
        <ele>1944.4549560547</ele>
        <time>2017-11-17T11:24:10Z</time>
      </trkpt>
      <trkpt lat="45.24949" lon="6.04005">
        <ele>1943.4549560547</ele>
        <time>2017-11-17T11:28:04Z</time>
      </trkpt>
      <trkpt lat="45.24952" lon="6.04">
        <ele>1940.4549560547</ele>
        <time>2017-11-17T11:28:09Z</time>
      </trkpt>
      <trkpt lat="45.24957" lon="6.03999">
        <ele>1939.4549560547</ele>
        <time>2017-11-17T11:28:14Z</time>
      </trkpt>
      <trkpt lat="45.24961" lon="6.03997">
        <ele>1939.4549560547</ele>
        <time>2017-11-17T11:28:20Z</time>
      </trkpt>
      <trkpt lat="45.24965" lon="6.03993">
        <ele>1938.4549560547</ele>
        <time>2017-11-17T11:28:27Z</time>
      </trkpt>
      <trkpt lat="45.24976" lon="6.03985">
        <ele>1937.4549560547</ele>
        <time>2017-11-17T11:28:38Z</time>
      </trkpt>
      <trkpt lat="45.24981" lon="6.03987">
        <ele>1938.4549560547</ele>
        <time>2017-11-17T11:28:40Z</time>
      </trkpt>
      <trkpt lat="45.24976" lon="6.03986">
        <ele>1936.4549560547</ele>
        <time>2017-11-17T11:28:41Z</time>
      </trkpt>
      <trkpt lat="45.24973" lon="6.03992">
        <ele>1940.4549560547</ele>
        <time>2017-11-17T11:28:45Z</time>
      </trkpt>
      <trkpt lat="45.24975" lon="6.03985">
        <ele>1937.4549560547</ele>
        <time>2017-11-17T11:29:20Z</time>
      </trkpt>
      <trkpt lat="45.24979" lon="6.03979">
        <ele>1938.4549560547</ele>
        <time>2017-11-17T11:29:24Z</time>
      </trkpt>
      <trkpt lat="45.24983" lon="6.03973">
        <ele>1935.4549560547</ele>
        <time>2017-11-17T11:29:29Z</time>
      </trkpt>
      <trkpt lat="45.24985" lon="6.03967">
        <ele>1935.4549560547</ele>
        <time>2017-11-17T11:29:33Z</time>
      </trkpt>
      <trkpt lat="45.24988" lon="6.03961">
        <ele>1934.4549560547</ele>
        <time>2017-11-17T11:29:37Z</time>
      </trkpt>
      <trkpt lat="45.24992" lon="6.03959">
        <ele>1935.4549560547</ele>
        <time>2017-11-17T11:29:40Z</time>
      </trkpt>
      <trkpt lat="45.24995" lon="6.03952">
        <ele>1937.4549560547</ele>
        <time>2017-11-17T11:29:45Z</time>
      </trkpt>
      <trkpt lat="45.24998" lon="6.03947">
        <ele>1938.4549560547</ele>
        <time>2017-11-17T11:29:48Z</time>
      </trkpt>
      <trkpt lat="45.25002" lon="6.03943">
        <ele>1940.4549560547</ele>
        <time>2017-11-17T11:29:51Z</time>
      </trkpt>
      <trkpt lat="45.25007" lon="6.03941">
        <ele>1940.4549560547</ele>
        <time>2017-11-17T11:29:55Z</time>
      </trkpt>
      <trkpt lat="45.25012" lon="6.03937">
        <ele>1938.4549560547</ele>
        <time>2017-11-17T11:30:15Z</time>
      </trkpt>
      <trkpt lat="45.25017" lon="6.03937">
        <ele>1940.4549560547</ele>
        <time>2017-11-17T11:30:20Z</time>
      </trkpt>
      <trkpt lat="45.25022" lon="6.03935">
        <ele>1941.4549560547</ele>
        <time>2017-11-17T11:30:24Z</time>
      </trkpt>
      <trkpt lat="45.25027" lon="6.03934">
        <ele>1942.4549560547</ele>
        <time>2017-11-17T11:30:28Z</time>
      </trkpt>
      <trkpt lat="45.25032" lon="6.03932">
        <ele>1943.4549560547</ele>
        <time>2017-11-17T11:30:33Z</time>
      </trkpt>
      <trkpt lat="45.25036" lon="6.03929">
        <ele>1946.4549560547</ele>
        <time>2017-11-17T11:30:37Z</time>
      </trkpt>
      <trkpt lat="45.25041" lon="6.03924">
        <ele>1947.4549560547</ele>
        <time>2017-11-17T11:30:42Z</time>
      </trkpt>
      <trkpt lat="45.25046" lon="6.0392">
        <ele>1947.4549560547</ele>
        <time>2017-11-17T11:30:46Z</time>
      </trkpt>
      <trkpt lat="45.2505" lon="6.03916">
        <ele>1949.4549560547</ele>
        <time>2017-11-17T11:30:49Z</time>
      </trkpt>
      <trkpt lat="45.25054" lon="6.03912">
        <ele>1951.4549560547</ele>
        <time>2017-11-17T11:30:56Z</time>
      </trkpt>
      <trkpt lat="45.25059" lon="6.03911">
        <ele>1949.4549560547</ele>
        <time>2017-11-17T11:31:01Z</time>
      </trkpt>
      <trkpt lat="45.25064" lon="6.03908">
        <ele>1948.4560546875</ele>
        <time>2017-11-17T11:31:08Z</time>
      </trkpt>
      <trkpt lat="45.25069" lon="6.03908">
        <ele>1949.4560546875</ele>
        <time>2017-11-17T11:31:15Z</time>
      </trkpt>
      <trkpt lat="45.25074" lon="6.03907">
        <ele>1949.4560546875</ele>
        <time>2017-11-17T11:31:18Z</time>
      </trkpt>
      <trkpt lat="45.25079" lon="6.03906">
        <ele>1950.4560546875</ele>
        <time>2017-11-17T11:31:23Z</time>
      </trkpt>
      <trkpt lat="45.25084" lon="6.03903">
        <ele>1954.4560546875</ele>
        <time>2017-11-17T11:31:30Z</time>
      </trkpt>
      <trkpt lat="45.25088" lon="6.03902">
        <ele>1956.4560546875</ele>
        <time>2017-11-17T11:31:35Z</time>
      </trkpt>
      <trkpt lat="45.25093" lon="6.03901">
        <ele>1958.4560546875</ele>
        <time>2017-11-17T11:31:38Z</time>
      </trkpt>
      <trkpt lat="45.25098" lon="6.03901">
        <ele>1955.4560546875</ele>
        <time>2017-11-17T11:31:43Z</time>
      </trkpt>
      <trkpt lat="45.25103" lon="6.03904">
        <ele>1955.4560546875</ele>
        <time>2017-11-17T11:31:48Z</time>
      </trkpt>
      <trkpt lat="45.25109" lon="6.03907">
        <ele>1956.4560546875</ele>
        <time>2017-11-17T11:31:53Z</time>
      </trkpt>
      <trkpt lat="45.25114" lon="6.03909">
        <ele>1957.4560546875</ele>
        <time>2017-11-17T11:31:58Z</time>
      </trkpt>
      <trkpt lat="45.25117" lon="6.03905">
        <ele>1954.4560546875</ele>
        <time>2017-11-17T11:32:08Z</time>
      </trkpt>
      <trkpt lat="45.25123" lon="6.03902">
        <ele>1952.4560546875</ele>
        <time>2017-11-17T11:32:12Z</time>
      </trkpt>
      <trkpt lat="45.25128" lon="6.03901">
        <ele>1955.4560546875</ele>
        <time>2017-11-17T11:32:17Z</time>
      </trkpt>
      <trkpt lat="45.25133" lon="6.03899">
        <ele>1963.4560546875</ele>
        <time>2017-11-17T11:33:43Z</time>
      </trkpt>
      <trkpt lat="45.25135" lon="6.03892">
        <ele>1964.4560546875</ele>
        <time>2017-11-17T11:33:48Z</time>
      </trkpt>
      <trkpt lat="45.25135" lon="6.03884">
        <ele>1963.4560546875</ele>
        <time>2017-11-17T11:33:53Z</time>
      </trkpt>
      <trkpt lat="45.25136" lon="6.03876">
        <ele>1965.4560546875</ele>
        <time>2017-11-17T11:33:59Z</time>
      </trkpt>
      <trkpt lat="45.25138" lon="6.0387">
        <ele>1966.4560546875</ele>
        <time>2017-11-17T11:34:05Z</time>
      </trkpt>
      <trkpt lat="45.25137" lon="6.03863">
        <ele>1967.4560546875</ele>
        <time>2017-11-17T11:34:13Z</time>
      </trkpt>
      <trkpt lat="45.2514" lon="6.03858">
        <ele>1972.4560546875</ele>
        <time>2017-11-17T11:34:21Z</time>
      </trkpt>
      <trkpt lat="45.25146" lon="6.03858">
        <ele>1972.4560546875</ele>
        <time>2017-11-17T11:34:27Z</time>
      </trkpt>
      <trkpt lat="45.2515" lon="6.0386">
        <ele>1974.4560546875</ele>
        <time>2017-11-17T11:34:34Z</time>
      </trkpt>
      <trkpt lat="45.25155" lon="6.03853">
        <ele>1973.4560546875</ele>
        <time>2017-11-17T11:34:45Z</time>
      </trkpt>
      <trkpt lat="45.25156" lon="6.03847">
        <ele>1974.4560546875</ele>
        <time>2017-11-17T11:34:51Z</time>
      </trkpt>
      <trkpt lat="45.25159" lon="6.0384">
        <ele>1976.4560546875</ele>
        <time>2017-11-17T11:34:58Z</time>
      </trkpt>
      <trkpt lat="45.25163" lon="6.03837">
        <ele>1977.4560546875</ele>
        <time>2017-11-17T11:35:02Z</time>
      </trkpt>
      <trkpt lat="45.25167" lon="6.03833">
        <ele>1980.4560546875</ele>
        <time>2017-11-17T11:35:07Z</time>
      </trkpt>
      <trkpt lat="45.25172" lon="6.03831">
        <ele>1980.4560546875</ele>
        <time>2017-11-17T11:35:12Z</time>
      </trkpt>
      <trkpt lat="45.25177" lon="6.03828">
        <ele>1982.4560546875</ele>
        <time>2017-11-17T11:35:18Z</time>
      </trkpt>
      <trkpt lat="45.25183" lon="6.03826">
        <ele>1984.4560546875</ele>
        <time>2017-11-17T11:35:26Z</time>
      </trkpt>
      <trkpt lat="45.25186" lon="6.03821">
        <ele>1984.4560546875</ele>
        <time>2017-11-17T11:35:53Z</time>
      </trkpt>
      <trkpt lat="45.25191" lon="6.03819">
        <ele>1987.4560546875</ele>
        <time>2017-11-17T11:35:57Z</time>
      </trkpt>
      <trkpt lat="45.25196" lon="6.03816">
        <ele>1987.4560546875</ele>
        <time>2017-11-17T11:36:05Z</time>
      </trkpt>
      <trkpt lat="45.25202" lon="6.03817">
        <ele>1988.4560546875</ele>
        <time>2017-11-17T11:36:11Z</time>
      </trkpt>
      <trkpt lat="45.25202" lon="6.0381">
        <ele>1993.4560546875</ele>
        <time>2017-11-17T11:36:24Z</time>
      </trkpt>
      <trkpt lat="45.25198" lon="6.03807">
        <ele>1994.4560546875</ele>
        <time>2017-11-17T11:36:28Z</time>
      </trkpt>
      <trkpt lat="45.25194" lon="6.03802">
        <ele>1995.4560546875</ele>
        <time>2017-11-17T11:36:36Z</time>
      </trkpt>
      <trkpt lat="45.25198" lon="6.03797">
        <ele>1997.4560546875</ele>
        <time>2017-11-17T11:36:56Z</time>
      </trkpt>
      <trkpt lat="45.25203" lon="6.03796">
        <ele>2000.4560546875</ele>
        <time>2017-11-17T11:37:05Z</time>
      </trkpt>
      <trkpt lat="45.25208" lon="6.03797">
        <ele>2003.4560546875</ele>
        <time>2017-11-17T11:37:09Z</time>
      </trkpt>
      <trkpt lat="45.25213" lon="6.03798">
        <ele>2000.4560546875</ele>
        <time>2017-11-17T11:37:14Z</time>
      </trkpt>
      <trkpt lat="45.25212" lon="6.03791">
        <ele>2002.4560546875</ele>
        <time>2017-11-17T11:37:27Z</time>
      </trkpt>
      <trkpt lat="45.2521" lon="6.03785">
        <ele>2002.4560546875</ele>
        <time>2017-11-17T11:37:34Z</time>
      </trkpt>
      <trkpt lat="45.25207" lon="6.0378">
        <ele>2006.4560546875</ele>
        <time>2017-11-17T11:37:40Z</time>
      </trkpt>
      <trkpt lat="45.25204" lon="6.03774">
        <ele>2009.4560546875</ele>
        <time>2017-11-17T11:37:49Z</time>
      </trkpt>
      <trkpt lat="45.25202" lon="6.03768">
        <ele>2012.4560546875</ele>
        <time>2017-11-17T11:38:01Z</time>
      </trkpt>
      <trkpt lat="45.25207" lon="6.03765">
        <ele>2016.4560546875</ele>
        <time>2017-11-17T11:38:21Z</time>
      </trkpt>
      <trkpt lat="45.25211" lon="6.03764">
        <ele>2017.4560546875</ele>
        <time>2017-11-17T11:38:27Z</time>
      </trkpt>
      <trkpt lat="45.25216" lon="6.03763">
        <ele>2014.4560546875</ele>
        <time>2017-11-17T11:38:32Z</time>
      </trkpt>
      <trkpt lat="45.25221" lon="6.03766">
        <ele>2017.4560546875</ele>
        <time>2017-11-17T11:38:37Z</time>
      </trkpt>
      <trkpt lat="45.25226" lon="6.03766">
        <ele>2018.4560546875</ele>
        <time>2017-11-17T11:38:44Z</time>
      </trkpt>
      <trkpt lat="45.25231" lon="6.03766">
        <ele>2019.4560546875</ele>
        <time>2017-11-17T11:38:48Z</time>
      </trkpt>
      <trkpt lat="45.25235" lon="6.03766">
        <ele>2019.4560546875</ele>
        <time>2017-11-17T11:38:53Z</time>
      </trkpt>
      <trkpt lat="45.2524" lon="6.03771">
        <ele>2017.4560546875</ele>
        <time>2017-11-17T11:39:00Z</time>
      </trkpt>
      <trkpt lat="45.25243" lon="6.03764">
        <ele>2020.4560546875</ele>
        <time>2017-11-17T11:39:12Z</time>
      </trkpt>
      <trkpt lat="45.25244" lon="6.03757">
        <ele>2023.4560546875</ele>
        <time>2017-11-17T11:39:19Z</time>
      </trkpt>
      <trkpt lat="45.25247" lon="6.03751">
        <ele>2024.4560546875</ele>
        <time>2017-11-17T11:39:24Z</time>
      </trkpt>
      <trkpt lat="45.2525" lon="6.03746">
        <ele>2023.4560546875</ele>
        <time>2017-11-17T11:39:29Z</time>
      </trkpt>
      <trkpt lat="45.25252" lon="6.0374">
        <ele>2026.4560546875</ele>
        <time>2017-11-17T11:39:37Z</time>
      </trkpt>
      <trkpt lat="45.25252" lon="6.03733">
        <ele>2029.4560546875</ele>
        <time>2017-11-17T11:39:45Z</time>
      </trkpt>
      <trkpt lat="45.2525" lon="6.03726">
        <ele>2031.4560546875</ele>
        <time>2017-11-17T11:39:54Z</time>
      </trkpt>
      <trkpt lat="45.25249" lon="6.0372">
        <ele>2033.4560546875</ele>
        <time>2017-11-17T11:39:59Z</time>
      </trkpt>
      <trkpt lat="45.25248" lon="6.03714">
        <ele>2034.4560546875</ele>
        <time>2017-11-17T11:40:07Z</time>
      </trkpt>
      <trkpt lat="45.2525" lon="6.03707">
        <ele>2038.4560546875</ele>
        <time>2017-11-17T11:40:20Z</time>
      </trkpt>
      <trkpt lat="45.25246" lon="6.03703">
        <ele>2036.4560546875</ele>
        <time>2017-11-17T11:40:35Z</time>
      </trkpt>
      <trkpt lat="45.25242" lon="6.03704">
        <ele>2035.4560546875</ele>
        <time>2017-11-17T11:40:41Z</time>
      </trkpt>
      <trkpt lat="45.25242" lon="6.03697">
        <ele>2037.4560546875</ele>
        <time>2017-11-17T11:41:01Z</time>
      </trkpt>
      <trkpt lat="45.25244" lon="6.0369">
        <ele>2044.4560546875</ele>
        <time>2017-11-17T11:41:08Z</time>
      </trkpt>
      <trkpt lat="45.25243" lon="6.03684">
        <ele>2045.4560546875</ele>
        <time>2017-11-17T11:41:16Z</time>
      </trkpt>
      <trkpt lat="45.25239" lon="6.03679">
        <ele>2048.4560546875</ele>
        <time>2017-11-17T11:41:23Z</time>
      </trkpt>
      <trkpt lat="45.25236" lon="6.03674">
        <ele>2046.4560546875</ele>
        <time>2017-11-17T11:41:28Z</time>
      </trkpt>
      <trkpt lat="45.25232" lon="6.0367">
        <ele>2047.4560546875</ele>
        <time>2017-11-17T11:41:33Z</time>
      </trkpt>
      <trkpt lat="45.25228" lon="6.03666">
        <ele>2047.4549560547</ele>
        <time>2017-11-17T11:41:42Z</time>
      </trkpt>
      <trkpt lat="45.25233" lon="6.03664">
        <ele>2049.455078125</ele>
        <time>2017-11-17T11:41:53Z</time>
      </trkpt>
      <trkpt lat="45.25235" lon="6.03658">
        <ele>2049.455078125</ele>
        <time>2017-11-17T11:42:00Z</time>
      </trkpt>
      <trkpt lat="45.25238" lon="6.03652">
        <ele>2049.455078125</ele>
        <time>2017-11-17T11:42:09Z</time>
      </trkpt>
      <trkpt lat="45.25241" lon="6.03647">
        <ele>2051.455078125</ele>
        <time>2017-11-17T11:42:18Z</time>
      </trkpt>
      <trkpt lat="45.25246" lon="6.03644">
        <ele>2053.455078125</ele>
        <time>2017-11-17T11:42:23Z</time>
      </trkpt>
      <trkpt lat="45.2525" lon="6.03641">
        <ele>2053.4560546875</ele>
        <time>2017-11-17T11:42:29Z</time>
      </trkpt>
      <trkpt lat="45.25256" lon="6.0364">
        <ele>2053.4560546875</ele>
        <time>2017-11-17T11:42:34Z</time>
      </trkpt>
      <trkpt lat="45.2526" lon="6.03638">
        <ele>2056.4560546875</ele>
        <time>2017-11-17T11:42:43Z</time>
      </trkpt>
      <trkpt lat="45.25265" lon="6.03636">
        <ele>2058.4560546875</ele>
        <time>2017-11-17T11:42:48Z</time>
      </trkpt>
      <trkpt lat="45.2527" lon="6.03634">
        <ele>2059.4560546875</ele>
        <time>2017-11-17T11:42:53Z</time>
      </trkpt>
      <trkpt lat="45.25274" lon="6.03634">
        <ele>2060.4560546875</ele>
        <time>2017-11-17T11:43:01Z</time>
      </trkpt>
      <trkpt lat="45.25279" lon="6.03632">
        <ele>2063.4560546875</ele>
        <time>2017-11-17T11:43:06Z</time>
      </trkpt>
      <trkpt lat="45.25284" lon="6.03631">
        <ele>2063.4560546875</ele>
        <time>2017-11-17T11:43:12Z</time>
      </trkpt>
      <trkpt lat="45.25289" lon="6.03629">
        <ele>2067.4560546875</ele>
        <time>2017-11-17T11:43:17Z</time>
      </trkpt>
      <trkpt lat="45.25293" lon="6.03629">
        <ele>2068.4560546875</ele>
        <time>2017-11-17T11:43:24Z</time>
      </trkpt>
      <trkpt lat="45.25298" lon="6.03626">
        <ele>2068.4560546875</ele>
        <time>2017-11-17T11:43:32Z</time>
      </trkpt>
      <trkpt lat="45.25303" lon="6.03625">
        <ele>2071.4560546875</ele>
        <time>2017-11-17T11:43:42Z</time>
      </trkpt>
      <trkpt lat="45.25308" lon="6.03625">
        <ele>2073.4560546875</ele>
        <time>2017-11-17T11:43:47Z</time>
      </trkpt>
      <trkpt lat="45.25312" lon="6.03623">
        <ele>2073.4560546875</ele>
        <time>2017-11-17T11:43:52Z</time>
      </trkpt>
      <trkpt lat="45.25317" lon="6.03625">
        <ele>2075.4560546875</ele>
        <time>2017-11-17T11:43:59Z</time>
      </trkpt>
      <trkpt lat="45.25322" lon="6.03626">
        <ele>2076.4560546875</ele>
        <time>2017-11-17T11:44:04Z</time>
      </trkpt>
      <trkpt lat="45.25327" lon="6.03625">
        <ele>2076.4560546875</ele>
        <time>2017-11-17T11:44:09Z</time>
      </trkpt>
      <trkpt lat="45.25328" lon="6.03618">
        <ele>2083.4560546875</ele>
        <time>2017-11-17T11:44:30Z</time>
      </trkpt>
      <trkpt lat="45.25328" lon="6.03612">
        <ele>2081.4560546875</ele>
        <time>2017-11-17T11:44:42Z</time>
      </trkpt>
      <trkpt lat="45.25325" lon="6.03606">
        <ele>2080.4560546875</ele>
        <time>2017-11-17T11:44:51Z</time>
      </trkpt>
      <trkpt lat="45.25323" lon="6.03599">
        <ele>2082.4560546875</ele>
        <time>2017-11-17T11:44:56Z</time>
      </trkpt>
      <trkpt lat="45.25325" lon="6.03593">
        <ele>2085.4560546875</ele>
        <time>2017-11-17T11:45:01Z</time>
      </trkpt>
      <trkpt lat="45.25328" lon="6.03587">
        <ele>2086.4560546875</ele>
        <time>2017-11-17T11:45:05Z</time>
      </trkpt>
      <trkpt lat="45.25331" lon="6.03581">
        <ele>2090.4560546875</ele>
        <time>2017-11-17T11:45:13Z</time>
      </trkpt>
      <trkpt lat="45.25335" lon="6.03576">
        <ele>2093.4560546875</ele>
        <time>2017-11-17T11:45:21Z</time>
      </trkpt>
      <trkpt lat="45.25339" lon="6.03573">
        <ele>2094.4560546875</ele>
        <time>2017-11-17T11:45:26Z</time>
      </trkpt>
      <trkpt lat="45.25343" lon="6.0357">
        <ele>2098.4560546875</ele>
        <time>2017-11-17T11:45:32Z</time>
      </trkpt>
      <trkpt lat="45.25348" lon="6.03566">
        <ele>2097.4560546875</ele>
        <time>2017-11-17T11:45:38Z</time>
      </trkpt>
      <trkpt lat="45.25352" lon="6.03563">
        <ele>2098.4560546875</ele>
        <time>2017-11-17T11:45:45Z</time>
      </trkpt>
      <trkpt lat="45.25356" lon="6.03558">
        <ele>2097.4560546875</ele>
        <time>2017-11-17T11:45:52Z</time>
      </trkpt>
      <trkpt lat="45.2536" lon="6.03554">
        <ele>2098.4560546875</ele>
        <time>2017-11-17T11:46:00Z</time>
      </trkpt>
      <trkpt lat="45.25356" lon="6.03548">
        <ele>2103.4560546875</ele>
        <time>2017-11-17T11:46:11Z</time>
      </trkpt>
      <trkpt lat="45.25352" lon="6.03545">
        <ele>2102.4560546875</ele>
        <time>2017-11-17T11:46:20Z</time>
      </trkpt>
      <trkpt lat="45.25356" lon="6.03541">
        <ele>2102.4560546875</ele>
        <time>2017-11-17T11:46:36Z</time>
      </trkpt>
      <trkpt lat="45.25359" lon="6.03536">
        <ele>2106.4560546875</ele>
        <time>2017-11-17T11:46:43Z</time>
      </trkpt>
      <trkpt lat="45.25364" lon="6.03533">
        <ele>2106.4560546875</ele>
        <time>2017-11-17T11:46:48Z</time>
      </trkpt>
      <trkpt lat="45.25368" lon="6.03529">
        <ele>2106.4560546875</ele>
        <time>2017-11-17T11:46:55Z</time>
      </trkpt>
      <trkpt lat="45.25372" lon="6.03525">
        <ele>2103.4560546875</ele>
        <time>2017-11-17T11:47:01Z</time>
      </trkpt>
      <trkpt lat="45.25376" lon="6.03522">
        <ele>2103.4560546875</ele>
        <time>2017-11-17T11:47:06Z</time>
      </trkpt>
      <trkpt lat="45.25381" lon="6.03521">
        <ele>2107.4560546875</ele>
        <time>2017-11-17T11:47:11Z</time>
      </trkpt>
      <trkpt lat="45.25384" lon="6.03516">
        <ele>2109.4560546875</ele>
        <time>2017-11-17T11:47:17Z</time>
      </trkpt>
      <trkpt lat="45.25388" lon="6.03512">
        <ele>2109.4560546875</ele>
        <time>2017-11-17T11:47:23Z</time>
      </trkpt>
      <trkpt lat="45.25392" lon="6.03509">
        <ele>2111.4560546875</ele>
        <time>2017-11-17T11:47:26Z</time>
      </trkpt>
      <trkpt lat="45.25396" lon="6.03505">
        <ele>2117.4560546875</ele>
        <time>2017-11-17T11:47:34Z</time>
      </trkpt>
      <trkpt lat="45.25401" lon="6.03505">
        <ele>2119.4560546875</ele>
        <time>2017-11-17T11:47:39Z</time>
      </trkpt>
      <trkpt lat="45.25407" lon="6.03506">
        <ele>2120.4560546875</ele>
        <time>2017-11-17T11:47:44Z</time>
      </trkpt>
      <trkpt lat="45.25411" lon="6.03502">
        <ele>2118.4560546875</ele>
        <time>2017-11-17T11:47:49Z</time>
      </trkpt>
      <trkpt lat="45.25415" lon="6.03497">
        <ele>2117.4560546875</ele>
        <time>2017-11-17T11:47:57Z</time>
      </trkpt>
      <trkpt lat="45.2541" lon="6.03495">
        <ele>2124.4560546875</ele>
        <time>2017-11-17T11:48:05Z</time>
      </trkpt>
      <trkpt lat="45.25412" lon="6.03488">
        <ele>2125.4560546875</ele>
        <time>2017-11-17T11:48:22Z</time>
      </trkpt>
      <trkpt lat="45.25417" lon="6.03484">
        <ele>2124.4560546875</ele>
        <time>2017-11-17T11:48:26Z</time>
      </trkpt>
      <trkpt lat="45.25421" lon="6.0348">
        <ele>2127.4560546875</ele>
        <time>2017-11-17T11:48:31Z</time>
      </trkpt>
      <trkpt lat="45.25425" lon="6.03476">
        <ele>2127.4560546875</ele>
        <time>2017-11-17T11:48:36Z</time>
      </trkpt>
      <trkpt lat="45.2543" lon="6.03475">
        <ele>2127.4560546875</ele>
        <time>2017-11-17T11:48:51Z</time>
      </trkpt>
      <trkpt lat="45.25436" lon="6.03474">
        <ele>2126.4560546875</ele>
        <time>2017-11-17T11:48:56Z</time>
      </trkpt>
      <trkpt lat="45.25441" lon="6.03476">
        <ele>2130.4560546875</ele>
        <time>2017-11-17T11:49:01Z</time>
      </trkpt>
      <trkpt lat="45.25446" lon="6.03474">
        <ele>2127.4560546875</ele>
        <time>2017-11-17T11:49:07Z</time>
      </trkpt>
      <trkpt lat="45.2545" lon="6.03472">
        <ele>2134.4560546875</ele>
        <time>2017-11-17T11:49:14Z</time>
      </trkpt>
      <trkpt lat="45.25452" lon="6.03465">
        <ele>2132.4560546875</ele>
        <time>2017-11-17T11:49:21Z</time>
      </trkpt>
      <trkpt lat="45.25454" lon="6.03459">
        <ele>2135.4560546875</ele>
        <time>2017-11-17T11:49:25Z</time>
      </trkpt>
      <trkpt lat="45.25455" lon="6.03452">
        <ele>2133.4560546875</ele>
        <time>2017-11-17T11:49:28Z</time>
      </trkpt>
      <trkpt lat="45.25453" lon="6.03446">
        <ele>2131.4560546875</ele>
        <time>2017-11-17T11:49:31Z</time>
      </trkpt>
      <trkpt lat="45.25455" lon="6.03439">
        <ele>2133.4560546875</ele>
        <time>2017-11-17T11:49:35Z</time>
      </trkpt>
      <trkpt lat="45.25459" lon="6.03433">
        <ele>2135.4560546875</ele>
        <time>2017-11-17T11:49:39Z</time>
      </trkpt>
      <trkpt lat="45.25462" lon="6.03425">
        <ele>2135.4560546875</ele>
        <time>2017-11-17T11:49:43Z</time>
      </trkpt>
      <trkpt lat="45.25465" lon="6.03419">
        <ele>2137.4560546875</ele>
        <time>2017-11-17T11:49:47Z</time>
      </trkpt>
      <trkpt lat="45.25468" lon="6.03412">
        <ele>2137.4560546875</ele>
        <time>2017-11-17T11:49:52Z</time>
      </trkpt>
      <trkpt lat="45.2547" lon="6.03406">
        <ele>2136.4560546875</ele>
        <time>2017-11-17T11:49:56Z</time>
      </trkpt>
      <trkpt lat="45.25471" lon="6.03399">
        <ele>2136.4560546875</ele>
        <time>2017-11-17T11:50:01Z</time>
      </trkpt>
      <trkpt lat="45.25475" lon="6.03393">
        <ele>2137.4560546875</ele>
        <time>2017-11-17T11:50:06Z</time>
      </trkpt>
      <trkpt lat="45.25477" lon="6.03386">
        <ele>2136.4560546875</ele>
        <time>2017-11-17T11:50:11Z</time>
      </trkpt>
      <trkpt lat="45.25481" lon="6.0338">
        <ele>2137.4560546875</ele>
        <time>2017-11-17T11:50:16Z</time>
      </trkpt>
      <trkpt lat="45.25482" lon="6.03373">
        <ele>2137.4560546875</ele>
        <time>2017-11-17T11:50:21Z</time>
      </trkpt>
      <trkpt lat="45.25485" lon="6.03366">
        <ele>2139.4560546875</ele>
        <time>2017-11-17T11:50:26Z</time>
      </trkpt>
      <trkpt lat="45.25486" lon="6.03359">
        <ele>2139.4560546875</ele>
        <time>2017-11-17T11:50:31Z</time>
      </trkpt>
      <trkpt lat="45.25483" lon="6.03353">
        <ele>2140.4560546875</ele>
        <time>2017-11-17T11:50:36Z</time>
      </trkpt>
      <trkpt lat="45.25481" lon="6.03347">
        <ele>2143.4560546875</ele>
        <time>2017-11-17T11:50:41Z</time>
      </trkpt>
      <trkpt lat="45.25478" lon="6.03342">
        <ele>2143.4560546875</ele>
        <time>2017-11-17T11:50:47Z</time>
      </trkpt>
      <trkpt lat="45.25476" lon="6.03336">
        <ele>2145.4560546875</ele>
        <time>2017-11-17T11:50:54Z</time>
      </trkpt>
      <trkpt lat="45.25475" lon="6.03329">
        <ele>2146.4560546875</ele>
        <time>2017-11-17T11:51:00Z</time>
      </trkpt>
      <trkpt lat="45.25474" lon="6.03322">
        <ele>2145.4560546875</ele>
        <time>2017-11-17T11:51:04Z</time>
      </trkpt>
      <trkpt lat="45.25472" lon="6.03316">
        <ele>2147.455078125</ele>
        <time>2017-11-17T11:51:10Z</time>
      </trkpt>
      <trkpt lat="45.25472" lon="6.03309">
        <ele>2148.455078125</ele>
        <time>2017-11-17T11:51:14Z</time>
      </trkpt>
      <trkpt lat="45.25471" lon="6.03303">
        <ele>2149.455078125</ele>
        <time>2017-11-17T11:51:19Z</time>
      </trkpt>
      <trkpt lat="45.25472" lon="6.03296">
        <ele>2149.455078125</ele>
        <time>2017-11-17T11:51:25Z</time>
      </trkpt>
      <trkpt lat="45.25474" lon="6.03289">
        <ele>2150.455078125</ele>
        <time>2017-11-17T11:51:30Z</time>
      </trkpt>
      <trkpt lat="45.25475" lon="6.03283">
        <ele>2150.455078125</ele>
        <time>2017-11-17T11:51:34Z</time>
      </trkpt>
      <trkpt lat="45.25477" lon="6.03277">
        <ele>2151.455078125</ele>
        <time>2017-11-17T11:51:39Z</time>
      </trkpt>
      <trkpt lat="45.25478" lon="6.0327">
        <ele>2151.455078125</ele>
        <time>2017-11-17T11:51:45Z</time>
      </trkpt>
      <trkpt lat="45.25482" lon="6.03265">
        <ele>2154.455078125</ele>
        <time>2017-11-17T11:51:50Z</time>
      </trkpt>
      <trkpt lat="45.25484" lon="6.03258">
        <ele>2154.455078125</ele>
        <time>2017-11-17T11:51:56Z</time>
      </trkpt>
      <trkpt lat="45.25488" lon="6.03252">
        <ele>2155.455078125</ele>
        <time>2017-11-17T11:52:02Z</time>
      </trkpt>
      <trkpt lat="45.25491" lon="6.03246">
        <ele>2157.455078125</ele>
        <time>2017-11-17T11:52:07Z</time>
      </trkpt>
      <trkpt lat="45.25492" lon="6.03239">
        <ele>2157.455078125</ele>
        <time>2017-11-17T11:52:14Z</time>
      </trkpt>
      <trkpt lat="45.25496" lon="6.03234">
        <ele>2160.455078125</ele>
        <time>2017-11-17T11:52:19Z</time>
      </trkpt>
      <trkpt lat="45.25497" lon="6.03228">
        <ele>2161.455078125</ele>
        <time>2017-11-17T11:52:26Z</time>
      </trkpt>
      <trkpt lat="45.25498" lon="6.03221">
        <ele>2162.455078125</ele>
        <time>2017-11-17T11:52:38Z</time>
      </trkpt>
      <trkpt lat="45.25498" lon="6.03214">
        <ele>2161.455078125</ele>
        <time>2017-11-17T11:52:44Z</time>
      </trkpt>
      <trkpt lat="45.25497" lon="6.03208">
        <ele>2161.455078125</ele>
        <time>2017-11-17T11:52:50Z</time>
      </trkpt>
      <trkpt lat="45.25493" lon="6.03203">
        <ele>2163.455078125</ele>
        <time>2017-11-17T11:52:55Z</time>
      </trkpt>
      <trkpt lat="45.2549" lon="6.03199">
        <ele>2164.455078125</ele>
        <time>2017-11-17T11:53:09Z</time>
      </trkpt>
      <trkpt lat="45.25485" lon="6.03197">
        <ele>2167.455078125</ele>
        <time>2017-11-17T11:53:23Z</time>
      </trkpt>
      <trkpt lat="45.25481" lon="6.03197">
        <ele>2170.455078125</ele>
        <time>2017-11-17T11:53:31Z</time>
      </trkpt>
      <trkpt lat="45.25476" lon="6.03198">
        <ele>2171.455078125</ele>
        <time>2017-11-17T11:53:39Z</time>
      </trkpt>
      <trkpt lat="45.25471" lon="6.03198">
        <ele>2174.455078125</ele>
        <time>2017-11-17T11:53:51Z</time>
      </trkpt>
      <trkpt lat="45.25466" lon="6.03201">
        <ele>2178.455078125</ele>
        <time>2017-11-17T11:53:59Z</time>
      </trkpt>
      <trkpt lat="45.25461" lon="6.03199">
        <ele>2181.455078125</ele>
        <time>2017-11-17T11:54:09Z</time>
      </trkpt>
      <trkpt lat="45.25457" lon="6.03203">
        <ele>2183.455078125</ele>
        <time>2017-11-17T11:54:24Z</time>
      </trkpt>
      <trkpt lat="45.25453" lon="6.03208">
        <ele>2188.455078125</ele>
        <time>2017-11-17T11:54:32Z</time>
      </trkpt>
      <trkpt lat="45.25448" lon="6.03204">
        <ele>2189.455078125</ele>
        <time>2017-11-17T11:54:39Z</time>
      </trkpt>
      <trkpt lat="45.25444" lon="6.032">
        <ele>2186.455078125</ele>
        <time>2017-11-17T11:54:44Z</time>
      </trkpt>
      <trkpt lat="45.25439" lon="6.032">
        <ele>2189.455078125</ele>
        <time>2017-11-17T11:54:52Z</time>
      </trkpt>
      <trkpt lat="45.25436" lon="6.03204">
        <ele>2189.455078125</ele>
        <time>2017-11-17T11:54:59Z</time>
      </trkpt>
      <trkpt lat="45.25433" lon="6.03211">
        <ele>2192.455078125</ele>
        <time>2017-11-17T11:55:06Z</time>
      </trkpt>
      <trkpt lat="45.25434" lon="6.03218">
        <ele>2193.455078125</ele>
        <time>2017-11-17T11:55:11Z</time>
      </trkpt>
      <trkpt lat="45.25431" lon="6.03223">
        <ele>2191.455078125</ele>
        <time>2017-11-17T11:55:18Z</time>
      </trkpt>
      <trkpt lat="45.25428" lon="6.03228">
        <ele>2197.455078125</ele>
        <time>2017-11-17T11:55:51Z</time>
      </trkpt>
      <trkpt lat="45.25426" lon="6.03235">
        <ele>2197.455078125</ele>
        <time>2017-11-17T11:55:57Z</time>
      </trkpt>
      <trkpt lat="45.25421" lon="6.03237">
        <ele>2203.455078125</ele>
        <time>2017-11-17T11:56:06Z</time>
      </trkpt>
      <trkpt lat="45.25416" lon="6.03235">
        <ele>2204.455078125</ele>
        <time>2017-11-17T11:56:11Z</time>
      </trkpt>
      <trkpt lat="45.25411" lon="6.03235">
        <ele>2206.455078125</ele>
        <time>2017-11-17T11:56:17Z</time>
      </trkpt>
      <trkpt lat="45.25407" lon="6.03235">
        <ele>2208.455078125</ele>
        <time>2017-11-17T11:56:27Z</time>
      </trkpt>
      <trkpt lat="45.25401" lon="6.03231">
        <ele>2207.455078125</ele>
        <time>2017-11-17T11:56:33Z</time>
      </trkpt>
      <trkpt lat="45.25396" lon="6.03231">
        <ele>2207.455078125</ele>
        <time>2017-11-17T11:56:41Z</time>
      </trkpt>
      <trkpt lat="45.25395" lon="6.03238">
        <ele>2207.455078125</ele>
        <time>2017-11-17T11:56:47Z</time>
      </trkpt>
      <trkpt lat="45.25394" lon="6.03245">
        <ele>2211.455078125</ele>
        <time>2017-11-17T11:56:55Z</time>
      </trkpt>
      <trkpt lat="45.25393" lon="6.03251">
        <ele>2209.455078125</ele>
        <time>2017-11-17T11:57:04Z</time>
      </trkpt>
      <trkpt lat="45.2539" lon="6.03256">
        <ele>2211.455078125</ele>
        <time>2017-11-17T11:57:11Z</time>
      </trkpt>
      <trkpt lat="45.2539" lon="6.03264">
        <ele>2218.455078125</ele>
        <time>2017-11-17T11:57:24Z</time>
      </trkpt>
      <trkpt lat="45.25387" lon="6.03269">
        <ele>2218.455078125</ele>
        <time>2017-11-17T11:57:30Z</time>
      </trkpt>
      <trkpt lat="45.25383" lon="6.03275">
        <ele>2219.455078125</ele>
        <time>2017-11-17T11:57:38Z</time>
      </trkpt>
      <trkpt lat="45.25379" lon="6.03277">
        <ele>2220.455078125</ele>
        <time>2017-11-17T11:57:45Z</time>
      </trkpt>
      <trkpt lat="45.25374" lon="6.03278">
        <ele>2222.455078125</ele>
        <time>2017-11-17T11:57:51Z</time>
      </trkpt>
      <trkpt lat="45.2537" lon="6.03273">
        <ele>2220.455078125</ele>
        <time>2017-11-17T11:58:00Z</time>
      </trkpt>
      <trkpt lat="45.25365" lon="6.03271">
        <ele>2222.455078125</ele>
        <time>2017-11-17T11:58:12Z</time>
      </trkpt>
      <trkpt lat="45.2536" lon="6.03269">
        <ele>2227.455078125</ele>
        <time>2017-11-17T11:58:19Z</time>
      </trkpt>
      <trkpt lat="45.25355" lon="6.03268">
        <ele>2228.455078125</ele>
        <time>2017-11-17T11:58:25Z</time>
      </trkpt>
      <trkpt lat="45.25351" lon="6.03266">
        <ele>2228.455078125</ele>
        <time>2017-11-17T11:58:33Z</time>
      </trkpt>
      <trkpt lat="45.25346" lon="6.03262">
        <ele>2231.455078125</ele>
        <time>2017-11-17T11:58:40Z</time>
      </trkpt>
      <trkpt lat="45.25343" lon="6.03257">
        <ele>2231.455078125</ele>
        <time>2017-11-17T11:58:44Z</time>
      </trkpt>
      <trkpt lat="45.25348" lon="6.03264">
        <ele>2236.455078125</ele>
        <time>2017-11-17T12:04:47Z</time>
      </trkpt>
      <trkpt lat="45.25356" lon="6.03269">
        <ele>2234.455078125</ele>
        <time>2017-11-17T12:04:49Z</time>
      </trkpt>
      <trkpt lat="45.25367" lon="6.03278">
        <ele>2233.455078125</ele>
        <time>2017-11-17T12:04:51Z</time>
      </trkpt>
      <trkpt lat="45.25378" lon="6.03268">
        <ele>2233.455078125</ele>
        <time>2017-11-17T12:04:53Z</time>
      </trkpt>
      <trkpt lat="45.25389" lon="6.03262">
        <ele>2233.455078125</ele>
        <time>2017-11-17T12:04:55Z</time>
      </trkpt>
      <trkpt lat="45.25396" lon="6.03248">
        <ele>2233.455078125</ele>
        <time>2017-11-17T12:04:58Z</time>
      </trkpt>
      <trkpt lat="45.254" lon="6.03241">
        <ele>2231.455078125</ele>
        <time>2017-11-17T12:04:59Z</time>
      </trkpt>
      <trkpt lat="45.25406" lon="6.03228">
        <ele>2231.455078125</ele>
        <time>2017-11-17T12:05:01Z</time>
      </trkpt>
      <trkpt lat="45.25417" lon="6.03228">
        <ele>2227.455078125</ele>
        <time>2017-11-17T12:05:03Z</time>
      </trkpt>
      <trkpt lat="45.25424" lon="6.03218">
        <ele>2223.455078125</ele>
        <time>2017-11-17T12:05:05Z</time>
      </trkpt>
      <trkpt lat="45.25436" lon="6.03214">
        <ele>2221.455078125</ele>
        <time>2017-11-17T12:05:07Z</time>
      </trkpt>
      <trkpt lat="45.2544" lon="6.03207">
        <ele>2219.455078125</ele>
        <time>2017-11-17T12:05:08Z</time>
      </trkpt>
      <trkpt lat="45.25448" lon="6.03192">
        <ele>2217.455078125</ele>
        <time>2017-11-17T12:05:10Z</time>
      </trkpt>
      <trkpt lat="45.25456" lon="6.03184">
        <ele>2215.455078125</ele>
        <time>2017-11-17T12:05:12Z</time>
      </trkpt>
      <trkpt lat="45.25468" lon="6.03189">
        <ele>2212.455078125</ele>
        <time>2017-11-17T12:05:14Z</time>
      </trkpt>
      <trkpt lat="45.25472" lon="6.03188">
        <ele>2210.455078125</ele>
        <time>2017-11-17T12:05:15Z</time>
      </trkpt>
      <trkpt lat="45.25477" lon="6.03192">
        <ele>2207.455078125</ele>
        <time>2017-11-17T12:05:16Z</time>
      </trkpt>
      <trkpt lat="45.25483" lon="6.03196">
        <ele>2203.455078125</ele>
        <time>2017-11-17T12:05:18Z</time>
      </trkpt>
      <trkpt lat="45.25488" lon="6.03192">
        <ele>2201.455078125</ele>
        <time>2017-11-17T12:05:20Z</time>
      </trkpt>
      <trkpt lat="45.25493" lon="6.032">
        <ele>2196.455078125</ele>
        <time>2017-11-17T12:05:22Z</time>
      </trkpt>
      <trkpt lat="45.25499" lon="6.03204">
        <ele>2194.455078125</ele>
        <time>2017-11-17T12:05:24Z</time>
      </trkpt>
      <trkpt lat="45.25502" lon="6.03215">
        <ele>2192.455078125</ele>
        <time>2017-11-17T12:05:26Z</time>
      </trkpt>
      <trkpt lat="45.25501" lon="6.03231">
        <ele>2191.455078125</ele>
        <time>2017-11-17T12:05:28Z</time>
      </trkpt>
      <trkpt lat="45.25493" lon="6.03246">
        <ele>2189.455078125</ele>
        <time>2017-11-17T12:05:29Z</time>
      </trkpt>
      <trkpt lat="45.25489" lon="6.03257">
        <ele>2189.455078125</ele>
        <time>2017-11-17T12:05:30Z</time>
      </trkpt>
      <trkpt lat="45.25481" lon="6.03279">
        <ele>2185.455078125</ele>
        <time>2017-11-17T12:05:32Z</time>
      </trkpt>
      <trkpt lat="45.25478" lon="6.03298">
        <ele>2181.455078125</ele>
        <time>2017-11-17T12:05:34Z</time>
      </trkpt>
      <trkpt lat="45.25481" lon="6.03308">
        <ele>2175.4560546875</ele>
        <time>2017-11-17T12:05:36Z</time>
      </trkpt>
      <trkpt lat="45.25485" lon="6.03312">
        <ele>2174.4560546875</ele>
        <time>2017-11-17T12:05:40Z</time>
      </trkpt>
      <trkpt lat="45.25489" lon="6.03317">
        <ele>2171.4560546875</ele>
        <time>2017-11-17T12:05:42Z</time>
      </trkpt>
      <trkpt lat="45.25492" lon="6.03327">
        <ele>2169.4560546875</ele>
        <time>2017-11-17T12:05:43Z</time>
      </trkpt>
      <trkpt lat="45.25501" lon="6.0333">
        <ele>2167.4560546875</ele>
        <time>2017-11-17T12:05:45Z</time>
      </trkpt>
      <trkpt lat="45.25513" lon="6.03324">
        <ele>2163.4560546875</ele>
        <time>2017-11-17T12:05:47Z</time>
      </trkpt>
      <trkpt lat="45.25526" lon="6.03313">
        <ele>2161.4560546875</ele>
        <time>2017-11-17T12:05:49Z</time>
      </trkpt>
      <trkpt lat="45.25538" lon="6.03296">
        <ele>2158.4560546875</ele>
        <time>2017-11-17T12:05:51Z</time>
      </trkpt>
      <trkpt lat="45.25545" lon="6.03284">
        <ele>2157.4560546875</ele>
        <time>2017-11-17T12:05:52Z</time>
      </trkpt>
      <trkpt lat="45.25558" lon="6.03259">
        <ele>2157.4560546875</ele>
        <time>2017-11-17T12:05:54Z</time>
      </trkpt>
      <trkpt lat="45.2557" lon="6.03231">
        <ele>2154.4560546875</ele>
        <time>2017-11-17T12:05:56Z</time>
      </trkpt>
      <trkpt lat="45.25587" lon="6.03209">
        <ele>2152.4560546875</ele>
        <time>2017-11-17T12:05:58Z</time>
      </trkpt>
      <trkpt lat="45.25601" lon="6.0318">
        <ele>2148.4560546875</ele>
        <time>2017-11-17T12:06:00Z</time>
      </trkpt>
      <trkpt lat="45.25614" lon="6.03153">
        <ele>2147.4560546875</ele>
        <time>2017-11-17T12:06:02Z</time>
      </trkpt>
      <trkpt lat="45.2562" lon="6.0314">
        <ele>2147.4560546875</ele>
        <time>2017-11-17T12:06:03Z</time>
      </trkpt>
      <trkpt lat="45.25625" lon="6.03126">
        <ele>2142.4560546875</ele>
        <time>2017-11-17T12:06:04Z</time>
      </trkpt>
      <trkpt lat="45.25636" lon="6.03113">
        <ele>2140.4560546875</ele>
        <time>2017-11-17T12:06:06Z</time>
      </trkpt>
      <trkpt lat="45.25639" lon="6.03108">
        <ele>2138.4560546875</ele>
        <time>2017-11-17T12:06:09Z</time>
      </trkpt>
      <trkpt lat="45.25635" lon="6.03113">
        <ele>2126.4560546875</ele>
        <time>2017-11-17T12:06:24Z</time>
      </trkpt>
      <trkpt lat="45.25633" lon="6.03119">
        <ele>2124.4560546875</ele>
        <time>2017-11-17T12:06:27Z</time>
      </trkpt>
      <trkpt lat="45.2563" lon="6.03125">
        <ele>2119.4560546875</ele>
        <time>2017-11-17T12:06:33Z</time>
      </trkpt>
      <trkpt lat="45.25627" lon="6.03136">
        <ele>2117.4560546875</ele>
        <time>2017-11-17T12:06:35Z</time>
      </trkpt>
      <trkpt lat="45.2563" lon="6.03146">
        <ele>2113.4560546875</ele>
        <time>2017-11-17T12:06:36Z</time>
      </trkpt>
      <trkpt lat="45.2564" lon="6.03161">
        <ele>2110.4560546875</ele>
        <time>2017-11-17T12:06:38Z</time>
      </trkpt>
      <trkpt lat="45.25657" lon="6.03169">
        <ele>2106.4560546875</ele>
        <time>2017-11-17T12:06:40Z</time>
      </trkpt>
      <trkpt lat="45.2568" lon="6.03173">
        <ele>2105.4560546875</ele>
        <time>2017-11-17T12:06:42Z</time>
      </trkpt>
      <trkpt lat="45.25708" lon="6.03183">
        <ele>2101.4560546875</ele>
        <time>2017-11-17T12:06:44Z</time>
      </trkpt>
      <trkpt lat="45.25735" lon="6.03187">
        <ele>2099.4560546875</ele>
        <time>2017-11-17T12:06:46Z</time>
      </trkpt>
      <trkpt lat="45.25764" lon="6.03196">
        <ele>2095.4560546875</ele>
        <time>2017-11-17T12:06:48Z</time>
      </trkpt>
      <trkpt lat="45.25769" lon="6.03196">
        <ele>2087.4560546875</ele>
        <time>2017-11-17T12:06:49Z</time>
      </trkpt>
      <trkpt lat="45.25787" lon="6.032">
        <ele>2082.4560546875</ele>
        <time>2017-11-17T12:06:51Z</time>
      </trkpt>
      <trkpt lat="45.25804" lon="6.03197">
        <ele>2082.4560546875</ele>
        <time>2017-11-17T12:06:53Z</time>
      </trkpt>
      <trkpt lat="45.25811" lon="6.03189">
        <ele>2081.4560546875</ele>
        <time>2017-11-17T12:06:55Z</time>
      </trkpt>
      <trkpt lat="45.25816" lon="6.03185">
        <ele>2080.4560546875</ele>
        <time>2017-11-17T12:06:56Z</time>
      </trkpt>
      <trkpt lat="45.25829" lon="6.03185">
        <ele>2074.4560546875</ele>
        <time>2017-11-17T12:06:58Z</time>
      </trkpt>
      <trkpt lat="45.25837" lon="6.03179">
        <ele>2055.4560546875</ele>
        <time>2017-11-17T12:07:09Z</time>
      </trkpt>
      <trkpt lat="45.25836" lon="6.03167">
        <ele>2054.4560546875</ele>
        <time>2017-11-17T12:07:11Z</time>
      </trkpt>
      <trkpt lat="45.25828" lon="6.03153">
        <ele>2049.4560546875</ele>
        <time>2017-11-17T12:07:13Z</time>
      </trkpt>
      <trkpt lat="45.2582" lon="6.03138">
        <ele>2046.4560546875</ele>
        <time>2017-11-17T12:07:15Z</time>
      </trkpt>
      <trkpt lat="45.25823" lon="6.0312">
        <ele>2042.4560546875</ele>
        <time>2017-11-17T12:07:17Z</time>
      </trkpt>
      <trkpt lat="45.25825" lon="6.03097">
        <ele>2038.4560546875</ele>
        <time>2017-11-17T12:07:19Z</time>
      </trkpt>
      <trkpt lat="45.25838" lon="6.03082">
        <ele>2036.4560546875</ele>
        <time>2017-11-17T12:07:21Z</time>
      </trkpt>
      <trkpt lat="45.25847" lon="6.03071">
        <ele>2030.4560546875</ele>
        <time>2017-11-17T12:07:25Z</time>
      </trkpt>
      <trkpt lat="45.25847" lon="6.03063">
        <ele>2020.4560546875</ele>
        <time>2017-11-17T12:07:31Z</time>
      </trkpt>
      <trkpt lat="45.25847" lon="6.03054">
        <ele>2018.4560546875</ele>
        <time>2017-11-17T12:07:33Z</time>
      </trkpt>
      <trkpt lat="45.25848" lon="6.03044">
        <ele>2017.4560546875</ele>
        <time>2017-11-17T12:07:35Z</time>
      </trkpt>
      <trkpt lat="45.25848" lon="6.03036">
        <ele>2016.4560546875</ele>
        <time>2017-11-17T12:07:37Z</time>
      </trkpt>
      <trkpt lat="45.25848" lon="6.03028">
        <ele>2016.4560546875</ele>
        <time>2017-11-17T12:07:39Z</time>
      </trkpt>
      <trkpt lat="45.2585" lon="6.03019">
        <ele>2014.4560546875</ele>
        <time>2017-11-17T12:07:42Z</time>
      </trkpt>
      <trkpt lat="45.25852" lon="6.03011">
        <ele>2011.4560546875</ele>
        <time>2017-11-17T12:07:45Z</time>
      </trkpt>
      <trkpt lat="45.25859" lon="6.03011">
        <ele>2007.4560546875</ele>
        <time>2017-11-17T12:07:47Z</time>
      </trkpt>
      <trkpt lat="45.25866" lon="6.03008">
        <ele>2005.4560546875</ele>
        <time>2017-11-17T12:07:49Z</time>
      </trkpt>
      <trkpt lat="45.2588" lon="6.03008">
        <ele>2002.4560546875</ele>
        <time>2017-11-17T12:07:52Z</time>
      </trkpt>
      <trkpt lat="45.25888" lon="6.03001">
        <ele>1993.4560546875</ele>
        <time>2017-11-17T12:07:54Z</time>
      </trkpt>
      <trkpt lat="45.25898" lon="6.03002">
        <ele>1989.4560546875</ele>
        <time>2017-11-17T12:07:56Z</time>
      </trkpt>
      <trkpt lat="45.25907" lon="6.03">
        <ele>1988.4560546875</ele>
        <time>2017-11-17T12:07:58Z</time>
      </trkpt>
      <trkpt lat="45.25917" lon="6.03001">
        <ele>1986.4560546875</ele>
        <time>2017-11-17T12:08:00Z</time>
      </trkpt>
      <trkpt lat="45.25918" lon="6.02994">
        <ele>1984.4560546875</ele>
        <time>2017-11-17T12:08:01Z</time>
      </trkpt>
      <trkpt lat="45.25924" lon="6.02981">
        <ele>1980.4560546875</ele>
        <time>2017-11-17T12:08:05Z</time>
      </trkpt>
      <trkpt lat="45.25926" lon="6.02969">
        <ele>1978.4560546875</ele>
        <time>2017-11-17T12:08:07Z</time>
      </trkpt>
      <trkpt lat="45.25929" lon="6.02958">
        <ele>1978.4560546875</ele>
        <time>2017-11-17T12:08:09Z</time>
      </trkpt>
      <trkpt lat="45.25938" lon="6.02956">
        <ele>1977.4560546875</ele>
        <time>2017-11-17T12:08:11Z</time>
      </trkpt>
      <trkpt lat="45.2595" lon="6.02959">
        <ele>1972.4560546875</ele>
        <time>2017-11-17T12:08:13Z</time>
      </trkpt>
      <trkpt lat="45.2596" lon="6.02963">
        <ele>1969.4560546875</ele>
        <time>2017-11-17T12:08:15Z</time>
      </trkpt>
      <trkpt lat="45.25974" lon="6.0296">
        <ele>1966.4560546875</ele>
        <time>2017-11-17T12:08:17Z</time>
      </trkpt>
      <trkpt lat="45.25984" lon="6.02973">
        <ele>1961.4560546875</ele>
        <time>2017-11-17T12:08:19Z</time>
      </trkpt>
      <trkpt lat="45.25994" lon="6.02973">
        <ele>1959.4560546875</ele>
        <time>2017-11-17T12:08:21Z</time>
      </trkpt>
      <trkpt lat="45.26002" lon="6.0297">
        <ele>1951.4560546875</ele>
        <time>2017-11-17T12:08:23Z</time>
      </trkpt>
      <trkpt lat="45.26007" lon="6.02952">
        <ele>1947.4560546875</ele>
        <time>2017-11-17T12:08:26Z</time>
      </trkpt>
      <trkpt lat="45.26008" lon="6.02941">
        <ele>1944.4560546875</ele>
        <time>2017-11-17T12:08:28Z</time>
      </trkpt>
      <trkpt lat="45.26007" lon="6.02927">
        <ele>1939.4560546875</ele>
        <time>2017-11-17T12:08:30Z</time>
      </trkpt>
      <trkpt lat="45.26015" lon="6.02916">
        <ele>1936.4560546875</ele>
        <time>2017-11-17T12:08:32Z</time>
      </trkpt>
      <trkpt lat="45.26025" lon="6.02917">
        <ele>1936.4560546875</ele>
        <time>2017-11-17T12:08:34Z</time>
      </trkpt>
      <trkpt lat="45.26031" lon="6.02917">
        <ele>1934.4560546875</ele>
        <time>2017-11-17T12:08:36Z</time>
      </trkpt>
      <trkpt lat="45.26035" lon="6.02913">
        <ele>1931.4560546875</ele>
        <time>2017-11-17T12:08:42Z</time>
      </trkpt>
      <trkpt lat="45.26041" lon="6.02911">
        <ele>1927.4560546875</ele>
        <time>2017-11-17T12:08:47Z</time>
      </trkpt>
      <trkpt lat="45.26047" lon="6.02911">
        <ele>1925.4560546875</ele>
        <time>2017-11-17T12:08:49Z</time>
      </trkpt>
      <trkpt lat="45.2605" lon="6.02917">
        <ele>1923.4560546875</ele>
        <time>2017-11-17T12:08:52Z</time>
      </trkpt>
      <trkpt lat="45.26052" lon="6.02923">
        <ele>1920.4560546875</ele>
        <time>2017-11-17T12:08:54Z</time>
      </trkpt>
      <trkpt lat="45.26053" lon="6.02938">
        <ele>1917.4560546875</ele>
        <time>2017-11-17T12:08:56Z</time>
      </trkpt>
      <trkpt lat="45.26059" lon="6.02943">
        <ele>1915.4560546875</ele>
        <time>2017-11-17T12:08:58Z</time>
      </trkpt>
      <trkpt lat="45.26065" lon="6.02944">
        <ele>1914.4560546875</ele>
        <time>2017-11-17T12:09:00Z</time>
      </trkpt>
      <trkpt lat="45.26072" lon="6.02943">
        <ele>1912.4560546875</ele>
        <time>2017-11-17T12:09:02Z</time>
      </trkpt>
      <trkpt lat="45.26077" lon="6.02945">
        <ele>1912.4560546875</ele>
        <time>2017-11-17T12:09:04Z</time>
      </trkpt>
      <trkpt lat="45.2608" lon="6.0295">
        <ele>1912.4560546875</ele>
        <time>2017-11-17T12:09:08Z</time>
      </trkpt>
      <trkpt lat="45.26089" lon="6.02961">
        <ele>1911.4560546875</ele>
        <time>2017-11-17T12:09:12Z</time>
      </trkpt>
      <trkpt lat="45.26095" lon="6.02967">
        <ele>1910.4560546875</ele>
        <time>2017-11-17T12:09:14Z</time>
      </trkpt>
      <trkpt lat="45.26097" lon="6.0296">
        <ele>1907.4560546875</ele>
        <time>2017-11-17T12:09:17Z</time>
      </trkpt>
      <trkpt lat="45.26097" lon="6.02953">
        <ele>1908.4560546875</ele>
        <time>2017-11-17T12:09:19Z</time>
      </trkpt>
      <trkpt lat="45.26103" lon="6.02954">
        <ele>1907.4560546875</ele>
        <time>2017-11-17T12:09:21Z</time>
      </trkpt>
      <trkpt lat="45.26109" lon="6.02958">
        <ele>1904.4560546875</ele>
        <time>2017-11-17T12:09:23Z</time>
      </trkpt>
      <trkpt lat="45.26116" lon="6.02961">
        <ele>1903.4560546875</ele>
        <time>2017-11-17T12:09:25Z</time>
      </trkpt>
      <trkpt lat="45.26115" lon="6.0295">
        <ele>1899.4560546875</ele>
        <time>2017-11-17T12:09:28Z</time>
      </trkpt>
      <trkpt lat="45.26113" lon="6.02941">
        <ele>1897.4560546875</ele>
        <time>2017-11-17T12:09:30Z</time>
      </trkpt>
      <trkpt lat="45.26122" lon="6.02945">
        <ele>1895.4560546875</ele>
        <time>2017-11-17T12:09:32Z</time>
      </trkpt>
      <trkpt lat="45.26126" lon="6.0295">
        <ele>1891.4560546875</ele>
        <time>2017-11-17T12:09:34Z</time>
      </trkpt>
      <trkpt lat="45.26131" lon="6.02953">
        <ele>1890.4560546875</ele>
        <time>2017-11-17T12:09:36Z</time>
      </trkpt>
      <trkpt lat="45.26136" lon="6.02955">
        <ele>1888.4560546875</ele>
        <time>2017-11-17T12:09:38Z</time>
      </trkpt>
      <trkpt lat="45.26147" lon="6.02963">
        <ele>1886.4560546875</ele>
        <time>2017-11-17T12:09:41Z</time>
      </trkpt>
      <trkpt lat="45.26155" lon="6.02963">
        <ele>1883.4560546875</ele>
        <time>2017-11-17T12:09:43Z</time>
      </trkpt>
      <trkpt lat="45.26161" lon="6.02955">
        <ele>1880.4560546875</ele>
        <time>2017-11-17T12:09:45Z</time>
      </trkpt>
      <trkpt lat="45.26167" lon="6.02944">
        <ele>1878.4560546875</ele>
        <time>2017-11-17T12:09:47Z</time>
      </trkpt>
      <trkpt lat="45.26176" lon="6.02933">
        <ele>1875.4560546875</ele>
        <time>2017-11-17T12:09:50Z</time>
      </trkpt>
      <trkpt lat="45.26182" lon="6.02918">
        <ele>1868.4560546875</ele>
        <time>2017-11-17T12:09:53Z</time>
      </trkpt>
      <trkpt lat="45.2618" lon="6.02909">
        <ele>1866.4560546875</ele>
        <time>2017-11-17T12:09:54Z</time>
      </trkpt>
      <trkpt lat="45.2618" lon="6.02893">
        <ele>1862.4560546875</ele>
        <time>2017-11-17T12:09:56Z</time>
      </trkpt>
      <trkpt lat="45.26186" lon="6.02885">
        <ele>1857.4560546875</ele>
        <time>2017-11-17T12:09:58Z</time>
      </trkpt>
      <trkpt lat="45.26196" lon="6.02888">
        <ele>1855.4560546875</ele>
        <time>2017-11-17T12:10:00Z</time>
      </trkpt>
      <trkpt lat="45.26201" lon="6.02893">
        <ele>1850.4560546875</ele>
        <time>2017-11-17T12:10:01Z</time>
      </trkpt>
      <trkpt lat="45.26214" lon="6.02895">
        <ele>1845.4560546875</ele>
        <time>2017-11-17T12:10:03Z</time>
      </trkpt>
      <trkpt lat="45.26224" lon="6.02895">
        <ele>1843.4560546875</ele>
        <time>2017-11-17T12:10:05Z</time>
      </trkpt>
      <trkpt lat="45.26231" lon="6.02894">
        <ele>1840.4560546875</ele>
        <time>2017-11-17T12:10:07Z</time>
      </trkpt>
      <trkpt lat="45.26232" lon="6.02903">
        <ele>1838.4560546875</ele>
        <time>2017-11-17T12:10:08Z</time>
      </trkpt>
      <trkpt lat="45.26236" lon="6.02907">
        <ele>1831.4560546875</ele>
        <time>2017-11-17T12:10:13Z</time>
      </trkpt>
      <trkpt lat="45.26241" lon="6.02911">
        <ele>1828.4560546875</ele>
        <time>2017-11-17T12:10:17Z</time>
      </trkpt>
      <trkpt lat="45.26241" lon="6.02902">
        <ele>1827.4560546875</ele>
        <time>2017-11-17T12:10:36Z</time>
      </trkpt>
      <trkpt lat="45.26243" lon="6.02896">
        <ele>1819.4560546875</ele>
        <time>2017-11-17T12:10:44Z</time>
      </trkpt>
      <trkpt lat="45.26248" lon="6.02896">
        <ele>1818.4560546875</ele>
        <time>2017-11-17T12:10:47Z</time>
      </trkpt>
      <trkpt lat="45.2625" lon="6.02885">
        <ele>1815.4560546875</ele>
        <time>2017-11-17T12:10:50Z</time>
      </trkpt>
      <trkpt lat="45.26249" lon="6.02878">
        <ele>1812.4560546875</ele>
        <time>2017-11-17T12:10:51Z</time>
      </trkpt>
      <trkpt lat="45.26249" lon="6.02867">
        <ele>1811.4560546875</ele>
        <time>2017-11-17T12:10:53Z</time>
      </trkpt>
      <trkpt lat="45.26257" lon="6.02865">
        <ele>1807.4560546875</ele>
        <time>2017-11-17T12:10:55Z</time>
      </trkpt>
      <trkpt lat="45.26258" lon="6.02857">
        <ele>1804.4560546875</ele>
        <time>2017-11-17T12:10:58Z</time>
      </trkpt>
      <trkpt lat="45.26264" lon="6.0286">
        <ele>1800.4560546875</ele>
        <time>2017-11-17T12:11:00Z</time>
      </trkpt>
      <trkpt lat="45.26273" lon="6.02868">
        <ele>1798.4560546875</ele>
        <time>2017-11-17T12:11:02Z</time>
      </trkpt>
      <trkpt lat="45.26281" lon="6.02871">
        <ele>1796.4560546875</ele>
        <time>2017-11-17T12:11:09Z</time>
      </trkpt>
      <trkpt lat="45.26288" lon="6.02872">
        <ele>1795.45703125</ele>
        <time>2017-11-17T12:11:12Z</time>
      </trkpt>
      <trkpt lat="45.26295" lon="6.02873">
        <ele>1795.45703125</ele>
        <time>2017-11-17T12:11:14Z</time>
      </trkpt>
      <trkpt lat="45.26303" lon="6.02873">
        <ele>1795.45703125</ele>
        <time>2017-11-17T12:11:16Z</time>
      </trkpt>
      <trkpt lat="45.26313" lon="6.02872">
        <ele>1793.45703125</ele>
        <time>2017-11-17T12:11:18Z</time>
      </trkpt>
      <trkpt lat="45.26324" lon="6.02871">
        <ele>1791.45703125</ele>
        <time>2017-11-17T12:11:21Z</time>
      </trkpt>
      <trkpt lat="45.26324" lon="6.02865">
        <ele>1789.45703125</ele>
        <time>2017-11-17T12:11:24Z</time>
      </trkpt>
      <trkpt lat="45.26325" lon="6.02854">
        <ele>1789.45703125</ele>
        <time>2017-11-17T12:11:26Z</time>
      </trkpt>
      <trkpt lat="45.26327" lon="6.02845">
        <ele>1786.45703125</ele>
        <time>2017-11-17T12:11:28Z</time>
      </trkpt>
      <trkpt lat="45.26332" lon="6.02843">
        <ele>1785.45703125</ele>
        <time>2017-11-17T12:11:31Z</time>
      </trkpt>
      <trkpt lat="45.26327" lon="6.0284">
        <ele>1782.45703125</ele>
        <time>2017-11-17T12:11:33Z</time>
      </trkpt>
      <trkpt lat="45.26327" lon="6.02832">
        <ele>1777.45703125</ele>
        <time>2017-11-17T12:11:39Z</time>
      </trkpt>
      <trkpt lat="45.26331" lon="6.02824">
        <ele>1776.45703125</ele>
        <time>2017-11-17T12:11:41Z</time>
      </trkpt>
      <trkpt lat="45.26336" lon="6.02816">
        <ele>1773.45703125</ele>
        <time>2017-11-17T12:11:43Z</time>
      </trkpt>
      <trkpt lat="45.26342" lon="6.02802">
        <ele>1772.45703125</ele>
        <time>2017-11-17T12:11:45Z</time>
      </trkpt>
      <trkpt lat="45.26349" lon="6.02786">
        <ele>1770.45703125</ele>
        <time>2017-11-17T12:11:47Z</time>
      </trkpt>
      <trkpt lat="45.2636" lon="6.0277">
        <ele>1768.45703125</ele>
        <time>2017-11-17T12:11:49Z</time>
      </trkpt>
      <trkpt lat="45.2637" lon="6.02752">
        <ele>1767.45703125</ele>
        <time>2017-11-17T12:11:51Z</time>
      </trkpt>
      <trkpt lat="45.26375" lon="6.02732">
        <ele>1766.4560546875</ele>
        <time>2017-11-17T12:11:53Z</time>
      </trkpt>
      <trkpt lat="45.26378" lon="6.02714">
        <ele>1765.4560546875</ele>
        <time>2017-11-17T12:11:55Z</time>
      </trkpt>
      <trkpt lat="45.26379" lon="6.02693">
        <ele>1763.4560546875</ele>
        <time>2017-11-17T12:11:57Z</time>
      </trkpt>
      <trkpt lat="45.26378" lon="6.02681">
        <ele>1761.4560546875</ele>
        <time>2017-11-17T12:11:58Z</time>
      </trkpt>
      <trkpt lat="45.26374" lon="6.02657">
        <ele>1760.4560546875</ele>
        <time>2017-11-17T12:12:00Z</time>
      </trkpt>
      <trkpt lat="45.26368" lon="6.02634">
        <ele>1758.4560546875</ele>
        <time>2017-11-17T12:12:02Z</time>
      </trkpt>
      <trkpt lat="45.26359" lon="6.02614">
        <ele>1756.4560546875</ele>
        <time>2017-11-17T12:12:04Z</time>
      </trkpt>
      <trkpt lat="45.26349" lon="6.026">
        <ele>1753.4560546875</ele>
        <time>2017-11-17T12:12:06Z</time>
      </trkpt>
      <trkpt lat="45.26339" lon="6.02588">
        <ele>1752.4560546875</ele>
        <time>2017-11-17T12:12:08Z</time>
      </trkpt>
      <trkpt lat="45.26327" lon="6.02577">
        <ele>1751.4560546875</ele>
        <time>2017-11-17T12:12:10Z</time>
      </trkpt>
      <trkpt lat="45.26315" lon="6.02568">
        <ele>1750.4560546875</ele>
        <time>2017-11-17T12:12:12Z</time>
      </trkpt>
      <trkpt lat="45.26304" lon="6.02558">
        <ele>1749.4560546875</ele>
        <time>2017-11-17T12:12:14Z</time>
      </trkpt>
      <trkpt lat="45.26292" lon="6.02548">
        <ele>1748.4560546875</ele>
        <time>2017-11-17T12:12:16Z</time>
      </trkpt>
      <trkpt lat="45.26281" lon="6.02535">
        <ele>1746.4560546875</ele>
        <time>2017-11-17T12:12:18Z</time>
      </trkpt>
      <trkpt lat="45.26277" lon="6.0252">
        <ele>1744.4560546875</ele>
        <time>2017-11-17T12:12:20Z</time>
      </trkpt>
      <trkpt lat="45.26277" lon="6.02503">
        <ele>1741.4560546875</ele>
        <time>2017-11-17T12:12:22Z</time>
      </trkpt>
      <trkpt lat="45.26279" lon="6.02487">
        <ele>1740.4560546875</ele>
        <time>2017-11-17T12:12:25Z</time>
      </trkpt>
      <trkpt lat="45.26285" lon="6.02468">
        <ele>1737.4560546875</ele>
        <time>2017-11-17T12:12:27Z</time>
      </trkpt>
      <trkpt lat="45.26291" lon="6.02448">
        <ele>1734.4560546875</ele>
        <time>2017-11-17T12:12:29Z</time>
      </trkpt>
      <trkpt lat="45.263" lon="6.02427">
        <ele>1729.4560546875</ele>
        <time>2017-11-17T12:12:31Z</time>
      </trkpt>
      <trkpt lat="45.26305" lon="6.02405">
        <ele>1728.4560546875</ele>
        <time>2017-11-17T12:12:33Z</time>
      </trkpt>
      <trkpt lat="45.26307" lon="6.02387">
        <ele>1728.4560546875</ele>
        <time>2017-11-17T12:12:35Z</time>
      </trkpt>
      <trkpt lat="45.26313" lon="6.02374">
        <ele>1727.4560546875</ele>
        <time>2017-11-17T12:12:37Z</time>
      </trkpt>
      <trkpt lat="45.26313" lon="6.02359">
        <ele>1724.4560546875</ele>
        <time>2017-11-17T12:12:39Z</time>
      </trkpt>
      <trkpt lat="45.26308" lon="6.02344">
        <ele>1723.4560546875</ele>
        <time>2017-11-17T12:12:41Z</time>
      </trkpt>
      <trkpt lat="45.26301" lon="6.02331">
        <ele>1721.4560546875</ele>
        <time>2017-11-17T12:12:43Z</time>
      </trkpt>
      <trkpt lat="45.26291" lon="6.02318">
        <ele>1720.4560546875</ele>
        <time>2017-11-17T12:12:45Z</time>
      </trkpt>
      <trkpt lat="45.26274" lon="6.02302">
        <ele>1717.4560546875</ele>
        <time>2017-11-17T12:12:48Z</time>
      </trkpt>
      <trkpt lat="45.26265" lon="6.02294">
        <ele>1716.4560546875</ele>
        <time>2017-11-17T12:12:50Z</time>
      </trkpt>
      <trkpt lat="45.26258" lon="6.02288">
        <ele>1713.4560546875</ele>
        <time>2017-11-17T12:12:52Z</time>
      </trkpt>
      <trkpt lat="45.26255" lon="6.02283">
        <ele>1712.4560546875</ele>
        <time>2017-11-17T12:12:53Z</time>
      </trkpt>
      <trkpt lat="45.26249" lon="6.0227">
        <ele>1710.4560546875</ele>
        <time>2017-11-17T12:12:55Z</time>
      </trkpt>
      <trkpt lat="45.26245" lon="6.02254">
        <ele>1709.4560546875</ele>
        <time>2017-11-17T12:12:57Z</time>
      </trkpt>
      <trkpt lat="45.26239" lon="6.02238">
        <ele>1708.4560546875</ele>
        <time>2017-11-17T12:12:59Z</time>
      </trkpt>
      <trkpt lat="45.26227" lon="6.02227">
        <ele>1707.4560546875</ele>
        <time>2017-11-17T12:13:01Z</time>
      </trkpt>
      <trkpt lat="45.26218" lon="6.02212">
        <ele>1705.4549560547</ele>
        <time>2017-11-17T12:13:03Z</time>
      </trkpt>
      <trkpt lat="45.26213" lon="6.02194">
        <ele>1702.4549560547</ele>
        <time>2017-11-17T12:13:05Z</time>
      </trkpt>
      <trkpt lat="45.26208" lon="6.02174">
        <ele>1700.4549560547</ele>
        <time>2017-11-17T12:13:07Z</time>
      </trkpt>
      <trkpt lat="45.26201" lon="6.02155">
        <ele>1695.4549560547</ele>
        <time>2017-11-17T12:13:09Z</time>
      </trkpt>
      <trkpt lat="45.26196" lon="6.02133">
        <ele>1693.4549560547</ele>
        <time>2017-11-17T12:13:11Z</time>
      </trkpt>
      <trkpt lat="45.26192" lon="6.0211">
        <ele>1693.4549560547</ele>
        <time>2017-11-17T12:13:13Z</time>
      </trkpt>
      <trkpt lat="45.26188" lon="6.0209">
        <ele>1692.4549560547</ele>
        <time>2017-11-17T12:13:15Z</time>
      </trkpt>
      <trkpt lat="45.26186" lon="6.02071">
        <ele>1691.4549560547</ele>
        <time>2017-11-17T12:13:17Z</time>
      </trkpt>
      <trkpt lat="45.26185" lon="6.02052">
        <ele>1689.4549560547</ele>
        <time>2017-11-17T12:13:19Z</time>
      </trkpt>
      <trkpt lat="45.26185" lon="6.02034">
        <ele>1688.4549560547</ele>
        <time>2017-11-17T12:13:21Z</time>
      </trkpt>
      <trkpt lat="45.26181" lon="6.02015">
        <ele>1686.4549560547</ele>
        <time>2017-11-17T12:13:23Z</time>
      </trkpt>
      <trkpt lat="45.26184" lon="6.01994">
        <ele>1686.4549560547</ele>
        <time>2017-11-17T12:13:25Z</time>
      </trkpt>
      <trkpt lat="45.2619" lon="6.01972">
        <ele>1680.4549560547</ele>
        <time>2017-11-17T12:13:28Z</time>
      </trkpt>
      <trkpt lat="45.262" lon="6.01964">
        <ele>1676.4549560547</ele>
        <time>2017-11-17T12:13:31Z</time>
      </trkpt>
      <trkpt lat="45.26208" lon="6.01962">
        <ele>1675.4549560547</ele>
        <time>2017-11-17T12:13:33Z</time>
      </trkpt>
      <trkpt lat="45.26216" lon="6.01954">
        <ele>1675.4549560547</ele>
        <time>2017-11-17T12:13:35Z</time>
      </trkpt>
      <trkpt lat="45.26228" lon="6.01945">
        <ele>1674.4549560547</ele>
        <time>2017-11-17T12:13:37Z</time>
      </trkpt>
      <trkpt lat="45.26239" lon="6.01945">
        <ele>1670.4549560547</ele>
        <time>2017-11-17T12:13:39Z</time>
      </trkpt>
      <trkpt lat="45.26247" lon="6.01939">
        <ele>1670.4549560547</ele>
        <time>2017-11-17T12:13:40Z</time>
      </trkpt>
      <trkpt lat="45.26259" lon="6.01949">
        <ele>1668.4549560547</ele>
        <time>2017-11-17T12:13:42Z</time>
      </trkpt>
      <trkpt lat="45.26265" lon="6.01949">
        <ele>1658.4549560547</ele>
        <time>2017-11-17T12:13:45Z</time>
      </trkpt>
      <trkpt lat="45.2627" lon="6.01943">
        <ele>1658.4549560547</ele>
        <time>2017-11-17T12:13:47Z</time>
      </trkpt>
      <trkpt lat="45.26278" lon="6.01932">
        <ele>1656.4549560547</ele>
        <time>2017-11-17T12:13:49Z</time>
      </trkpt>
      <trkpt lat="45.26286" lon="6.01919">
        <ele>1656.4549560547</ele>
        <time>2017-11-17T12:13:51Z</time>
      </trkpt>
      <trkpt lat="45.26297" lon="6.01902">
        <ele>1650.4549560547</ele>
        <time>2017-11-17T12:13:53Z</time>
      </trkpt>
      <trkpt lat="45.26307" lon="6.01887">
        <ele>1649.4549560547</ele>
        <time>2017-11-17T12:13:55Z</time>
      </trkpt>
      <trkpt lat="45.2631" lon="6.01881">
        <ele>1648.4549560547</ele>
        <time>2017-11-17T12:13:56Z</time>
      </trkpt>
      <trkpt lat="45.26321" lon="6.01869">
        <ele>1647.4549560547</ele>
        <time>2017-11-17T12:13:58Z</time>
      </trkpt>
      <trkpt lat="45.26331" lon="6.0186">
        <ele>1644.4549560547</ele>
        <time>2017-11-17T12:14:00Z</time>
      </trkpt>
      <trkpt lat="45.2634" lon="6.01854">
        <ele>1640.4549560547</ele>
        <time>2017-11-17T12:14:02Z</time>
      </trkpt>
      <trkpt lat="45.26349" lon="6.01851">
        <ele>1636.4549560547</ele>
        <time>2017-11-17T12:14:04Z</time>
      </trkpt>
      <trkpt lat="45.26362" lon="6.01841">
        <ele>1635.4549560547</ele>
        <time>2017-11-17T12:14:06Z</time>
      </trkpt>
      <trkpt lat="45.26374" lon="6.01824">
        <ele>1635.4549560547</ele>
        <time>2017-11-17T12:14:08Z</time>
      </trkpt>
      <trkpt lat="45.26375" lon="6.01815">
        <ele>1631.4549560547</ele>
        <time>2017-11-17T12:14:09Z</time>
      </trkpt>
      <trkpt lat="45.26377" lon="6.01803">
        <ele>1627.4549560547</ele>
        <time>2017-11-17T12:14:10Z</time>
      </trkpt>
      <trkpt lat="45.26381" lon="6.01778">
        <ele>1620.4549560547</ele>
        <time>2017-11-17T12:14:12Z</time>
      </trkpt>
      <trkpt lat="45.26383" lon="6.0175">
        <ele>1613.4549560547</ele>
        <time>2017-11-17T12:14:14Z</time>
      </trkpt>
      <trkpt lat="45.26381" lon="6.01726">
        <ele>1607.4549560547</ele>
        <time>2017-11-17T12:14:16Z</time>
      </trkpt>
      <trkpt lat="45.26382" lon="6.01717">
        <ele>1603.4549560547</ele>
        <time>2017-11-17T12:14:17Z</time>
      </trkpt>
      <trkpt lat="45.26383" lon="6.01697">
        <ele>1599.4549560547</ele>
        <time>2017-11-17T12:14:19Z</time>
      </trkpt>
      <trkpt lat="45.26386" lon="6.01674">
        <ele>1594.4549560547</ele>
        <time>2017-11-17T12:14:21Z</time>
      </trkpt>
      <trkpt lat="45.26393" lon="6.01653">
        <ele>1593.4549560547</ele>
        <time>2017-11-17T12:14:23Z</time>
      </trkpt>
      <trkpt lat="45.26406" lon="6.0164">
        <ele>1591.4549560547</ele>
        <time>2017-11-17T12:14:25Z</time>
      </trkpt>
      <trkpt lat="45.26418" lon="6.01626">
        <ele>1590.4549560547</ele>
        <time>2017-11-17T12:14:27Z</time>
      </trkpt>
      <trkpt lat="45.26426" lon="6.0162">
        <ele>1591.4549560547</ele>
        <time>2017-11-17T12:14:28Z</time>
      </trkpt>
      <trkpt lat="45.26437" lon="6.01612">
        <ele>1587.4549560547</ele>
        <time>2017-11-17T12:14:30Z</time>
      </trkpt>
      <trkpt lat="45.26446" lon="6.01602">
        <ele>1586.4549560547</ele>
        <time>2017-11-17T12:14:32Z</time>
      </trkpt>
      <trkpt lat="45.26453" lon="6.01596">
        <ele>1586.4549560547</ele>
        <time>2017-11-17T12:14:34Z</time>
      </trkpt>
      <trkpt lat="45.26457" lon="6.01585">
        <ele>1585.4549560547</ele>
        <time>2017-11-17T12:14:36Z</time>
      </trkpt>
      <trkpt lat="45.26459" lon="6.01579">
        <ele>1583.4549560547</ele>
        <time>2017-11-17T12:14:38Z</time>
      </trkpt>
      <trkpt lat="45.26459" lon="6.01571">
        <ele>1582.4549560547</ele>
        <time>2017-11-17T12:14:40Z</time>
      </trkpt>
      <trkpt lat="45.26458" lon="6.01565">
        <ele>1581.4549560547</ele>
        <time>2017-11-17T12:14:42Z</time>
      </trkpt>
      <trkpt lat="45.26455" lon="6.0156">
        <ele>1579.4549560547</ele>
        <time>2017-11-17T12:14:44Z</time>
      </trkpt>
      <trkpt lat="45.26453" lon="6.01554">
        <ele>1578.4549560547</ele>
        <time>2017-11-17T12:14:46Z</time>
      </trkpt>
      <trkpt lat="45.26447" lon="6.01549">
        <ele>1577.4549560547</ele>
        <time>2017-11-17T12:14:48Z</time>
      </trkpt>
      <trkpt lat="45.26443" lon="6.0154">
        <ele>1577.4549560547</ele>
        <time>2017-11-17T12:14:50Z</time>
      </trkpt>
      <trkpt lat="45.26449" lon="6.0153">
        <ele>1575.4549560547</ele>
        <time>2017-11-17T12:14:52Z</time>
      </trkpt>
      <trkpt lat="45.26451" lon="6.01524">
        <ele>1574.4549560547</ele>
        <time>2017-11-17T12:15:07Z</time>
      </trkpt>
      <trkpt lat="45.26446" lon="6.01523">
        <ele>1570.4549560547</ele>
        <time>2017-11-17T12:15:30Z</time>
      </trkpt>
      <trkpt lat="45.26441" lon="6.0152">
        <ele>1567.4549560547</ele>
        <time>2017-11-17T12:15:34Z</time>
      </trkpt>
    </trkseg>
  </trk>
</gpx>